[[{"header":{"parameterUnit":"m.s-1","parameterCategory":1,"la1":30.6,"la2":29.2853,"lo1":-89.7004,"lo2":-87.6739,"dy":0.0162,"dx":0.0183,"nx":112,"ny":82,"refTime":"2025-07-07T00:00:00:Z","depth":0,"parameterNumber":2,"parameterNumberName":"U-component_of_WINDS"},"data":[0.0,0.0,0.0,0.0,0.0,0.0,0.0,0.0,0.0,0.0,0.0,0.0,0.0,0.0,0.0,0.0,0.0,0.0,0.0,0.0,0.0,0.0,0.0,0.0,0.0,0.0,0.0,0.0,0.0,0.0,0.0,0.0,0.0,0.0,0.0,0.0,0.0,0.0,0.0,0.0,0.0,0.0,0.0,0.0,0.0,0.0,0.0,0.0,0.0,0.0,0.0,0.0,0.0,0.0,0.0,0.0,0.0,0.0,0.0,0.0,0.0,0.0,0.0,0.0,0.0,0.0,0.0,0.0,0.0,0.0,0.0,0.0,0.0,0.0,0.0,0.0,0.0,0.0,0.0,0.0,0.0,0.0,0.0,0.0,0.0,0.0,0.0,0.0,0.0,0.0,0.0,0.1505,0.2211,0.2696,0.2698,0.1845,0.1243,0.11,0.0,0.0,0.0,0.0,0.0,0.0,0.0,0.0,0.0,0.0,0.0,0.0,0.0,0.0,0.0,0.0,0.0,0.0,0.0,0.0,0.0,0.0,0.0,0.0,0.0,0.0,0.0,0.0,0.0,0.0,0.0,0.0,0.0,0.0,0.0,0.0,0.0,0.0,0.0,0.0,0.0,0.0,0.0,0.0,0.0,0.0,0.0,0.0,0.0,0.0,0.0,0.0,0.0,0.0,0.0,0.0,0.0,0.0,0.0,0.0,0.0,0.0,0.0,0.0,0.0,0.0,0.0,0.0,0.0,0.0,0.0,0.0,0.0,0.0,0.0,0.0,0.0,0.0,0.0,0.0,0.0,0.0,0.0,0.0,0.0,0.0,0.0,0.0,0.0,0.0,0.0,0.0,0.0,0.0,0.0,0.0,0.0,0.0,0.0,0.0,0.0,0.0,0.0,0.0,0.1913,0.2421,0.2618,0.2688,0.2698,0.1845,0.1467,0.1887,0.0,0.0,0.0,0.0,0.0,0.0,0.0,0.0,0.0,0.0,0.0,0.0,0.0,0.0,0.0,0.0,0.0,0.0,0.0,0.0,0.0,0.0,0.0,0.0,0.0,0.0,0.0,0.0,0.0,0.0,0.0,0.0,0.0,0.0,0.0,0.0,0.0,0.0,0.0,0.0,0.0,0.0,0.0,0.0,0.0,0.0,0.0,0.0,0.0,0.0,0.0,0.0,0.0,0.0,0.0,0.0,0.0,0.0,0.0,0.0,0.0,0.0,0.0,0.0,0.0,0.0,0.0,0.0,0.0,0.0,0.0,0.0,0.0,0.0,0.0,0.0,0.0,0.0,0.0,0.0,0.0,0.0,0.0,0.0,0.0,0.0,0.0,0.0,0.0,0.0,0.0,0.0,0.0,0.0,0.0,0.0,0.0,0.0,0.0,0.0,0.0,0.0,0.0,0.1708,0.1903,0.2619,0.2713,0.2686,0.2696,0.232,0.1885,0.1465,0.1679,0.0,0.0,0.0,0.0,0.0,0.0,0.0,0.0,0.0,0.0,0.0,0.0,0.0,0.0,0.0,0.0,0.0,0.0,0.0,0.0,0.0,0.0,0.0,0.0,0.0,0.0,0.0,0.0,0.0,0.0,0.0,0.0,0.0,0.0,0.0,0.0,0.0,0.0,0.0,0.0,0.0,0.0,0.0,0.0,0.0,0.0,0.0,0.0,0.0,0.0,0.0,0.0,0.0,0.0,0.0,0.0,0.0,0.0,0.0,0.0,0.0,0.0,0.0,0.0,0.0,0.0,0.0,0.0,0.0,0.0,0.0,0.0,0.0,0.0,0.0,0.0,0.0,0.0,0.0,0.0,0.0,0.0,0.0,0.0,0.0,0.0,0.0,0.0,0.0,0.0,0.0,0.0,0.0,0.0,0.0,0.0,0.0,0.0,0.0,0.0,0.0,0.0,0.1592,0.182,0.2629,0.2688,0.2684,0.2693,0.2662,0.2211,0.1267,0.15,0.0,0.0,0.0,0.0,0.0,0.0,0.0,0.0,0.0,0.0,0.0,0.0,0.0,0.0,0.0,0.0,0.0,0.0,0.0,0.0,0.0,0.0,0.0,0.0,0.0,0.0,0.0,0.0,0.0,0.0,0.0,0.0,0.0,0.0,0.0,0.0,0.0,0.0,0.0,0.0,0.0,0.0,0.0,0.0,0.0,0.0,0.0,0.0,0.0,0.0,0.0,0.0,0.0,0.0,0.0,0.0,0.0,0.0,0.0,0.0,0.0,0.0,0.0,0.0,0.0,0.0,0.0,0.0,0.0,0.0,0.0,0.0,0.0,0.0,0.0,0.0,0.0,0.0,0.0,0.0,0.0,0.0,0.0,0.0,0.0,0.0,0.0,0.0,0.0,0.0,0.0,0.0,0.0,0.0,0.0,0.0,0.0,0.0,0.0,0.0,0.0,0.0,0.1504,0.182,0.2629,0.2688,0.2714,0.2716,0.2527,0.2323,0.2109,0.1559,0.0,0.0,0.0,0.0,0.0,0.0,0.0,0.0,0.0,0.0,0.0,0.0,0.0,0.0,0.0,0.0,0.0,0.0,0.0,0.0,0.0,0.0,0.0,0.0,0.0,0.0,0.0,0.0,0.0,0.0,0.0,0.0,0.0,0.0,0.0,0.0,0.0,0.0,0.0,0.0,0.0,0.0,0.0,0.0,0.0,0.0,0.0,0.0,0.0,0.0,0.0,0.0,0.0,0.0,0.0,0.0,0.0,0.0,0.0,0.0,0.0,0.0,0.0,0.0,0.0,0.0,0.0,0.0,0.0,0.0,0.0,0.0,0.0,0.0,0.0,0.0,0.0,0.0,0.0,0.0,0.0,0.0,0.0,0.0,0.0,0.0,0.0,0.0,0.0,0.0,0.0,0.0,0.0,0.0,0.0,0.0,0.0,0.0,0.0,0.0,0.0,0.0,0.1927,0.2357,0.0,0.2688,0.2714,0.2714,0.263,0.2465,0.2226,0.0,0.0,0.0,0.0,0.0,0.0,0.0,0.0,0.0,0.0,0.0,0.0,0.0,0.0,0.0,0.0,0.0,0.0,0.0,0.0,0.0,0.0,0.0,0.0,0.0,0.0,0.0,0.0,0.0,0.0,0.0,0.0,0.0,0.0,0.0,0.0,0.0,0.0,0.0,0.0,0.0,0.0,0.0,0.0,0.0,0.0,0.0,0.0,0.0,0.0,0.0,0.0,0.0,0.0,0.0,0.0,0.0,0.0,0.0,0.0,0.0,0.0,0.0,0.0,0.0,0.0,0.0,0.0,0.0,0.0,0.0,0.0,0.0,0.0,0.0,0.0,0.0,0.0,0.0,0.0,0.0,0.0,0.0,0.0,0.0,0.0,0.0,0.0,0.0,0.0,0.0,0.0,0.0,0.0,0.0,0.0,0.0,0.0,0.0,0.0,0.0,0.0,0.1697,0.2297,0.2689,0.0,0.2686,0.2714,0.2714,0.267,0.2503,0.2226,0.0,0.0,0.0,0.0,0.0,0.0,0.0,0.0,0.0,0.0,0.0,0.0,0.0,0.0,0.0,0.0,0.0,0.0,0.0,0.0,0.0,0.0,0.0,0.0,0.0,0.0,0.0,0.0,0.0,0.0,0.0,0.0,0.0,0.0,0.0,0.0,0.0,0.0,0.0,0.0,0.0,0.0,0.0,0.0,0.0,0.0,0.0,0.0,0.0,0.0,0.0,0.0,0.0,0.0,0.0,0.0,0.0,0.0,0.0,0.0,0.0,0.0,0.0,0.0,0.0,0.0,0.0,0.0,0.0,0.0,0.0,0.0,0.0,0.0,0.0,0.0,0.0,0.0,0.0,0.0,0.0,0.0,0.0,0.0,0.0,0.0,0.0,0.0,0.0,0.0,0.0,0.0,0.0,0.0,0.0,0.0,0.0,0.0,0.0,0.0,0.0,0.0,0.2135,0.2497,0.2685,0.2716,0.2714,0.2714,0.2714,0.2573,0.2422,0.0,0.0,0.0,0.0,0.0,0.0,0.0,0.0,0.0,0.0,0.0,0.0,0.0,0.0,0.0,0.0,0.0,0.0,0.0,0.0,0.0,0.0,0.0,0.0,0.0,0.0,0.0,0.0,0.0,0.0,0.0,0.0,0.0,0.0,0.0,0.0,0.0,0.0,0.0,0.0,0.0,0.0,0.0,0.0,0.0,0.0,0.0,0.0,0.0,0.0,0.0,0.0,0.0,0.0,0.0,0.0,0.0,0.0,0.0,0.0,0.0,0.0,0.0,0.0,0.0,0.0,0.0,0.0,0.0,0.0,0.0,0.0,0.0,0.0,0.0,0.0,0.0,0.0,0.0,0.0,0.0,0.0,0.0,0.0,0.0,0.0,0.0,0.0,0.0,0.0,0.0,0.0,0.0,0.0,0.0,0.0,0.0,0.0,0.0,0.0,0.0,0.0,0.0,0.2134,0.2382,0.2534,0.2682,0.2714,0.2714,0.2714,0.2671,0.2506,0.2226,0.0,0.0,0.0,0.0,0.0,0.0,0.0,0.0,0.0,0.0,0.0,0.0,0.0,0.0,0.0,0.0,0.0,0.0,0.0,0.0,0.0,0.0,0.0,0.0,0.0,0.0,0.0,0.0,0.0,0.0,0.0,0.0,0.0,0.0,0.0,0.0,0.0,0.0,0.0,0.0,0.0,0.0,0.0,0.0,0.0,0.0,0.0,0.0,0.0,0.0,0.0,0.0,0.0,0.0,0.0,0.0,0.0,0.0,0.0,0.0,0.0,0.0,0.0,0.0,0.0,0.0,0.0,0.0,0.0,0.0,0.0,0.0,0.0,0.0,0.0,0.0,0.0,0.0,0.0,0.0,0.0,0.0,0.0,0.0,0.0,0.0,0.0,0.0,0.0,0.0,0.0,0.0,0.0,0.0,0.0,0.0,0.0,0.0,0.0,0.0,0.0,0.0,0.2142,0.238,0.26,0.2774,0.2718,0.2705,0.2768,0.2717,0.2554,0.2229,0.0,0.0,0.0,0.0,0.0,0.0,0.0,0.0,0.0,0.0,0.0,0.0,0.0,0.0,0.0,0.0,0.0,0.0,0.0,0.0,0.0,0.0,0.0,0.0,0.0,0.0,0.0,0.0,0.0,0.0,0.0,0.0,0.0,0.0,0.0,0.0,0.0,0.0,0.0,0.0,0.0,0.0,0.0,0.0,0.0,0.0,0.0,0.0,0.0,0.0,0.0,0.0,0.0,0.0,0.0,0.0,0.0,0.0,0.0,0.0,0.0,0.0,0.0,0.0,0.0,0.0,0.0,0.0,0.0,0.0,0.0,0.0,0.0,0.0,0.0,0.0,0.0,0.0,0.0,0.0,0.0,0.0,0.0,0.0,0.0,0.0,0.0,0.0,0.0,0.0,0.0,0.0,0.0,0.0,0.0,0.0,0.0,0.0,0.0,0.0,0.0,0.0,0.2155,0.2508,0.276,0.2879,0.2796,0.2773,0.2898,0.2783,0.2574,0.2249,0.0,0.0,0.0,0.0,0.0,0.0,0.0,0.0,0.0,0.0,0.0,0.0,0.0,0.0,0.0,0.0,0.0,0.0,0.0,0.0,0.0,0.0,0.0,0.0,0.0,0.0,0.0,0.0,0.0,0.0,0.0,0.0,0.0,0.0,0.0,0.0,0.0,0.0,0.0,0.0,0.0,0.0,0.0,0.0,0.0,0.0,0.0,0.0,0.0,0.0,0.0,0.0,0.0,0.0,0.0,0.0,0.0,0.0,0.0,0.0,0.3485,0.0,0.0,0.0,0.0,0.0,0.0,0.0,0.0,0.0,0.0,0.0,0.0,0.0,0.0,0.0,0.0,0.0,0.0,0.0,0.0,0.0,0.0,0.0,0.0,0.0,0.0,0.0,0.0,0.0,0.0,0.0,0.0,0.0,0.0,0.0,0.0,0.0,0.0,0.0,0.0,0.0,0.2196,0.2501,0.274,0.289,0.2979,0.2995,0.2917,0.2879,0.273,0.2455,0.2157,0.0,0.0,0.0,0.0,0.0,0.0,0.0,0.0,0.0,0.0,0.0,0.0,0.0,0.0,0.0,0.0,0.0,0.0,0.0,0.0,0.0,0.0,0.0,0.0,0.0,0.0,0.0,0.0,0.0,0.0,0.0,0.0,0.0,0.0,0.0,0.0,0.0,0.0,0.0,0.0,0.0,0.0,0.0,0.0,0.0,0.0,0.0,0.0,0.0,0.0,0.0,0.0,0.0,0.0,0.0,0.0,0.0,0.0,0.0,0.0,0.3757,0.0,0.0,0.0,0.0,0.0,0.0,0.0,0.0,0.0,0.0,0.0,0.0,0.0,0.0,0.0,0.0,0.0,0.0,0.0,0.0,0.0,0.0,0.0,0.0,0.0,0.0,0.0,0.0,0.0,0.0,0.0,0.0,0.0,0.0,0.0,0.0,0.0,0.0,0.0,0.0,0.2527,0.27,0.2876,0.3058,0.3082,0.3082,0.3082,0.299,0.2808,0.2609,0.2376,0.0,0.0,0.0,0.0,0.0,0.0,0.0,0.0,0.0,0.0,0.0,0.0,0.0,0.0,0.0,0.0,0.0,0.0,0.0,0.0,0.0,0.0,0.0,0.0,0.0,0.0,0.0,0.0,0.0,0.0,0.0,0.0,0.0,0.0,0.0,0.0,0.0,0.0,0.0,0.0,0.0,0.0,0.0,0.0,0.0,0.0,0.0,0.0,0.0,0.0,0.0,0.0,0.0,0.3317,0.3365,0.3463,0.3561,0.3763,0.3978,0.4366,0.4263,0.3856,0.452,0.0,0.0,0.0,0.0,0.0,0.0,0.0,0.0,0.0,0.0,0.0,0.0,0.0,0.0,0.0,0.0,0.0,0.0,0.0,0.0,0.0,0.0,0.0,0.0,0.658,0.6618,0.5767,0.0,0.0,0.0,0.0,0.0,0.0,0.0,0.0,0.0,0.0,0.0,0.2936,0.2984,0.3041,0.3281,0.3219,0.3241,0.3299,0.3087,0.291,0.2732,0.2609,0.24,0.0,0.0,0.0,0.0,0.0,0.0,0.0,0.0,0.0,0.0,0.0,0.0,0.0,0.0,0.0,0.0,0.0,0.0,0.0,0.0,0.0,0.0,0.0,0.0,0.0,0.0,0.0,0.0,0.0,0.0,0.0,0.0,0.2653,0.2358,0.0,0.0,0.0,0.0,0.0,0.0,0.0,0.0,0.0,0.0,0.0,0.0,0.0,0.3077,0.3207,0.3565,0.3704,0.3709,0.4099,0.4231,0.4088,0.4395,0.4536,0.4632,0.5441,0.0,0.3871,0.459,0.0,0.0,0.0,0.0,0.0,0.0,0.0,0.0,0.0,0.0,0.0,0.0,0.0,0.0,0.0,0.0,0.0,0.0,0.0,0.0,0.0,0.0,0.8175,0.7469,0.7543,0.7635,0.0,0.6422,0.5568,0.5158,0.4666,0.0,0.0,0.0,0.0,0.0,0.0,0.0,0.3229,0.3242,0.3266,0.3304,0.3451,0.3475,0.3401,0.3315,0.3134,0.2896,0.2735,0.2606,0.2431,0.2274,0.0,0.0,0.0,0.0,0.0,0.0,0.0,0.0,0.0,0.0,0.0,0.0,0.0,0.0,0.0,0.0,0.0,0.0,0.0,0.0,0.0,0.0,0.0,0.0,0.0,0.0,0.0,0.0,0.0,0.2534,0.2697,0.2427,0.244,0.2387,0.0,0.0,0.0,0.0,0.0,0.0,0.0,0.0,0.0,0.3039,0.3383,0.3705,0.3953,0.4115,0.4211,0.4299,0.4497,0.4602,0.4572,0.476,0.4819,0.4823,0.5186,0.5018,0.4453,0.522,0.4872,0.3861,0.0,0.0,0.0,0.0,0.463,0.4493,0.5053,0.5154,0.5094,0.4942,0.0,0.0,0.0,0.0,0.0,0.0,0.0,0.0,0.0,0.0,0.821,0.8061,0.8203,0.8237,0.7546,0.6967,0.6331,0.0,0.5214,0.4793,0.3775,0.0,0.0,0.0,0.0,0.3327,0.3438,0.3367,0.3341,0.347,0.3539,0.3598,0.3528,0.3398,0.3217,0.3041,0.289,0.274,0.262,0.2467,0.2324,0.0,0.0,0.0,0.0,0.0,0.0,0.0,0.0,0.0,0.0,0.0,0.0,0.0,0.0,0.0,0.0,0.0,0.0,0.0,0.0,0.0,0.0,0.0,0.0,0.0,0.0,0.0,0.0,0.2601,0.2742,0.2438,0.248,0.2469,0.0,0.0,0.0,0.0,0.0,0.0,0.2275,0.2441,0.271,0.2997,0.3712,0.4278,0.4588,0.4585,0.4636,0.4748,0.4748,0.4808,0.4921,0.4957,0.4974,0.4975,0.5014,0.5009,0.5003,0.5514,0.5247,0.4494,0.4652,0.4735,0.4815,0.4952,0.4905,0.4875,0.5548,0.5624,0.5345,0.5149,0.5098,0.5118,0.4826,0.0,0.0,0.0,0.0,0.7376,0.7805,0.8021,0.8161,0.8225,0.8381,0.8265,0.7324,0.7126,0.6767,0.0,0.5528,0.5198,0.3922,0.0,0.0,0.0,0.0,0.3446,0.3662,0.3515,0.3453,0.3568,0.358,0.358,0.358,0.3475,0.3286,0.3093,0.3022,0.2878,0.2721,0.2604,0.2524,0.2513,0.0,0.0,0.0,0.0,0.0,0.0,0.0,0.0,0.0,0.0,0.0,0.0,0.0,0.0,0.0,0.0,0.0,0.0,0.0,0.0,0.0,0.0,0.0,0.0,0.0,0.0,0.0,0.0,0.0,0.2472,0.2583,0.0,0.0,0.0,0.0,0.2683,0.273,0.2471,0.1861,0.1531,0.1802,0.2703,0.4069,0.4803,0.4884,0.4892,0.4899,0.4906,0.4906,0.4913,0.4925,0.5059,0.512,0.5128,0.5274,0.5255,0.5108,0.5009,0.4848,0.476,0.5311,0.5094,0.458,0.5066,0.4957,0.453,0.4553,0.4462,0.4309,0.4494,0.4651,0.4878,0.5524,0.5914,0.0,0.0,0.6703,0.7936,0.744,0.8069,0.8603,0.7916,0.7768,0.7557,0.6789,0.6625,0.6481,0.0,0.5548,0.5202,0.4878,0.0,0.4145,0.4173,0.3817,0.3668,0.3961,0.3766,0.3571,0.358,0.358,0.358,0.358,0.3573,0.3441,0.3141,0.3075,0.2981,0.2726,0.2707,0.2634,0.2516,0.2296,0.0,0.0,0.0,0.0,0.0,0.0,0.0,0.0,0.0,0.0,0.0,0.0,0.0,0.0,0.0,0.0,0.0,0.0,0.0,0.0,0.0,0.0,0.0,0.0,0.0,0.0,0.0,0.0,0.312,0.2507,0.0,0.1048,0.1345,0.1691,0.1781,0.1991,0.2352,0.2915,0.322,0.3138,0.2733,0.4346,0.5072,0.4919,0.4919,0.4965,0.5055,0.5055,0.5108,0.5206,0.5257,0.5279,0.5281,0.5338,0.533,0.5274,0.5225,0.5059,0.4836,0.5074,0.4981,0.4757,0.4988,0.493,0.4755,0.4755,0.4723,0.4672,0.4626,0.4579,0.4722,0.5398,0.5652,0.5796,0.6071,0.66,0.7092,0.6895,0.7119,0.7343,0.7074,0.6966,0.6802,0.6034,0.5871,0.5723,0.5059,0.5151,0.5076,0.4303,0.411,0.4021,0.3957,0.3904,0.3901,0.4003,0.3922,0.3824,0.3726,0.3715,0.3678,0.3587,0.358,0.3449,0.3141,0.3082,0.2988,0.2726,0.2714,0.2687,0.2632,0.2482,0.2334,0.0,0.0,0.0,0.0,0.0,0.0,0.0,0.0,0.0,0.0,0.0,0.0,0.0,0.0,0.0,0.0,0.0,0.0,0.0,0.0,0.0,0.0,0.0,0.0,0.0,0.0,0.29,0.3208,0.2721,0.1755,0.0141,0.0538,0.086,0.0871,0.1072,0.1565,0.2315,0.2784,0.261,0.1808,0.4137,0.5298,0.5074,0.5069,0.5114,0.5208,0.5208,0.5264,0.5369,0.542,0.5376,0.5383,0.5499,0.5453,0.5383,0.5465,0.533,0.5086,0.5092,0.5067,0.5062,0.5009,0.4989,0.4984,0.4935,0.4919,0.4901,0.4801,0.4699,0.472,0.5106,0.5254,0.5296,0.5789,0.6041,0.6202,0.6202,0.6421,0.6532,0.6312,0.6202,0.6039,0.5328,0.5164,0.5056,0.457,0.4811,0.4825,0.4151,0.4063,0.4061,0.396,0.3988,0.4019,0.4019,0.4019,0.3982,0.388,0.3822,0.3753,0.3659,0.3609,0.3471,0.3215,0.3149,0.3012,0.2769,0.2708,0.2714,0.2714,0.2533,0.2391,0.2194,0.0,0.0,0.0,0.0,0.0,0.0,0.0,0.0,0.0,0.0,0.0,0.0,0.0,0.0,0.0,0.0,0.0,0.0,0.0,0.0,0.0,0.0,0.0,0.3023,0.234,0.2014,0.2563,0.3114,0.2589,0.0204,-0.0,-0.0,-0.0,-0.0,-0.0,-0.0,-0.0,-0.0,-0.0,0.3416,0.5308,0.5386,0.5376,0.5372,0.5377,0.5377,0.5382,0.5398,0.5336,0.5335,0.5351,0.5555,0.5546,0.5397,0.5537,0.5479,0.5329,0.5364,0.543,0.5343,0.5194,0.5138,0.512,0.4981,0.4931,0.4928,0.4926,0.4923,0.4892,0.4743,0.4697,0.4667,0.4575,0.4959,0.5496,0.5496,0.5987,0.6369,0.5651,0.5487,0.5273,0.4625,0.4519,0.4519,0.4519,0.4517,0.4517,0.4517,0.4346,0.4202,0.4202,0.4078,0.0,0.4034,0.4034,0.4033,0.4027,0.3895,0.3802,0.3792,0.3666,0.3561,0.3397,0.3203,0.3057,0.2915,0.2768,0.2721,0.2721,0.2516,0.2215,0.1808,0.0,0.0,0.0,0.0,0.0,0.0,0.0,0.0,0.0,0.0,0.0,0.0,0.0,0.0,0.0,0.0,0.0,0.0,0.0,0.0,0.0,0.0,0.1917,0.3174,0.2839,0.2003,0.0861,0.091,0.0717,0.0055,-0.0,-0.0,-0.0,-0.0,-0.0,-0.0,-0.0,-0.0,-0.0,0.0993,0.2753,0.5344,0.5413,0.5393,0.5427,0.5427,0.5429,0.5361,0.4017,0.345,0.3452,0.3477,0.4368,0.5553,0.4115,0.3523,0.358,0.4865,0.5387,0.5382,0.5338,0.5323,0.5318,0.5277,0.5264,0.5239,0.5285,0.5145,0.5048,0.4872,0.4855,0.4847,0.4804,0.4827,0.4908,0.4908,0.4996,0.502,0.48,0.4752,0.4705,0.4541,0.4489,0.4489,0.4489,0.448,0.4472,0.4519,0.4429,0.4404,0.4404,0.4368,0.0,0.4339,0.4339,0.43,0.4143,0.4097,0.4033,0.381,0.3756,0.3576,0.3207,0.3144,0.3057,0.2915,0.2869,0.2846,0.2846,0.2698,0.2499,0.0,0.0,0.0,0.0,0.0,0.0,0.0,0.0,0.0,0.0,0.0,0.0,0.0,0.0,0.0,0.0,0.0,0.0,0.0,0.0,0.0,0.0,0.235,0.2,0.3006,0.2235,0.1203,0.0108,-0.0,-0.0,-0.0,-0.0,-0.0,-0.0,-0.0,-0.0,-0.0,-0.0,-0.0,-0.0,-0.0,0.103,0.3145,0.3892,0.4305,0.4297,0.4297,0.4667,0.5342,0.4278,0.3031,0.1552,0.1567,0.3232,0.5901,0.4696,0.3627,0.0,0.0,0.0,0.0,0.0,0.43,0.43,0.43,0.4257,0.4268,0.4257,0.4733,0.5183,0.5114,0.5088,0.5068,0.495,0.4805,0.472,0.4659,0.4584,0.4332,0.3701,0.3523,0.3527,0.3527,0.3527,0.3527,0.3527,0.3523,0.0,0.4411,0.452,0.4517,0.4517,0.4517,0.4517,0.4517,0.4517,0.4429,0.4346,0.4231,0.4125,0.3999,0.3865,0.0,0.0,0.0,0.3151,0.3005,0.2996,0.0,0.0,0.0,0.0,0.0,0.0,0.0,0.0,0.1475,0.2292,0.0,0.0,0.0,0.0,0.0,0.0,0.0,0.0,0.0,0.0,0.0,0.0,0.0,0.0,0.0,0.0,0.3075,0.2714,0.2452,0.1038,-0.0,-0.0,-0.0,-0.0,-0.0,-0.0,-0.0,-0.0,-0.0,-0.0,-0.0,0.0,0.0,0.0,0.0,-0.0,-0.0,0.1586,0.241,0.2417,0.2417,0.323,0.48,0.4761,0.3044,-0.0,-0.0,0.212,0.5612,0.5561,0.4342,0.2414,0.2427,0.2373,0.2366,0.2369,0.241,0.241,0.241,0.0,0.0,0.241,0.3488,0.4827,0.5045,0.5125,0.5086,0.4974,0.4794,0.4496,0.4322,0.4389,0.4157,0.2773,0.2183,0.1953,0.1953,0.1953,0.1953,0.1953,0.2065,0.268,0.4255,0.4472,0.4519,0.4517,0.4517,0.4517,0.4517,0.4519,0.4519,0.4517,0.0,0.0,0.4197,0.3999,0.3827,0.3793,0.3574,0.3349,0.3113,0.3163,0.3164,0.3108,0.3078,0.3034,0.3019,0.2317,0.1966,0.1962,0.0894,0.1516,0.0,0.0,0.0,0.0,0.0,0.0,0.0,0.0,0.0,0.0,0.0,0.0,0.0,0.0,0.0,0.2859,0.3154,0.2739,0.0781,0.0223,-0.0,-0.0,-0.0,-0.0,-0.0,-0.0,-0.0,-0.0,-0.0,-0.0,-0.0,-0.0,-0.0,-0.0,-0.0,-0.0,-0.0,0.0375,0.0531,0.0541,0.0,0.0,0.1007,0.1011,0.0624,-0.0,-0.0,0.0471,0.1257,0.125,0.0925,0.0527,0.0501,0.0491,0.0489,0.0544,0.0538,0.0538,0.0538,0.0538,0.0538,0.0536,0.0737,0.1338,0.2796,0.319,0.0,0.4912,0.4232,0.3122,0.3042,0.3795,0.4432,0.4105,0.2171,0.0448,0.0448,0.0448,0.0448,0.0448,0.1399,0.2689,0.422,0.449,0.4472,0.4519,0.4517,0.4517,0.4517,0.4525,0.4472,0.4519,0.4446,0.4384,0.4205,0.4142,0.4055,0.3807,0.3631,0.3466,0.3269,0.3424,0.3432,0.3266,0.3266,0.3253,0.3259,0.3098,0.3112,0.3235,0.286,0.3017,0.0,0.0,0.0,0.0,0.0,0.0,0.0,0.0,0.0,0.0,0.0,0.2028,0.2164,0.0,0.2547,0.1523,0.0323,-0.0662,-0.1255,-0.1376,-0.1664,-0.259,-0.2687,-0.2326,-0.141,-0.1327,-0.097,-0.0066,-0.0866,-0.1747,-0.2627,-0.1975,-0.1518,-0.1539,-0.158,-0.1547,-0.1586,-0.0536,-0.0,-0.0,-0.0,-0.0,-0.0,-0.0,-0.0,-0.0,-0.0,-0.0,-0.0,-0.0,-0.0,-0.0,-0.0,-0.0,-0.0,-0.0,-0.0,-0.0,-0.0,-0.0,-0.0,-0.0,-0.0,0.0202,0.1074,0.1341,0.154,0.2419,0.3331,0.3613,0.1811,0.1809,0.2224,0.2247,0.1091,-0.0,-0.0,-0.0,-0.0,-0.0,0.0616,0.1344,0.2128,0.3477,0.4494,0.448,0.4473,0.4472,0.4479,0.4479,0.4193,0.3457,0.4024,0.4448,0.437,0.4239,0.4098,0.3919,0.3839,0.3766,0.3643,0.376,0.3765,0.3641,0.3639,0.3649,0.367,0.3616,0.3653,0.3787,0.3581,0.3547,0.0,0.0,0.0,0.0,0.0,0.0,0.0,0.0,0.2913,0.1082,0.0487,0.0367,0.0599,0.1228,0.1257,-0.0166,-0.2757,-0.4245,-0.3279,-0.3113,-0.3658,-0.5144,-0.5361,-0.4852,-0.3388,-0.3226,-0.2613,-0.1136,-0.2075,-0.3498,-0.5383,-0.4294,-0.3653,-0.3691,-0.3699,-0.371,-0.3727,-0.2094,-0.0783,-0.0,-0.0,-0.0,-0.0,-0.0,-0.0,-0.0,-0.0,-0.0,-0.0,-0.0,-0.0,-0.0,-0.0,-0.0,-0.0,-0.0,-0.0,-0.0,-0.0,-0.0,-0.0,-0.0,-0.0,-0.0,-0.0,-0.0,-0.0,-0.0,0.2087,0.3689,0.0786,-0.0,-0.0,-0.0,-0.0,-0.0,-0.0,-0.0,-0.0,-0.0,-0.0,-0.0,-0.0,0.2017,0.3711,0.3984,0.4032,0.4144,0.4438,0.449,0.3973,0.251,0.335,0.4195,0.4475,0.4362,0.4174,0.4023,0.4063,0.4051,0.4021,0.4019,0.3971,0.3973,0.3973,0.3974,0.3976,0.3934,0.378,0.3568,0.3662,0.3756,-0.322,-0.2515,0.0,-0.2548,-0.2269,-0.1773,0.0,0.0,-0.0235,0.0051,-0.0951,-0.1832,-0.1796,-0.1727,-0.1713,-0.1949,-0.3561,-0.4827,-0.4664,-0.4664,-0.4774,-0.5088,-0.5293,-0.5327,-0.5098,-0.5088,-0.5035,-0.4779,-0.3487,-0.3594,-0.5664,-0.5615,-0.5605,-0.5946,-0.5912,-0.5909,-0.5951,-0.5747,-0.3694,-0.0,-0.0,-0.0,-0.0,-0.0,-0.0,-0.0,-0.0,-0.0,-0.0,-0.0,-0.0,-0.0,-0.0,-0.0,-0.0,-0.0,-0.0,-0.0,-0.0,-0.0,-0.0,-0.0,-0.0,-0.0,-0.0,-0.0,-0.0,-0.0,0.027,0.0539,0.0134,-0.0,-0.0,-0.0,-0.0,-0.0,-0.0,-0.0,-0.0,-0.0,-0.0,-0.0,-0.0,0.028,0.0952,0.2233,0.2454,0.2961,0.4324,0.4506,0.4101,0.3008,0.262,0.3011,0.4406,0.4503,0.4377,0.418,0.417,0.411,0.4024,0.4019,0.3974,0.3933,0.3933,0.3938,0.4001,0.4001,0.3332,0.2063,0.3343,0.3957,-0.3759,0.0,0.0,0.0,-0.3767,-0.3596,-0.3512,-0.3357,-0.3153,-0.2913,-0.3234,-0.3558,-0.3566,-0.354,-0.3604,0.0,-0.4375,-0.4895,-0.5003,-0.4953,-0.4953,-0.5097,-0.5171,-0.5212,-0.5212,-0.5204,-0.5281,-0.5379,-0.4769,-0.4766,-0.5682,-0.5846,-0.5995,-0.6125,-0.6218,-0.6297,-0.6285,-0.6302,-0.5433,-0.3615,-0.1177,-0.0,-0.0,-0.0,-0.0,-0.0,-0.0,-0.0,-0.0,-0.0,-0.0,-0.0,-0.0,-0.0,-0.0,-0.0,-0.0,-0.0,-0.0,-0.0,-0.0,-0.0,-0.0,-0.0,-0.0,-0.0,-0.0,-0.0,-0.0,-0.0,-0.0,-0.0,-0.0,-0.0,-0.0,-0.0,-0.0,-0.0,-0.0,-0.0,-0.0,-0.0,-0.0,-0.0,0.0224,0.0839,0.0893,0.1788,0.4171,0.4509,0.4327,0.3912,0.3687,0.3796,0.4462,0.4517,0.4438,0.4377,0.4373,0.4343,0.428,0.4277,0.4284,0.4239,0.4239,0.3809,0.2949,0.3879,0.3496,0.2087,0.339,0.4107,-0.4008,0.0,0.0,-0.4276,-0.4573,-0.4673,-0.4846,-0.4882,-0.4901,-0.4845,-0.467,-0.4523,-0.4484,-0.4504,-0.4535,-0.474,-0.4798,-0.4913,-0.5096,-0.5009,-0.4972,-0.5113,-0.5059,-0.504,-0.5123,-0.5169,-0.5243,-0.5365,-0.5508,-0.5611,-0.5731,-0.5896,-0.6049,-0.6091,-0.6205,-0.6269,-0.6278,-0.6295,-0.6312,-0.6249,-0.2042,-0.0,-0.0,-0.0,-0.0,-0.0,-0.0,-0.0,-0.0,-0.0,-0.0,-0.0,-0.0,-0.0,-0.0,-0.0,-0.0,-0.0,-0.0,-0.0,-0.0,-0.0,-0.0,-0.0,-0.0,-0.0,-0.0,-0.0,-0.0,-0.0,-0.0,-0.0,-0.0,-0.0,-0.0,-0.0,-0.0,-0.0,-0.0,-0.0,-0.0,-0.0,-0.0,-0.0,-0.0,-0.0,-0.0,0.1064,0.4126,0.4511,0.4492,0.448,0.4475,0.4525,0.4517,0.4517,0.4517,0.4517,0.4517,0.4519,0.4522,0.4522,0.4473,0.4489,0.449,0.3526,0.1619,0.2691,0.2691,0.162,0.247,0.3494,0.0,0.0,-0.446,-0.4709,-0.4862,-0.4899,-0.4901,-0.4904,-0.4867,-0.4728,-0.4694,-0.4646,-0.4497,-0.452,-0.4568,-0.4667,-0.4816,-0.4964,-0.5109,-0.5009,-0.4972,-0.5113,-0.4879,-0.4816,0.0,-0.5265,-0.5423,-0.5428,-0.5504,-0.565,-0.5788,-0.5944,-0.6098,-0.6249,-0.6269,-0.6278,-0.6278,-0.6312,-0.6329,-0.6249,-0.2042,-0.0,-0.0,-0.0,-0.0,-0.0,-0.0,-0.0,-0.0,-0.0,-0.0,-0.0,-0.0,-0.0,-0.0,-0.0,-0.0,-0.0,-0.0,-0.0,-0.0,-0.0,-0.0,-0.0,-0.0,-0.0,-0.0,-0.0,-0.0,-0.0,-0.0,-0.0,-0.0,-0.0,-0.0,-0.0,-0.0,-0.0,-0.0,-0.0,-0.0,-0.0,-0.0,-0.0,-0.0,-0.0,-0.0,0.1066,0.4127,0.4511,0.4492,0.448,0.4524,0.4517,0.4517,0.4517,0.4517,0.4517,0.4517,0.4522,0.4477,0.4479,0.449,0.4512,0.4512,0.3034,0.0056,0.0112,0.0112,0.0056,0.0112,0.1684,0.0,0.0,-0.4556,-0.4833,-0.487,-0.5064,-0.5717,-0.5776,-0.583,-0.6428,-0.6352,-0.6149,-0.6081,-0.5573,-0.5425,-0.6307,-0.5596,-0.5185,-0.6075,-0.5528,-0.5077,-0.5125,-0.5042,0.0,0.0,0.0,0.0,-0.542,-0.5589,-0.575,-0.58,-0.6044,-0.6207,-0.6337,-0.6273,-0.5642,-0.4222,-0.5593,-0.4888,-0.2121,-0.0707,-0.0,-0.0,-0.0,-0.0,-0.0,-0.0,-0.0,-0.0,-0.0,-0.0,-0.0,-0.0,-0.0,-0.0,-0.0,-0.0,-0.0,-0.0,-0.0,-0.0,-0.0,-0.0,-0.0,-0.0,-0.0,-0.0,-0.0,-0.0,-0.0,-0.0,-0.0,-0.0,-0.0,-0.0,-0.0,-0.0,-0.0,-0.0,-0.0,-0.0,-0.0,-0.0,-0.0,0.0673,0.2695,0.2977,0.2976,0.297,0.3866,0.448,0.4524,0.4519,0.4517,0.4517,0.4517,0.4517,0.4517,0.4524,0.4475,0.4479,0.3519,0.3471,0.4457,0.4514,0.3034,-0.0,-0.0,-0.0,-0.0,-0.0,0.0561,0.0,-0.5123,-0.5253,-0.5769,-0.5709,-0.578,-0.6772,-0.6775,-0.6707,-0.7311,-0.6859,-0.6425,-0.6626,-0.5902,-0.5632,-0.681,-0.6197,-0.5961,-0.6885,-0.6139,-0.559,-0.5647,-0.5403,0.0,0.0,0.0,0.0,-0.5425,-0.5633,-0.5801,-0.5801,-0.6093,-0.6338,-0.6338,-0.6273,-0.5246,-0.3124,-0.3766,-0.267,-0.0,-0.0,-0.0,-0.0,-0.0,-0.0,-0.0,-0.0,-0.0,-0.0,-0.0,-0.0,-0.0,-0.0,-0.0,-0.0,-0.0,-0.0,-0.0,-0.0,-0.0,-0.0,-0.0,-0.0,-0.0,-0.0,-0.0,-0.0,-0.0,-0.0,-0.0,-0.0,-0.0,-0.0,-0.0,-0.0,-0.0,-0.0,-0.0,-0.0,-0.0,-0.0,-0.0,-0.0,0.0897,0.2244,0.4228,0.4507,0.4154,0.3128,0.3913,0.4473,0.4519,0.4517,0.4517,0.4517,0.4517,0.4519,0.4522,0.4475,0.4482,0.4492,0.3528,0.297,0.292,0.2865,0.1963,-0.0,-0.0,-0.0,-0.0,-0.0,-0.0,-0.608,-0.6078,-0.652,-0.7454,-0.7222,-0.6976,-0.7815,-0.777,-0.7478,-0.7349,-0.6384,-0.5666,0.0,0.0,-0.5321,-0.633,-0.6706,-0.7072,-0.7503,-0.6892,-0.6466,0.0,0.0,0.0,0.0,0.0,0.0,-0.5461,0.0,-0.5805,-0.5811,-0.6098,-0.6338,-0.6338,-0.6273,-0.5325,-0.328,-0.1095,-0.0,-0.0,-0.0236,-0.0314,-0.0314,-0.0236,-0.0079,-0.0,-0.0,-0.0,-0.0,-0.0,-0.0,-0.0,-0.0,-0.0,-0.0,-0.0,-0.0,-0.0,-0.0,-0.0,-0.0,-0.0,-0.0,-0.0,-0.0,-0.0,-0.0,-0.0,-0.0,-0.0,-0.0,-0.0,-0.0,-0.0,-0.0,-0.0,-0.0,-0.0,-0.0,-0.0,-0.0,-0.0,-0.0,0.2525,0.4514,0.4514,0.4494,0.4479,0.4479,0.4479,0.4473,0.4519,0.4517,0.4517,0.4517,0.4517,0.4522,0.4479,0.448,0.4492,0.4512,0.4342,0.2922,0.0056,-0.0,-0.0,-0.0,-0.0,-0.0,-0.0,-0.0,-0.0,-0.7116,-0.7267,-0.7402,-0.7818,-0.7785,-0.7847,-0.8436,-0.7963,-0.7395,-0.758,-0.6737,-0.5964,0.0,0.0,0.0,-0.7209,-0.7287,0.0,-0.8321,-0.7382,0.0,0.0,0.0,-0.5588,-0.5732,-0.5747,0.0,0.0,-0.5759,-0.585,-0.5964,-0.6156,-0.6338,-0.6338,-0.6273,-0.6043,-0.5495,-0.1802,-0.0,-0.0,-0.3224,-0.4729,-0.4649,-0.3055,-0.1486,-0.0,-0.0,-0.0,-0.0,-0.0,-0.0,-0.0,-0.0,-0.0,-0.0,-0.0,-0.0,-0.0,-0.0,-0.0,-0.0,-0.0,-0.0,-0.0,-0.0,-0.0,-0.0,-0.0,-0.0,-0.0,-0.0,-0.0,-0.0,-0.0,-0.0,-0.0,-0.0,-0.0,-0.0,-0.0,-0.0,-0.0,-0.0,0.2525,0.4511,0.4502,0.4489,0.4479,0.4479,0.4472,0.452,0.4517,0.4517,0.4517,0.4517,0.4525,0.4475,0.4479,0.4496,0.4507,0.4514,0.2356,0.0785,-0.0,-0.0,-0.0,-0.0,-0.0,-0.0,-0.0,-0.0,-0.0,-0.8226,-0.8324,-0.8502,-0.9026,-0.8717,-0.8507,-0.9062,-0.844,-0.7712,-0.7569,-0.6575,0.0,0.0,0.0,0.0,0.0,0.0,0.0,-0.9066,-0.798,-0.712,0.0,-0.635,0.0,-0.5794,-0.5862,-0.593,0.0,-0.594,-0.5939,-0.6023,-0.6178,-0.6338,-0.6338,-0.6268,-0.5876,-0.4937,-0.1646,-0.0943,-0.283,-0.5129,-0.6324,-0.6235,-0.5022,-0.3835,-0.2662,0.0,-0.0,-0.0,-0.0,-0.0,-0.0,-0.0,-0.0,-0.0,-0.0,-0.0,-0.0,-0.0,-0.0,-0.0,-0.0,-0.0,-0.0,-0.0,-0.0,-0.0,-0.0,-0.0,-0.0,-0.0,-0.0,-0.0,-0.0,-0.0,-0.0,-0.0,-0.0,-0.0,-0.0,-0.0,-0.0,-0.0,0.14,0.2971,0.4325,0.4485,0.4477,0.4472,0.452,0.4517,0.4517,0.4517,0.4519,0.4524,0.4475,0.4484,0.4494,0.4507,0.3885,0.2582,0.0897,-0.0,-0.0,-0.0,-0.0,-0.0,-0.0,-0.0,-0.0,-0.0,-0.0,-0.9275,-0.9346,-0.9658,-1.0431,-0.9877,-0.9205,-0.9631,-0.9025,-0.8131,-0.7289,0.0,0.0,-0.5439,0.0,-0.5887,-0.7134,0.0,-0.89,-0.9603,-0.8342,-0.7533,-0.7977,-0.6729,-0.581,-0.5828,-0.5969,-0.6117,-0.6251,-0.6137,-0.6059,-0.6059,-0.6188,-0.6338,-0.6338,-0.6263,-0.5316,-0.3279,-0.1331,-0.2276,-0.5843,-0.6162,-0.6312,-0.6293,-0.6291,-0.6291,-0.6132,-0.2426,-0.0548,-0.0,-0.0,-0.0,-0.0,-0.0,-0.0,-0.0,-0.0,-0.0,-0.0,-0.0,-0.0,-0.0,-0.0,-0.0,-0.0,-0.0,-0.0,-0.0,-0.0,-0.0,-0.0,-0.0,-0.0,-0.0,-0.0,-0.0,-0.0,-0.0,-0.0,-0.0,-0.0,-0.0,-0.0,-0.0,-0.0,0.0949,0.3756,0.4371,0.4475,0.4519,0.4517,0.4517,0.4517,0.4517,0.4522,0.4477,0.4309,0.4263,0.4511,0.4113,0.2751,0.0112,-0.0,-0.0,-0.0,-0.0,-0.0,-0.0,-0.0,-0.0,-0.0,-0.0,-0.0,-1.021,-1.0325,-1.0431,-1.0558,-1.0623,-1.0589,-1.0149,-0.9155,0.0,0.0,0.0,-0.395,-0.363,-0.4551,0.0,-0.6453,0.0,0.0,0.0,0.0,-0.6955,0.0,0.0,0.0,0.0,0.0,0.0,0.0,0.0,-0.622,-0.622,-0.6247,-0.6338,-0.6338,-0.6269,-0.5558,-0.4058,-0.3046,-0.2892,-0.3677,-0.5491,-0.6285,-0.6281,-0.6271,-0.6271,-0.6279,-0.5495,0.0,-0.0,-0.0,-0.0,-0.0,-0.0,-0.0,-0.0,-0.0,-0.0,-0.0,-0.0,-0.0,-0.0,-0.0,-0.0,-0.0,-0.0,-0.0,-0.0,-0.0,-0.0,-0.0,-0.0,-0.0,-0.0,-0.0,-0.0,-0.0,-0.0,-0.0,-0.0,-0.0,-0.0,-0.0,-0.0,-0.0,0.0614,0.2344,0.3688,0.4475,0.4519,0.4517,0.4517,0.4517,0.4517,0.4522,0.4477,0.335,0.3134,0.4399,0.2188,0.056,-0.0,-0.0,-0.0,-0.0,-0.0,-0.0,-0.0,-0.0,-0.0,-0.0,-0.0,-0.0,-1.021,-1.0441,-1.0647,-1.0846,-1.0629,-1.0211,-0.9618,0.0,0.0,0.0,0.0,-0.3582,-0.3665,0.0,0.0,0.0,0.0,0.0,0.0,0.0,0.0,0.0,0.0,0.0,0.0,0.0,0.0,0.0,0.0,-0.6338,-0.6338,-0.6338,-0.6338,-0.6338,-0.6273,-0.5957,-0.5321,-0.4933,-0.4776,-0.4772,-0.5802,-0.6274,-0.6269,-0.6269,-0.6269,-0.6271,-0.63,-0.4554,-0.1563,-0.0471,-0.0,-0.0,-0.0,-0.0,-0.0,-0.0,-0.0,-0.0,-0.0,-0.0,-0.0,-0.0,-0.0,-0.0,-0.0,-0.0,-0.0,-0.0,-0.0,-0.0,-0.0,-0.0,-0.0,-0.0,-0.0,-0.0,-0.0,-0.0,-0.0,-0.0,-0.0,-0.0,-0.0,-0.0,0.0503,0.1953,0.3523,0.4482,0.4519,0.4517,0.4517,0.4517,0.4517,0.4524,0.4485,0.3072,0.2178,0.2188,0.0785,-0.0,-0.0,-0.0,-0.0,-0.0,-0.0,-0.0,-0.0,-0.0,-0.0,-0.0,-0.0,-0.0,-1.002,-1.0287,-1.0588,-1.099,-1.0635,-0.997,-0.9226,-0.8026,0.0,0.0,0.0,-0.3429,-0.3842,0.0,0.0,0.0,0.0,0.0,0.0,0.0,0.0,0.0,0.0,0.0,0.0,0.0,0.0,0.0,0.0,0.0,-0.6338,-0.6338,-0.6338,-0.6338,-0.6269,-0.6274,-0.6274,-0.6283,-0.6283,-0.6274,-0.6274,-0.6269,-0.6338,-0.6269,-0.6269,-0.6263,-0.6302,-0.5188,-0.3201,-0.1409,-0.0627,-0.0627,-0.0627,-0.0392,-0.0,-0.0,-0.0,-0.0,-0.0,-0.0,-0.0,-0.0,-0.0,-0.0,-0.0,-0.0,-0.0,-0.0,-0.0,-0.0,-0.0,-0.0,-0.0,-0.0,-0.0,-0.0,-0.0,-0.0,-0.0,-0.0,-0.0,-0.0,-0.0,-0.0,0.0504,0.1953,0.3527,0.4489,0.452,0.4517,0.4517,0.4517,0.4517,0.4525,0.4496,0.3074,0.1563,0.0112,-0.0,-0.0,-0.0,-0.0,-0.0,-0.0,-0.0,-0.0,-0.0,-0.0,-0.0,-0.0,-0.0,-0.0,-0.9963,-1.0134,-1.0326,-1.0932,-1.131,-1.1194,-0.9925,0.0,0.0,0.0,-0.4004,-0.3245,-0.3048,0.0,0.0,0.0,0.0,0.0,0.0,0.0,0.0,0.0,0.0,0.0,0.0,0.0,0.0,0.0,0.0,0.0,-0.6338,-0.6338,-0.6338,-0.6338,-0.6263,-0.6263,-0.6263,-0.6264,-0.6264,-0.6263,-0.6263,-0.6263,-0.6338,-0.6263,-0.6263,-0.6338,-0.6276,-0.5482,0.0,-0.3201,-0.2812,-0.2812,-0.2812,-0.1641,-0.0,-0.0,-0.0,-0.0,-0.0,-0.0,-0.0,-0.0,-0.0,-0.0,-0.0,-0.0,-0.0,-0.0,-0.0,-0.0,-0.0,-0.0,-0.0,-0.0,-0.0,-0.0,-0.0,-0.0,-0.0,-0.0,-0.0,-0.0,-0.0,-0.0,0.0504,0.1953,0.3527,0.4489,0.452,0.4517,0.4517,0.4517,0.4517,0.4525,0.4496,0.3074,0.1563,0.0112,-0.0,-0.0,-0.0,-0.0,-0.0,-0.0,-0.0,-0.0,-0.0,-0.0,-0.0,-0.0,-0.0,-0.0,-0.9422,-0.9719,-1.0096,-1.1019,-1.0818,-1.0265,-0.9514,0.0,0.0,-0.4952,-0.3699,-0.3027,-0.3326,-0.3463,0.0,0.0,0.0,0.0,0.0,0.0,0.0,0.0,0.0,0.0,0.0,0.0,0.0,0.0,0.0,0.0,-0.6338,-0.6338,-0.6338,-0.6338,-0.6338,-0.6338,-0.6338,-0.6338,-0.6338,-0.6338,-0.6338,-0.6338,-0.6338,-0.6268,-0.6268,-0.6263,-0.6279,-0.5965,0.0,-0.5171,-0.5018,-0.5018,-0.5018,-0.4545,-0.3603,-0.2345,-0.1876,-0.1721,-0.047,-0.0,-0.0,-0.0,-0.0,-0.0,-0.0,-0.0,-0.0,-0.0,-0.0,-0.0,-0.0,-0.0,-0.0,-0.0,-0.0,-0.0,-0.0,-0.0,-0.0,-0.0,-0.0,-0.0,-0.0,-0.0,0.0504,0.1953,0.3527,0.4489,0.452,0.4517,0.4517,0.4517,0.4517,0.4525,0.4496,0.3074,0.1563,0.0112,-0.0,-0.0,-0.0,-0.0,-0.0,-0.0,-0.0,-0.0,-0.0,-0.0,-0.0,-0.0,-0.0,-0.0,-0.9008,-0.9325,-0.9776,-1.0736,-1.0321,-0.947,0.0,0.0,-0.608,-0.4404,-0.3352,-0.2818,-0.3229,-0.3272,-0.338,0.0,0.0,0.0,0.0,0.0,0.0,0.0,0.0,0.0,0.0,0.0,0.0,0.0,0.0,0.0,-0.6338,-0.6338,-0.6338,-0.6338,-0.6338,-0.6338,-0.6338,-0.6338,-0.6338,-0.6338,-0.6338,-0.6338,-0.6338,-0.6269,-0.6268,-0.6263,-0.6278,-0.6279,0.0,-0.6281,-0.6285,-0.6285,-0.6285,-0.6286,-0.6129,-0.4617,-0.4065,-0.3832,-0.2347,-0.1486,-0.0938,-0.0855,-0.046,-0.0,-0.0,-0.0,-0.0,-0.0,-0.0,-0.0,-0.0,-0.0,-0.0,-0.0,-0.0,-0.0,-0.0,-0.0,-0.0,-0.0,-0.0,-0.0,-0.0,0.0729,0.1511,0.212,0.3524,0.4484,0.4519,0.4517,0.4517,0.4517,0.452,0.4475,0.4496,0.3074,0.1563,0.0112,-0.0,-0.0,-0.0,-0.0,-0.0,-0.0,-0.0,-0.0,-0.0,-0.0,-0.0,-0.0,-0.0,-0.0,-0.8654,-0.9025,-0.9404,-1.0151,-1.006,-0.9359,0.0,-0.7052,-0.6041,-0.3786,-0.2991,-0.2636,-0.2444,-0.301,-0.3455,-0.3328,0.0,0.0,0.0,0.0,0.0,0.0,0.0,0.0,0.0,0.0,0.0,0.0,0.0,0.0,-0.6338,-0.6338,-0.6338,-0.6338,-0.6338,-0.6338,-0.6338,-0.6338,-0.6338,-0.6338,-0.6338,-0.6338,-0.6338,-0.6338,-0.6338,-0.6338,-0.6338,-0.6338,0.0,-0.6338,-0.6338,-0.6338,-0.6338,-0.6268,-0.6278,-0.6278,-0.6285,-0.6295,-0.6215,-0.4858,-0.3034,-0.2737,-0.1433,-0.0,-0.0,-0.0,-0.0,-0.0,-0.0,-0.0,-0.0,-0.0,-0.0,-0.0,-0.0,-0.0,-0.0,-0.0,-0.0,-0.0,-0.0,-0.0,-0.0,0.2469,0.3937,0.24,0.3519,0.4475,0.4519,0.4517,0.4517,0.4517,0.4472,0.4484,0.4496,0.3074,0.1563,0.0112,-0.0,-0.0,-0.0,-0.0,-0.0,-0.0,-0.0,-0.0,-0.0,-0.0,-0.0,-0.0,-0.0,-0.0,-0.6656,-0.6862,-0.7144,-0.7959,-0.7776,-0.7226,-0.6526,-0.5795,-0.4873,-0.3449,-0.274,-0.2364,-0.2394,-0.2511,-0.2819,-0.3399,-0.4,0.0,0.0,0.0,0.0,0.0,0.0,0.0,0.0,0.0,0.0,0.0,0.0,0.0,-0.6338,-0.6161,-0.6103,-0.6103,-0.6103,-0.6054,-0.5947,-0.5945,-0.5945,-0.5947,-0.6054,-0.6103,-0.6107,-0.6213,-0.6338,-0.6338,-0.6338,-0.6338,-0.6338,-0.6338,-0.6338,-0.6338,-0.6338,-0.6263,-0.6266,-0.6266,-0.6269,-0.6257,-0.6159,-0.5657,-0.5021,-0.4909,-0.43,-0.3432,-0.2245,-0.0979,-0.0,-0.0,-0.0,-0.0,-0.0,-0.0,-0.0,-0.0,-0.0,-0.0,-0.0,-0.0,-0.0,-0.0,-0.0,0.0649,0.2716,0.3884,0.4335,0.386,0.4195,0.4475,0.4519,0.4517,0.4517,0.4517,0.452,0.4475,0.4496,0.4045,0.2692,0.0168,-0.0,-0.0,-0.0,-0.0,-0.0,-0.0,-0.0,-0.0,-0.0,-0.0,-0.0,-0.0,-0.0,-0.0,0.0,-0.56,-0.579,-0.636,-0.6108,-0.5647,-0.5209,-0.4618,-0.3953,-0.3183,-0.2694,-0.2408,-0.2488,-0.2717,-0.2976,-0.3297,-0.3834,0.0,0.0,0.0,0.0,0.0,0.0,0.0,0.0,0.0,0.0,0.0,0.0,0.0,-0.6088,-0.5995,-0.5918,-0.5866,-0.5915,-0.5898,-0.5803,-0.5801,-0.5801,-0.5803,-0.5898,-0.5973,-0.6034,-0.6129,-0.6205,-0.6338,-0.6338,-0.6338,0.0,-0.6338,-0.6338,-0.6338,-0.6338,-0.6225,-0.6181,-0.6239,-0.6186,-0.6083,-0.6051,-0.6003,-0.5932,-0.5796,-0.558,-0.5181,-0.4068,-0.1997,-0.0,-0.0,-0.0,-0.0,-0.0,-0.0,-0.0,-0.0,-0.0,-0.0,-0.0,-0.0,-0.0,-0.0,-0.0,0.0946,0.3974,0.4511,0.4502,0.4482,0.4475,0.4525,0.4519,0.4517,0.4517,0.4517,0.452,0.4475,0.4496,0.3988,0.2578,0.0168,-0.0,-0.0,-0.0,-0.0,-0.0,-0.0,-0.0,-0.0,-0.0,-0.0,-0.0,-0.0,-0.0,-0.0,0.0,-0.4849,-0.5083,-0.5105,-0.489,-0.4523,-0.3839,-0.3545,0.0,-0.2892,-0.2734,-0.2647,-0.2673,-0.3358,-0.3709,-0.3049,-0.4025,0.0,0.0,0.0,0.0,0.0,0.0,0.0,0.0,0.0,0.0,0.0,0.0,0.0,-0.5801,-0.5793,-0.5725,-0.5593,-0.5706,-0.5769,-0.5769,-0.5769,-0.5769,-0.5769,-0.5779,-0.5861,-0.5998,-0.6008,-0.6091,0.0,-0.6229,-0.6229,-0.6229,-0.6229,-0.6229,-0.6229,-0.6229,-0.614,-0.6032,-0.6176,-0.6047,-0.582,-0.5952,-0.5905,-0.5762,-0.562,-0.5484,-0.5382,-0.5404,-0.2888,-0.0,-0.0,-0.0,-0.0,-0.0,-0.0,-0.0,-0.0,-0.0,-0.0,-0.0,-0.0,-0.0,-0.0,-0.0,0.0905,0.3812,0.4445,0.4494,0.4479,0.4524,0.4517,0.4517,0.4517,0.4517,0.4517,0.4472,0.4484,0.4496,0.3018,0.1452,0.0112,-0.0,-0.0,-0.0,-0.0,-0.0,-0.0,-0.0,-0.0,-0.0,-0.0,-0.0,-0.0,-0.0,-0.0,-0.1696,0.0,-0.2889,-0.3049,-0.3046,-0.292,0.0,-0.2447,-0.2288,0.0,0.0,0.0,0.0,-0.2799,-0.3088,0.0,0.0,0.0,0.0,0.0,0.0,0.0,0.0,0.0,0.0,0.0,0.0,0.0,0.0,-0.5801,-0.5801,-0.57,-0.5625,-0.5591,-0.551,-0.5465,-0.5465,-0.5465,-0.5465,-0.5467,-0.5583,-0.5659,-0.5698,-0.5805,-0.5876,-0.591,-0.591,-0.591,-0.591,-0.591,-0.591,-0.591,-0.591,-0.5888,-0.5859,-0.5896,-0.5862,-0.5791,-0.5718,-0.5669,-0.5615,-0.5464,-0.5393,-0.5371,-0.5393,-0.2884,-0.0,-0.0,-0.0,-0.0,-0.0,-0.0,-0.0,-0.0,-0.0,-0.0,-0.0,-0.0,-0.0,-0.0,-0.0,0.0588,0.2421,0.3699,0.449,0.4524,0.4519,0.4517,0.4517,0.4517,0.4517,0.4517,0.4472,0.4484,0.4496,0.2067,0.0391,-0.0,-0.0,-0.0,-0.0,-0.0,-0.0,-0.0,-0.0,-0.0,-0.0,-0.0,-0.0,-0.0,-0.0,-0.0,-0.1231,-0.1627,-0.2031,-0.2326,-0.2354,-0.2298,-0.2206,0.0,0.0,0.0,0.0,0.0,0.0,0.0,0.0,0.0,0.0,0.0,0.0,0.0,0.0,0.0,0.0,0.0,0.0,0.0,0.0,0.0,0.0,-0.5599,-0.5599,-0.5527,-0.5484,-0.5484,-0.5406,-0.5428,-0.5428,-0.5428,-0.5428,-0.543,-0.5445,-0.5521,-0.5591,-0.5669,-0.574,-0.5801,-0.5801,-0.5801,-0.5801,-0.5801,-0.5801,-0.5801,-0.5801,-0.5761,-0.5711,-0.5776,-0.5715,-0.5599,-0.5591,-0.5544,-0.5472,-0.5454,-0.5428,-0.5432,-0.5382,-0.362,-0.1405,-0.0336,-0.0,-0.0,-0.0,-0.0,-0.0,-0.0,-0.0,-0.0,-0.0,-0.0,-0.0,-0.0,-0.0,0.0237,0.1069,0.3025,0.4497,0.4473,0.4525,0.4522,0.4517,0.4517,0.4519,0.4524,0.4475,0.4485,0.4504,0.3027,0.1456,0.0112,-0.0,-0.0,-0.0,-0.0,-0.0,-0.0,-0.0,-0.0,-0.0,-0.0,-0.0,-0.0,-0.0,-0.0,-0.1644,-0.1897,-0.2058,-0.2419,-0.2408,-0.235,-0.2377,0.0,0.0,0.0,0.0,0.0,0.0,0.0,0.0,0.0,0.0,0.0,0.0,0.0,0.0,0.0,0.0,0.0,0.0,0.0,0.0,0.0,0.0,-0.5428,-0.5428,-0.5428,-0.5428,-0.5428,-0.5557,-0.5622,-0.5622,-0.5622,-0.5622,-0.5622,-0.5754,-0.576,-0.5756,-0.5756,-0.5755,-0.5735,0.0,0.0,-0.5735,-0.5735,-0.5735,-0.5735,-0.5735,-0.5661,-0.5569,-0.5691,-0.5576,-0.5447,-0.5511,-0.5471,-0.5428,-0.5428,-0.5428,-0.543,-0.5376,-0.4693,-0.3479,-0.1411,-0.0604,-0.0335,-0.0067,-0.0,-0.0,-0.0,-0.0,-0.0,-0.0,-0.0,-0.0,-0.0,-0.0,-0.0,-0.0,0.2127,0.3877,0.4141,0.4368,0.4477,0.452,0.452,0.4525,0.4479,0.4482,0.4494,0.4512,0.4516,0.3205,0.0168,-0.0,-0.0,-0.0,-0.0,-0.0,-0.0,-0.0,-0.0,-0.0,-0.0,-0.0,-0.0,-0.0,-0.0,-0.1624,-0.2296,-0.2841,-0.2898,-0.2934,-0.3035,0.0,0.0,0.0,0.0,0.0,0.0,0.0,0.0,0.0,0.0,0.0,0.0,0.0,0.0,0.0,0.0,0.0,0.0,0.0,0.0,0.0,0.0,0.0,-0.5428,-0.5428,-0.5428,-0.5428,-0.5428,-0.6139,-0.6525,-0.6525,-0.6525,-0.6525,-0.6525,-0.7244,-0.7197,-0.6502,-0.6502,-0.6127,-0.5428,0.0,-0.5428,-0.5428,-0.5428,-0.5428,-0.5428,-0.5428,-0.5416,-0.5464,-0.5421,-0.5466,-0.5432,-0.5454,-0.5447,-0.5428,-0.5428,-0.5428,-0.543,-0.5376,-0.5301,-0.5028,-0.4643,-0.349,-0.1941,-0.0402,-0.0,-0.0,-0.0,-0.0,-0.0,-0.0,-0.0,-0.0,-0.0,-0.0,-0.0,-0.0,0.0391,0.1116,0.2343,0.3638,0.449,0.4477,0.4484,0.4489,0.4479,0.4497,0.4511,0.4514,0.4523,0.3211,0.0168,-0.0,-0.0,-0.0,-0.0,-0.0,-0.0,-0.0,-0.0,-0.0,-0.0,-0.0,-0.0,-0.0,-0.0,-0.1714,-0.2216,-0.2804,-0.3407,-0.3563,-0.375,0.0,0.0,0.0,0.0,0.0,0.0,0.0,0.0,0.0,0.0,0.0,0.0,0.0,0.0,0.0,0.0,0.0,0.0,0.0,0.0,0.0,0.0,0.0,0.0,-0.6073,-0.6073,-0.6334,-0.6795,-0.7179,-0.7372,-0.7372,-0.7894,-0.7894,-0.7437,-0.7829,-0.757,-0.6719,-0.6719,-0.6203,-0.5428,0.0,-0.5428,-0.5428,-0.5428,-0.5428,-0.5428,-0.5428,-0.5428,-0.5428,-0.5428,-0.5428,-0.5428,-0.5428,-0.5428,-0.5428,-0.5428,-0.5428,-0.543,-0.5369,-0.5432,-0.543,-0.5374,-0.4834,-0.3956,-0.3152,-0.1473,-0.0,-0.0,-0.0,-0.0,-0.0,-0.0,-0.0,-0.0,-0.0,-0.0,-0.0,-0.0,0.0224,0.0893,0.1619,0.2346,0.3182,0.3979,0.4497,0.4499,0.4507,0.3828,0.2188,0.2077,0.1459,0.0112,-0.0,-0.0,-0.0,-0.0,-0.0,-0.0,-0.0,-0.0,-0.0,-0.0,-0.0,-0.0,-0.0,-0.0,-0.1881,-0.2169,-0.2729,-0.3747,0.0,0.0,0.0,0.0,0.0,0.0,0.0,0.0,0.0,0.0,0.0,0.0,0.0,0.0,0.0,0.0,0.0,0.0,0.0,0.0,0.0,0.0,0.0,0.0,0.0,0.0,-0.6981,-0.6981,-0.7307,-0.7959,-0.8221,-0.8288,-0.8288,-0.9201,-0.9137,-0.8288,-0.8482,-0.8153,-0.7307,-0.7111,-0.6529,-0.5686,-0.5491,-0.5428,-0.5428,-0.5428,-0.5428,-0.5428,-0.5428,-0.5428,-0.5428,-0.5428,-0.5428,-0.5428,-0.5428,-0.5428,-0.5428,-0.5428,-0.5428,-0.5428,-0.5428,-0.5428,-0.5428,-0.5428,-0.5369,-0.5377,-0.5389,-0.3354,-0.1071,-0.0201,-0.0,-0.0,-0.0,-0.0,-0.0,-0.0,-0.0,-0.0,-0.0,-0.0,-0.0,-0.0,-0.0,0.0391,0.1561,0.3306,0.4507,0.4514,0.3884,0.2525,0.0224,-0.0,-0.0,-0.0,-0.0,-0.0,-0.0,-0.0,-0.0,-0.0,-0.0,-0.0,-0.0,-0.0,-0.0,-0.0,-0.0,-0.0,-0.2104,-0.2406,-0.2886,-0.3763,0.0,0.0,-0.6124,0.0,0.0,0.0,0.0,0.0,0.0,0.0,0.0,0.0,0.0,0.0,0.0,0.0,0.0,0.0,0.0,0.0,0.0,0.0,0.0,0.0,0.0,-0.7829,-0.7894,-0.7894,-0.7959,-0.8027,-0.8812,-0.9207,-0.9207,-1.0044,-1.0044,-0.9207,-1.0044,-0.9977,-0.9075,-0.8288,-0.7437,-0.659,-0.5751,-0.5428,-0.5428,-0.5428,-0.5428,-0.5428,-0.5428,-0.5428,-0.5428,-0.5428,-0.5428,-0.5428,-0.5428,-0.5428,-0.5428,-0.5428,-0.5428,-0.5428,-0.5428,-0.5428,-0.5428,-0.5428,-0.5428,-0.5432,-0.5377,-0.5183,-0.4167,-0.0804,-0.0,-0.0,-0.0,-0.0,-0.0,-0.0,-0.0,-0.0,-0.0,-0.0,-0.0,-0.0,-0.0,0.0056,0.0168,0.2696,0.4524,0.4516,0.202,0.0224,-0.0,-0.0,-0.0,-0.0,-0.0,-0.0,-0.0,-0.0,-0.0,-0.0,-0.0,-0.0,-0.0,-0.0,-0.0,-0.0,-0.0,-0.0,-0.1969,-0.2444,-0.3164,-0.4022,0.0,0.0,0.0,0.0,0.0,0.0,0.0,0.0,0.0,0.0,0.0,0.0,0.0,0.0,0.0,0.0,0.0,0.0,0.0,0.0,0.0,0.0,0.0,0.0,0.0,-0.7879,-0.8224,-0.8421,-0.8757,-0.9267,-0.9822,-1.0107,-1.0107,-1.0431,-1.0431,-1.0107,-1.0431,-1.0107,-0.9274,-0.842,-0.7502,-0.6654,-0.5751,-0.5428,-0.5428,-0.5428,-0.5428,-0.5428,-0.5428,-0.5428,-0.5428,-0.5428,-0.5428,-0.5428,-0.5428,-0.5428,-0.5428,-0.5428,-0.5428,-0.5428,-0.5428,-0.5428,-0.5428,-0.5428,-0.5428,-0.543,-0.5434,-0.5382,-0.4779,-0.2276,-0.0806,-0.0,-0.0,-0.0,-0.0,-0.0,-0.0,-0.0,-0.0,-0.0,-0.0,-0.0,-0.0,-0.0,-0.0,0.1009,0.1684,0.1682,0.0673,-0.0,-0.0,-0.0,-0.0,-0.0,-0.0,-0.0,-0.0,-0.0,-0.0,-0.0,-0.0,-0.0,-0.0,-0.0,-0.0,-0.0,-0.0,-0.0,-0.2067,-0.2586,0.0,0.0,0.0,0.0,0.0,0.0,0.0,0.0,0.0,0.0,0.0,0.0,0.0,0.0,0.0,0.0,0.0,0.0,0.0,0.0,0.0,0.0,0.0,0.0,0.0,0.0,-0.8105,-0.8368,-0.8786,-0.901,-0.9354,-0.998,-1.018,-1.0389,-1.0421,-1.0421,-1.053,-1.0624,-1.0624,-1.0304,-0.9658,-0.8809,-0.7962,-0.7046,-0.6207,-0.5686,-0.5428,-0.5428,-0.5428,-0.5428,-0.5428,-0.5428,-0.5428,-0.5428,-0.5428,-0.5428,-0.5428,-0.5428,-0.5428,-0.5428,-0.5428,-0.5428,-0.5428,-0.5428,-0.5428,-0.5428,-0.5428,-0.5428,-0.5428,-0.5379,-0.4916,-0.3149,-0.1333,-0.0,-0.0,-0.0,-0.0,-0.0,-0.0,-0.0,-0.0,-0.0,-0.0,-0.0,-0.0,-0.0,-0.0,-0.0,-0.0,-0.0,-0.0,-0.0,-0.0,-0.0,-0.0,-0.0,-0.0,-0.0,-0.0,-0.0,-0.0,-0.0,-0.0,-0.0,-0.0,-0.0,-0.0,-0.0,-0.0,-0.0,-0.247,0.0,0.0,0.0,0.0,0.0,0.0,0.0,0.0,0.0,0.0,0.0,0.0,0.0,0.0,0.0,0.0,0.0,0.0,0.0,0.0,0.0,0.0,0.0,0.0,0.0,0.0,-0.9676,-0.9676,-0.9679,-0.9676,-0.9676,-0.9679,-0.9679,-0.9683,-0.982,-1.0107,-1.0114,-1.0261,-1.0614,-1.0614,-1.0618,-1.0561,-0.9722,-0.8812,-0.7959,-0.7109,-0.6203,-0.5428,-0.5428,-0.5428,-0.5428,-0.5428,-0.5428,-0.5428,-0.5428,-0.5428,-0.5428,-0.5428,-0.5428,-0.5428,-0.5428,-0.5428,-0.5428,-0.5428,-0.5428,-0.5428,-0.5428,-0.5428,-0.5428,-0.5428,-0.5379,-0.4916,-0.3149,-0.1314,-0.0,-0.0,-0.0,-0.0,-0.0,-0.0,-0.0,-0.0,-0.0,-0.0,-0.0,-0.0,-0.0,-0.0,-0.0,-0.0,-0.0,-0.0,-0.0,-0.0,-0.0,-0.0,-0.0,-0.0,-0.0,-0.0,-0.0,-0.0,-0.0,-0.0,-0.0,-0.0,-0.0,-0.0,-0.0,-0.0,-0.0,-0.267,0.0,0.0,0.0,0.0,0.0,0.0,0.0,0.0,0.0,0.0,0.0,0.0,0.0,0.0,0.0,0.0,0.0,0.0,0.0,0.0,0.0,0.0,0.0,0.0,0.0,-0.9285,-0.9082,-0.9259,-0.9282,-0.9078,-0.9262,-0.9372,-0.9372,-0.9573,-0.9723,-0.981,-0.9813,-0.9856,-0.9943,-0.9943,-1.0221,-1.0561,-0.9722,-0.8812,-0.7959,-0.7109,-0.6203,-0.5428,-0.5428,-0.5428,-0.5428,-0.5428,-0.5428,-0.5428,-0.5428,-0.5428,-0.5428,-0.5428,-0.5428,-0.5428,-0.5428,-0.5428,-0.5428,-0.5428,-0.5428,-0.5428,-0.5428,-0.5428,-0.5428,-0.5428,-0.5379,-0.4916,-0.3149,-0.1312,-0.0,-0.0,-0.0,-0.0,-0.0,-0.0,-0.0,-0.0,-0.0,-0.0,-0.0,-0.0,-0.0,-0.0,-0.0,-0.0,-0.0,-0.0,-0.0,-0.0,-0.0,-0.0,-0.0,-0.0,-0.0,-0.0,-0.0,-0.0,-0.0,-0.0,-0.0,-0.0,-0.0,-0.0,-0.0,-0.0,-0.0,0.0,0.0,0.0,0.0,0.0,0.0,0.0,0.0,0.0,0.0,0.0,0.0,0.0,0.0,0.0,0.0,0.0,0.0,0.0,0.0,0.0,0.0,0.0,0.0,0.0,-0.8965,-0.8995,-0.8821,-0.8968,-0.8991,-0.8818,-0.8971,-0.9068,-0.9068,-0.9242,-0.9392,-0.9506,-0.9506,-0.9566,-0.9683,-0.9683,-0.987,-1.0214,-0.9824,-0.9038,-0.7962,-0.6726,-0.5881,-0.5428,-0.5428,-0.5428,-0.5428,-0.5428,-0.5428,-0.5428,-0.5428,-0.5428,-0.5428,-0.5428,-0.5428,-0.5428,-0.5428,-0.5428,-0.5428,-0.5428,-0.5428,-0.5428,-0.5428,-0.5428,-0.5428,-0.5428,-0.5376,-0.5116,-0.4028,-0.1822,-0.0,-0.0,-0.0,-0.0,-0.0,-0.0,-0.0,-0.0,-0.0,-0.0,-0.0,-0.0,-0.0,-0.0,-0.0,-0.0,-0.0,-0.0,-0.0,-0.0,-0.0,-0.0,-0.0,-0.0,-0.0,-0.0,-0.0,-0.0,-0.0,-0.0,-0.0,-0.0,-0.0,-0.0,-0.0,-0.0,-0.0,0.0,0.0,0.0,0.0,0.0,0.0,0.0,0.0,0.0,0.0,0.0,0.0,0.0,0.0,0.0,0.0,0.0,0.0,0.0,0.0,0.0,0.0,0.0,0.0,0.0,-0.8808,-0.8808,-0.8808,-0.8808,-0.8808,-0.8808,-0.8808,-0.8808,-0.8808,-0.8808,-0.8935,-0.914,-0.9143,-0.9335,-0.9603,-0.9603,-0.9619,-0.9653,-0.9943,-0.9278,-0.7837,-0.6113,-0.534,-0.5342,-0.5423,-0.5428,-0.5428,-0.5428,-0.5428,-0.5428,-0.5428,-0.5428,-0.5428,-0.5428,-0.5428,-0.5428,-0.5428,-0.5428,-0.5428,-0.5428,-0.5428,-0.5428,-0.5428,-0.5428,-0.5428,-0.543,-0.5372,-0.5381,-0.5379,-0.2893,-0.0432,-0.0062,-0.0,-0.0,-0.0,-0.0,-0.0,-0.0,-0.0,-0.0,-0.0,-0.0,-0.0,-0.0,-0.0,-0.0,-0.0,-0.0,-0.0,-0.0,-0.0,-0.0,-0.0,-0.0,-0.0,-0.0,-0.0,-0.0,-0.0,-0.0,-0.0,-0.0,-0.0,-0.0,-0.0,-0.0,-0.0,0.0,0.0,0.0,0.0,0.0,0.0,0.0,0.0,0.0,0.0,0.0,0.0,0.0,0.0,0.0,0.0,0.0,0.0,0.0,0.0,0.0,0.0,0.0,0.0,-0.8808,-0.8808,-0.8808,-0.8808,-0.8808,-0.8808,-0.8808,-0.8808,-0.8808,-0.8808,-0.8808,-0.8838,-0.8901,-0.8901,-0.8931,-0.8998,-0.8998,-0.9115,-0.9289,-0.9643,-0.8961,-0.7383,-0.5815,-0.5181,-0.5189,-0.5311,-0.5428,-0.5428,-0.5428,-0.5428,-0.5428,-0.5428,-0.5428,-0.5428,-0.5428,-0.5428,-0.5428,-0.5428,-0.5428,-0.5428,-0.5428,-0.5428,-0.5428,-0.5428,-0.5428,-0.543,-0.5372,-0.5384,-0.5369,-0.5401,-0.4782,-0.3444,-0.0598,-0.0,-0.0,-0.0,-0.0,-0.0,-0.0,-0.0,-0.0,-0.0,-0.0,-0.0,-0.0,-0.0,-0.0,-0.0,-0.0,-0.0,-0.0,-0.0,-0.0,-0.0,-0.0,-0.0,-0.0,-0.0,-0.0,-0.0,-0.0,-0.0,-0.0,-0.0,-0.0,-0.0,-0.0,-0.0,0.0,0.0,0.0,0.0,0.0,0.0,0.0,0.0,0.0,0.0,0.0,0.0,0.0,0.0,0.0,0.0,0.0,0.0,0.0,0.0,0.0,0.0,0.0,0.0,-0.8808,-0.8808,-0.8808,-0.8808,-0.8808,-0.8808,-0.8808,-0.8808,-0.8808,-0.8808,-0.8808,-0.8808,-0.8808,-0.8808,-0.8808,-0.8808,-0.8808,-0.8888,-0.8991,-0.8661,-0.7887,-0.6703,-0.554,-0.503,-0.5035,-0.5116,-0.5189,-0.5252,-0.5252,-0.5296,-0.5428,-0.5428,-0.5428,-0.5428,-0.5428,-0.5428,-0.5428,-0.5428,-0.5428,-0.5428,-0.5428,-0.5428,-0.5428,-0.5428,-0.5428,-0.5432,-0.5376,-0.4789,-0.4319,-0.5188,-0.4077,-0.2328,-0.0415,-0.0,-0.0,-0.0,-0.0,-0.0,-0.0,-0.0,-0.0,-0.0,-0.0,-0.0,-0.0,-0.0,-0.0,-0.0,-0.0,-0.0,-0.0,-0.0,-0.0,-0.0,-0.0,-0.0,-0.0,-0.14,-0.1456,-0.0056,-0.0,-0.0,-0.0,-0.0,-0.0,-0.0,-0.0,-0.0,0.0,0.0,0.0,0.0,0.0,0.0,0.0,0.0,0.0,0.0,0.0,0.0,0.0,0.0,0.0,0.0,0.0,0.0,0.0,0.0,0.0,0.0,0.0,-0.8808,-0.8808,-0.8808,-0.8808,-0.8808,-0.8808,-0.8808,-0.8808,-0.8808,-0.8808,-0.8808,-0.8808,-0.8808,-0.8808,-0.8808,-0.8808,-0.8808,-0.8808,-0.8752,-0.8553,-0.764,-0.6827,-0.6245,-0.5398,-0.4998,-0.4882,-0.4908,-0.4987,-0.5092,-0.5092,-0.5172,-0.5286,-0.5286,-0.5286,-0.5289,-0.5313,-0.5323,-0.5323,-0.5323,-0.5323,-0.5316,-0.5293,-0.5286,-0.5286,-0.5286,-0.5286,-0.5355,-0.537,-0.4027,-0.3166,-0.4967,-0.2638,-0.0,-0.0,-0.0,-0.0,-0.0,-0.0,-0.0,-0.0,-0.0,-0.0,-0.0,-0.0,-0.0,-0.0,-0.0,-0.0,-0.0,-0.0,-0.0,-0.0,-0.0,-0.0,-0.0,-0.0,-0.0,-0.0,-0.2915,-0.3312,-0.0841,-0.028,-0.0,-0.0,-0.0,-0.0,-0.0,-0.0,-0.0,0.0,0.0,0.0,0.0,0.0,0.0,0.0,0.0,0.0,0.0,0.0,0.0,0.0,0.0,0.0,0.0,0.0,0.0,0.0,0.0,0.0,0.0,0.0,-0.8808,-0.8808,-0.8808,-0.8808,-0.8808,-0.8808,-0.8808,-0.8808,-0.8808,-0.8808,-0.8808,-0.8808,-0.8808,-0.8808,-0.8808,-0.8808,-0.8808,-0.8808,-0.848,-0.7833,-0.703,-0.6621,-0.6519,-0.5912,-0.5294,-0.4731,-0.4865,-0.493,-0.4947,-0.4947,-0.496,-0.4977,-0.4977,-0.4977,-0.4996,-0.5118,-0.516,-0.516,-0.516,-0.516,-0.5138,-0.5016,-0.4977,-0.4977,-0.4977,-0.4977,-0.5046,-0.5326,-0.4047,-0.3136,-0.4944,-0.2616,-0.0,-0.0,-0.0,-0.0,-0.0,-0.0,-0.0,-0.0,-0.0,-0.0,-0.0,-0.0,-0.0,-0.0,-0.0,-0.0,-0.0,-0.0,-0.0,-0.0,-0.0,-0.0,-0.0,-0.0,-0.0,-0.0,-0.2869,-0.4297,-0.3899,-0.1343,-0.0,-0.0,-0.0,-0.0,-0.0,-0.0,-0.0,0.0,0.0,0.0,0.0,0.0,0.0,0.0,0.0,0.0,0.0,0.0,0.0,0.0,0.0,0.0,0.0,0.0,0.0,0.0,0.0,0.0,0.0,0.0,-0.8808,-0.8808,-0.8808,-0.8808,-0.8808,-0.8808,-0.8808,-0.8808,-0.8808,-0.8808,-0.8808,-0.8808,-0.8808,-0.8808,-0.8808,-0.8808,-0.8808,-0.8808,-0.8646,-0.8318,-0.7993,-0.7176,-0.5932,-0.5361,-0.4896,-0.4568,-0.4636,-0.4713,-0.4791,-0.4791,-0.4843,-0.4919,-0.4919,-0.4919,-0.4928,-0.4989,-0.5013,-0.5013,-0.5013,-0.5013,-0.4999,-0.4938,-0.4919,-0.4919,-0.4919,-0.4919,-0.4925,-0.5076,-0.3899,-0.2634,-0.2443,-0.1168,-0.0,-0.0,-0.0,-0.0,-0.0,-0.0,-0.0,-0.0,-0.0,-0.0,-0.0,-0.0,-0.0,-0.0,-0.0,-0.0,-0.0,-0.0,-0.0,-0.0,-0.0,-0.0,-0.0,-0.0,-0.0,-0.0,-0.1291,-0.2758,-0.4473,-0.3204,-0.168,-0.0,-0.0,-0.0,-0.0,-0.0,-0.0,0.0,0.0,0.0,0.0,0.0,0.0,0.0,0.0,0.0,0.0,0.0,0.0,0.0,0.0,0.0,0.0,0.0,0.0,0.0,0.0,0.0,0.0,-0.891,-0.8808,-0.8808,-0.8808,-0.8808,-0.8808,-0.8808,-0.8808,-0.8808,-0.8808,-0.8808,-0.8808,-0.8808,-0.8808,-0.8808,-0.8808,-0.8808,-0.8808,-0.8808,-0.8808,-0.8808,-0.859,-0.7498,-0.5762,-0.5224,-0.4844,-0.4517,-0.4517,-0.4585,-0.4633,-0.4633,-0.4702,-0.4802,-0.4802,-0.4802,-0.4808,-0.4847,-0.4862,-0.4862,-0.4862,-0.4862,-0.4853,-0.4816,-0.4802,-0.4802,-0.4802,-0.4802,-0.4808,-0.477,-0.3971,-0.2617,-0.0528,-0.0,-0.0,-0.0,-0.0,-0.0,-0.0,-0.0,-0.0,-0.0,-0.0,-0.0,-0.0,-0.0,-0.0,-0.0,-0.0,-0.0,-0.0,-0.0,-0.0,-0.0,-0.0,-0.0,-0.0,-0.0,-0.0,-0.0,-0.0,-0.1066,-0.3326,-0.412,-0.3036,-0.0,-0.0,-0.0,-0.0,-0.0,-0.0,0.0,0.0,0.0,0.0,0.0,0.0,0.0,0.0,0.0,0.0,0.0,0.0,0.0,0.0,0.0,0.0,0.0,0.0,0.0,0.0,0.0,0.0,-0.9211,-0.8808,-0.8808,-0.8808,-0.8808,-0.8808,-0.8808,-0.8808,-0.8808,-0.8808,-0.8808,-0.8808,-0.8808,-0.8808,-0.8808,-0.8808,-0.8808,-0.8808,-0.8808,-0.8808,-0.8755,-0.8103,-0.7289,-0.6532,-0.6532,-0.5716,-0.4517,-0.4517,-0.4522,-0.4531,-0.4531,-0.4536,-0.4543,-0.4543,-0.4543,-0.4561,-0.4652,-0.4702,-0.4702,-0.4702,-0.4702,-0.4675,-0.4587,-0.4543,-0.4543,-0.4543,-0.4543,-0.4548,-0.4514,-0.4465,-0.3666,-0.0675,-0.0,-0.0,-0.0,-0.0,-0.0,-0.0,-0.0,-0.0,-0.0,-0.0,-0.0,-0.0,-0.0,-0.0,-0.0,-0.0,-0.0,-0.0,-0.0,-0.0,-0.0,-0.0,-0.0,-0.0,-0.0,-0.0,-0.0,-0.0,-0.0056,-0.0224,-0.3042,-0.3042,-0.0,-0.0,-0.0,-0.0,-0.0,-0.0,0.0,0.0,0.0,0.0,0.0,0.0,0.0,0.0,0.0,0.0,0.0,0.0,0.0,0.0,0.0,0.0,0.0,0.0,0.0,0.0,0.0,0.0,-0.8959,-0.8808,-0.8808,-0.8808,-0.8808,-0.8808,-0.8808,-0.8808,-0.8808,-0.8808,-0.8808,-0.8808,-0.8808,-0.8808,-0.8808,-0.8808,-0.8808,-0.8808,-0.8808,-0.8808,-0.8808,-0.8533,-0.7996,-0.7292,-0.7292,-0.6258,-0.4517,-0.4517,-0.4517,-0.4517,-0.4517,-0.4517,-0.4517,-0.4517,-0.4517,-0.4525,-0.4582,-0.4545,-0.4545,-0.4545,-0.4545,-0.4591,-0.4534,-0.4517,-0.4517,-0.4517,-0.4517,-0.4524,-0.4501,-0.4511,-0.3715,-0.0729,-0.0,-0.0,-0.0,-0.0,-0.0,-0.0,-0.0,-0.0,-0.0,-0.0,-0.0,-0.0,-0.0,-0.0,-0.0,-0.0,-0.0,-0.0,-0.0,-0.0,-0.0,-0.0,-0.0,-0.0,-0.0,-0.0,-0.0,-0.0,-0.0,-0.0,-0.1066,-0.1066,-0.0,-0.0,-0.0,-0.0,-0.0,-0.0,0.0,0.0,0.0,0.0,0.0,0.0,0.0,0.0,0.0,0.0,0.0,0.0,0.0,0.0,0.0,0.0,0.0,0.0,0.0,0.0,0.0,0.0,-0.8959,-0.8808,-0.8808,-0.8808,-0.8808,-0.8808,-0.8808,0.0,-0.8808,-0.8808,-0.8808,-0.8808,-0.8808,-0.8808,-0.8808,-0.8808,-0.8808,-0.8808,-0.8808,-0.8808,-0.8808,-0.8808,-0.8374,-0.7723,-0.7723,-0.6745,-0.5226,-0.5226,-0.5062,-0.4842,-0.4842,-0.4679,-0.4517,-0.4517,-0.4517,-0.4517,-0.4517,-0.4517,-0.4517,-0.4517,-0.4517,-0.4517,-0.4517,-0.4517,-0.4517,-0.4517,-0.4517,-0.4242,-0.3254,-0.2977,-0.2469,-0.0504,-0.0,-0.0,-0.0,-0.0,-0.0,-0.0,-0.0,-0.0,-0.0,-0.0,-0.0,-0.0,-0.0,-0.0,-0.0,-0.0,-0.0,-0.0,-0.0,-0.0,-0.0,-0.0,-0.0,-0.0,-0.0,-0.0,-0.0,-0.0,-0.0,-0.0,-0.0,-0.0,-0.0,-0.0,-0.0,-0.0,-0.0,-0.0,0.0,0.0,0.0,0.0,0.0,0.0,0.0,0.0,0.0,0.0,0.0,0.0,0.0,0.0,0.0,0.0,0.0,0.0,0.0,0.0,0.0,0.0,-0.926,-0.8857,-0.8857,-0.8857,-0.8857,-0.8857,-0.8857,-0.8857,-0.8857,-0.8857,-0.8808,-0.8808,-0.8808,-0.8808,-0.8808,-0.8808,-0.8808,-0.8808,-0.8808,-0.8808,-0.8808,-0.8808,-0.8427,-0.7723,-0.7723,-0.7343,-0.6642,-0.6642,-0.6147,-0.5485,-0.5485,-0.5111,-0.4517,-0.4517,-0.4517,-0.4517,-0.4517,-0.4517,-0.4517,-0.4517,-0.4517,-0.4517,-0.4517,-0.4517,-0.4517,-0.4517,-0.4517,-0.379,-0.0783,-0.0,-0.0,-0.0,-0.0,-0.0,-0.0,-0.0,-0.0,-0.0112,-0.0056,-0.0,-0.0,-0.0056,-0.0112,-0.0112,-0.0056,-0.0,-0.0,-0.0,-0.0,-0.0,-0.0,-0.0,-0.0,-0.0,-0.0,-0.0,-0.0,-0.0,-0.0,-0.0,-0.0,-0.0,-0.0,-0.0,-0.0,-0.0,-0.0,-0.0,-0.0,-0.0,-0.3789,0.0,0.0,0.0,0.0,0.0,0.0,0.0,0.0,0.0,0.0,0.0,0.0,0.0,0.0,0.0,0.0,0.0,0.0,0.0,0.0,0.0,-0.9913,-0.9714,-1.0214,-0.9814,-0.9714,0.0,-1.0265,-1.0265,-1.0265,-0.9766,-0.9312,-0.8804,-0.8808,-0.8808,-0.8808,-0.8808,-0.8808,-0.8808,-0.8808,-0.8808,-0.8808,-0.8808,-0.8699,-0.848,-0.848,-0.8371,-0.8103,-0.702,-0.6147,-0.5485,-0.5485,-0.5111,-0.4517,-0.4517,-0.4517,-0.4517,-0.4517,-0.4517,-0.4517,-0.4517,-0.4517,-0.4517,-0.4517,-0.4517,-0.452,-0.4482,-0.4473,-0.379,-0.0783,-0.0,-0.0,-0.0,-0.0,-0.0,-0.0,-0.0,-0.0673,-0.2808,-0.1514,-0.0,-0.0,-0.1786,-0.3233,-0.3233,-0.1396,-0.0,-0.0,-0.0,-0.0,-0.0,-0.0,-0.0,-0.0,-0.0,-0.0,-0.0,-0.0,-0.0,-0.0,-0.0,-0.0,-0.0,-0.0,-0.0,-0.0,-0.0,-0.0,-0.0,-0.0,-0.0,0.0,0.0,0.0,0.0,0.0,0.0,0.0,-0.6508,0.0,0.0,0.0,0.0,0.0,0.0,0.0,0.0,0.0,0.0,0.0,0.0,0.0,0.0,-0.9933,-0.9839,-1.0222,-0.9888,-0.9839,-1.0222,-1.027,-1.0242,-1.0146,-0.994,-0.9514,-0.8808,-0.8808,-0.8808,-0.8808,-0.8808,-0.8808,-0.8808,-0.8808,-0.8808,-0.8808,-0.8808,-0.8808,-0.8808,-0.8808,-0.8808,-0.8752,-0.7883,-0.6904,-0.5982,-0.5982,-0.5384,-0.4517,-0.4517,-0.4517,-0.4517,-0.4517,-0.4517,-0.4517,-0.4517,-0.4517,-0.4517,-0.4517,-0.4517,-0.4522,-0.449,-0.3581,-0.2231,-0.0448,-0.0,-0.0,-0.0,-0.0,-0.0,-0.0,-0.0,-0.0504,-0.23,-0.2238,-0.19,-0.1852,-0.3354,-0.4517,-0.4517,-0.301,-0.1897,-0.1897,-0.1897,-0.1396,-0.0112,-0.0,-0.0,-0.0,-0.0,-0.0,-0.0,-0.0,-0.0,-0.0,-0.0,-0.0,-0.0,-0.0,-0.0,-0.0,-0.0,-0.0,-0.0,-0.0,-0.0,0.0,0.0,0.0,0.0,0.0,0.0,-0.5961,-0.636,-0.679,0.0,0.0,0.0,0.0,0.0,0.0,0.0,0.0,0.0,0.0,0.0,0.0,0.0,-0.9649,-0.9649,-0.974,-0.9649,-0.9649,-0.974,-0.974,-0.9606,-0.9264,-0.9599,-0.9475,-0.8758,-0.8761,-0.8774,-0.8808,-0.8808,-0.8808,-0.8808,-0.8808,-0.8808,-0.8808,-0.8808,-0.8808,-0.8808,-0.8808,-0.8808,-0.8808,-0.8808,-0.7993,-0.6696,-0.6642,-0.5771,-0.4625,-0.4517,-0.4517,-0.4517,-0.4517,-0.4517,-0.4517,-0.4517,-0.4517,-0.4517,-0.4517,-0.4519,-0.4524,-0.4492,-0.2352,-0.0,-0.0,-0.0,-0.0,-0.0,-0.0,-0.0112,-0.0448,-0.0504,-0.0504,-0.0504,-0.2679,-0.448,-0.4518,-0.449,-0.4517,-0.4517,-0.4517,-0.4517,-0.4517,-0.4517,-0.3343,-0.0336,-0.0,-0.0,-0.0,-0.0,-0.0,-0.0,-0.0,-0.0,-0.0,-0.0,-0.0,-0.0,-0.0,-0.0,-0.0,-0.0,-0.0,-0.0,-0.0,-0.0,0.0,0.0,0.0,0.0,0.0,0.0,0.0,-0.6335,-0.6944,0.0,0.0,0.0,0.0,0.0,0.0,0.0,0.0,0.0,0.0,0.0,0.0,0.0,0.0,-1.0606,-1.1148,-1.0695,-1.0611,-1.1148,-1.1197,-1.0727,-0.9659,-0.9681,-0.9337,-0.8501,-0.8457,-0.8574,-0.8804,-0.8808,-0.8808,-0.8808,-0.8808,-0.8808,-0.8808,-0.8808,-0.8808,-0.8808,-0.8808,-0.8808,-0.8808,-0.8808,-0.8265,-0.745,-0.6858,-0.6093,-0.5218,-0.4679,-0.4517,-0.4517,-0.4517,-0.4517,-0.4517,-0.4517,-0.4517,-0.4517,-0.4517,-0.4524,-0.448,-0.4504,-0.23,-0.0,-0.0,-0.0,-0.0,-0.0,-0.0,-0.0671,-0.3121,-0.3623,-0.3623,-0.3623,-0.4098,-0.4509,-0.448,-0.4522,-0.4517,-0.4517,-0.4517,-0.4517,-0.4517,-0.4517,-0.3343,-0.0336,-0.0,-0.0,-0.0,-0.0,-0.0,-0.0,-0.0,-0.0,-0.0,-0.0,-0.0,-0.0,-0.0,-0.0,-0.0,-0.0,-0.0,-0.0,-0.0,-0.0,0.0,0.0,0.0,-0.6299,0.0,0.0,0.0,0.0,0.0,0.0,0.0,0.0,0.0,0.0,0.0,0.0,0.0,0.0,0.0,0.0,0.0,0.0,0.0,-1.0002,-1.0536,-1.0309,-1.0354,-1.0908,-1.116,-1.0837,-0.9869,-1.0005,-0.9646,-0.8567,-0.8574,-0.858,-0.8587,-0.8591,-0.8664,-0.8808,-0.8808,-0.8808,-0.8808,-0.8808,-0.8808,-0.8808,-0.8808,-0.8808,-0.8808,-0.8808,-0.8374,-0.7616,-0.6912,-0.593,-0.4948,-0.4625,-0.4517,-0.4517,-0.4517,-0.4517,-0.4517,-0.4517,-0.4517,-0.4517,-0.4517,-0.4128,-0.3741,-0.3751,-0.2461,-0.095,-0.0168,-0.1119,-0.2242,-0.2247,-0.2239,-0.2675,-0.4182,-0.4517,-0.4517,-0.4517,-0.448,-0.449,-0.452,-0.4517,-0.4517,-0.4517,-0.4517,-0.4517,-0.4517,-0.4517,-0.3343,-0.0336,-0.0,-0.0,-0.0,-0.0,-0.0,-0.0,-0.0,-0.0,-0.0,-0.0,-0.0,-0.0,-0.0,-0.0,-0.0,-0.0,-0.0,-0.0,-0.0,-0.0,0.0,0.0,0.0,0.0,0.0,-0.7036,0.0,0.0,0.0,0.0,0.0,0.0,0.0,0.0,0.0,0.0,0.0,0.0,0.0,0.0,0.0,0.0,0.0,-0.9173,-0.9517,-0.9486,-0.9638,-1.0005,-1.0278,-1.0205,-0.9697,-1.0052,-0.9811,-0.8787,-0.8787,-0.8674,-0.8478,-0.854,-0.8589,-0.8724,-0.8781,-0.8808,-0.8808,-0.8808,-0.8808,-0.8808,-0.8808,-0.8808,-0.8804,-0.8643,-0.8156,-0.745,-0.6858,-0.5823,-0.468,-0.4572,-0.4517,-0.4517,-0.4517,-0.4517,-0.4517,-0.4517,-0.4517,-0.4517,-0.452,-0.3959,-0.3288,-0.3291,-0.2957,-0.2344,-0.1172,-0.2685,-0.4501,-0.4514,-0.449,-0.4517,-0.4517,-0.4517,-0.4517,-0.4517,-0.4517,-0.4517,-0.4517,-0.4517,-0.4517,-0.4517,-0.4517,-0.4517,-0.4517,-0.4517,-0.3343,-0.0336,-0.0,-0.0,-0.0,-0.0,-0.0,-0.0,-0.0,-0.0,-0.0,-0.0,-0.0,-0.0,-0.0,-0.0,-0.0,-0.0,-0.0,-0.0,-0.0,-0.0,0.0,0.0,0.0,0.0,-0.8187,0.0,0.0,0.0,0.0,0.0,0.0,0.0,0.0,0.0,0.0,0.0,0.0,0.0,0.0,0.0,0.0,0.0,0.0,-0.9292,-0.9341,-0.9109,-0.9025,-0.9151,-0.8848,-0.8746,-0.8903,-0.8979,-0.9006,-0.9036,-0.9052,-0.8917,-0.866,-0.8951,-0.8873,-0.8427,-0.8684,-0.8808,-0.8808,-0.8808,-0.8808,-0.8808,-0.8808,-0.8808,-0.8752,-0.8103,-0.7396,-0.6696,-0.6642,-0.6093,-0.5326,-0.4732,-0.4517,-0.4517,-0.4517,-0.4517,-0.4517,-0.4517,-0.4517,-0.4519,-0.4473,-0.442,-0.4309,-0.432,-0.4266,-0.4209,-0.4041,-0.4268,-0.4492,-0.4473,-0.452,-0.4517,-0.4517,-0.4517,-0.4517,-0.4517,-0.4517,-0.4517,-0.4517,-0.4517,-0.4517,-0.4517,-0.4517,-0.4517,-0.4517,-0.4517,-0.3343,-0.0336,-0.0,-0.0,-0.0,-0.0,-0.0,-0.0,-0.0,-0.0,-0.0,-0.0,-0.0,-0.0,-0.0,-0.0,-0.0,-0.0,-0.0,-0.0,-0.0,-0.0,0.0,0.0,0.0,0.0,0.0,0.0,-0.7192,0.0,-0.695,0.0,0.0,0.0,0.0,0.0,0.0,0.0,0.0,0.0,0.0,0.0,0.0,0.0,0.0,0.0,-0.8415,-0.8631,-0.8777,-0.8725,-0.8628,-0.8629,-0.8742,-0.9062,-0.915,-0.8927,-0.9196,-0.9071,-0.8464,-0.8608,-0.859,-0.8424,-0.8497,-0.8644,-0.8808,-0.8808,-0.8808,-0.8808,-0.8808,-0.8808,-0.8755,-0.7996,-0.7292,-0.6534,-0.6147,-0.5546,-0.4895,-0.4625,-0.4517,-0.4517,-0.4517,-0.4517,-0.4517,-0.4517,-0.4517,-0.4519,-0.4522,-0.4524,-0.4525,-0.4475,-0.4475,-0.4475,-0.4475,-0.4475,-0.4473,-0.4519,-0.4517,-0.4517,-0.4517,-0.4517,-0.4517,-0.4517,-0.4517,-0.4517,-0.4517,-0.4517,-0.4517,-0.4517,-0.4517,-0.4517,-0.4517,-0.2955,-0.1396,-0.0112,-0.0,-0.0,-0.0,-0.0,-0.0,-0.0,-0.0,-0.0,-0.0,-0.0,-0.0,-0.0,-0.0,-0.0,-0.0,-0.0,-0.0,-0.0,-0.0,-0.0,-0.8911,0.0,0.0,0.0,0.0,0.0,0.0,0.0,0.0,0.0,0.0,0.0,0.0,0.0,0.0,0.0,0.0,0.0,0.0,0.0,0.0,0.0,0.0,0.0,0.0,-0.8026,-0.8217,-0.8144,-0.8113,-0.8215,-0.8531,-0.9062,-0.9233,-0.9023,-0.9469,-0.929,-0.843,-0.8482,-0.8418,-0.8175,-0.8213,-0.8404,-0.8687,-0.8687,-0.8731,-0.8808,-0.8808,-0.8699,-0.8427,-0.7723,-0.6964,-0.6202,-0.549,-0.4948,-0.4517,-0.4517,-0.4517,-0.4517,-0.4517,-0.4517,-0.4517,-0.4517,-0.4517,-0.4517,-0.4517,-0.4517,-0.4517,-0.4517,-0.4517,-0.4517,-0.4517,-0.4517,-0.4517,-0.4517,-0.4517,-0.4517,-0.4517,-0.4517,-0.4517,-0.4517,-0.4517,-0.4517,-0.4517,-0.4517,-0.4517,-0.4517,-0.4517,-0.4517,-0.4517,-0.2565,-0.0895,-0.0112,-0.0,-0.0,-0.0,-0.0,-0.0,-0.0,-0.0,-0.0,-0.0,-0.0,-0.0,-0.0,-0.0,-0.0,-0.0,-0.0,-0.0,-0.0,-0.0,-0.0,0.0,0.0,0.0,-0.8703,0.0,0.0,0.0,0.0,-0.8077,0.0,0.0,0.0,0.0,0.0,0.0,0.0,0.0,0.0,0.0,0.0,0.0,0.0,0.0,0.0,0.0,-0.722,-0.7178,0.0,-0.6832,-0.7027,-0.8052,-0.8496,-0.8985,-0.9568,-1.0016,-0.9765,-0.8696,-0.895,-0.8568,-0.7543,-0.7802,-0.81,-0.839,-0.839,-0.854,-0.8808,-0.8808,-0.8374,-0.767,-0.6912,-0.6202,-0.5487,-0.4787,-0.4517,-0.4517,-0.4517,-0.4517,-0.4517,-0.4517,-0.4517,-0.4517,-0.4517,-0.4517,-0.4517,-0.4517,-0.4517,-0.4517,-0.4517,-0.4517,-0.4517,-0.4517,-0.4517,-0.4517,-0.4517,-0.4517,-0.4517,-0.4517,-0.4517,-0.4517,-0.4517,-0.4517,-0.4517,-0.4517,-0.4517,-0.4517,-0.4517,-0.4517,-0.4517,-0.4517,-0.4406,-0.3233,-0.0336,-0.0,-0.0,-0.0,-0.0,-0.0,-0.0,-0.0,-0.0,-0.0,-0.0,-0.0,-0.0,-0.0,-0.0,-0.0,-0.0,-0.0,-0.0,-0.0,-0.0,0.0,0.0,-1.0393,-0.9133,0.0,0.0,0.0,0.0,0.0,0.0,0.0,0.0,0.0,0.0,0.0,0.0,0.0,0.0,0.0,0.0,0.0,0.0,0.0,0.0,0.0,0.0,0.0,0.0,-0.6779,0.0,-0.7489,-0.7997,-0.8592,-0.9189,-0.9629,-0.9482,-0.8716,-0.8799,-0.8384,-0.751,-0.7572,-0.7782,-0.8083,-0.8083,-0.824,-0.8524,-0.8524,-0.8203,-0.7616,-0.6912,-0.6147,-0.5433,-0.4787,-0.4517,-0.4517,-0.4517,-0.4517,-0.4517,-0.4517,-0.4787,-0.5164,-0.5164,-0.5164,-0.5164,-0.5164,-0.484,-0.4517,-0.4517,-0.4517,-0.4517,-0.4517,-0.4517,-0.4517,-0.4517,-0.4517,-0.4517,-0.4517,-0.4517,-0.4517,-0.4517,-0.4517,-0.4517,-0.4517,-0.4517,-0.4517,-0.4517,-0.4517,-0.379,-0.1786,-0.1507,-0.1118,-0.0112,-0.0,-0.0,-0.0,-0.0,-0.0,-0.0,-0.0,-0.0,-0.0,-0.1898,-0.2955,-0.2955,-0.1953,-0.095,-0.0,-0.0,-0.0,-0.0,-0.0,-0.0,-1.0122,-1.0412,0.0,-0.9943,-0.9777,0.0,-0.8306,0.0,0.0,0.0,0.0,0.0,0.0,0.0,0.0,0.0,0.0,0.0,0.0,0.0,0.0,0.0,0.0,0.0,0.0,0.0,-0.6536,-0.6594,-0.6547,0.0,0.0,-0.7668,-0.8273,-0.8867,-0.9361,-0.9422,-0.8999,-0.8999,-0.8543,-0.7664,-0.7664,-0.7695,-0.7766,-0.7766,-0.7929,-0.8223,-0.833,-0.7954,-0.7161,-0.6768,-0.6039,-0.5111,-0.4679,-0.4517,-0.4517,-0.4517,-0.4624,-0.484,-0.484,-0.533,-0.5871,-0.5871,-0.5871,-0.5817,-0.5597,-0.5218,-0.4787,-0.4572,-0.4517,-0.4517,-0.4517,-0.4517,-0.4517,-0.4517,-0.4517,-0.4517,-0.4517,-0.4517,-0.4517,-0.4517,-0.4517,-0.4517,-0.4517,-0.4517,-0.4517,-0.4517,-0.4517,-0.379,-0.1842,-0.1619,-0.1396,-0.0839,-0.0336,-0.0448,-0.1508,-0.1619,-0.1619,-0.1619,-0.1619,-0.1619,-0.1619,-0.3456,-0.4517,-0.4517,-0.3518,-0.2572,-0.1626,-0.0503,-0.0,-0.0,-0.0,-0.0]},{"header":{"parameterUnit":"m.s-1","parameterCategory":1,"la1":30.6,"la2":29.2853,"lo1":-89.7004,"lo2":-87.6739,"dy":0.0162,"dx":0.0183,"nx":112,"ny":82,"refTime":"2025-07-07T00:00:00:Z","depth":0,"parameterNumber":3,"parameterNumberName":"V-component_of_WINDS"},"data":[0.0,0.0,0.0,0.0,0.0,0.0,0.0,0.0,0.0,0.0,0.0,0.0,0.0,0.0,0.0,0.0,0.0,0.0,0.0,0.0,0.0,0.0,0.0,0.0,0.0,0.0,0.0,0.0,0.0,0.0,0.0,0.0,0.0,0.0,0.0,0.0,0.0,0.0,0.0,0.0,0.0,0.0,0.0,0.0,0.0,0.0,0.0,0.0,0.0,0.0,0.0,0.0,0.0,0.0,0.0,0.0,0.0,0.0,0.0,0.0,0.0,0.0,0.0,0.0,0.0,0.0,0.0,0.0,0.0,0.0,0.0,0.0,0.0,0.0,0.0,0.0,0.0,0.0,0.0,0.0,0.0,0.0,0.0,0.0,0.0,0.0,0.0,0.0,0.0,0.0,0.0,-1.2714,-1.4362,-1.5291,-1.5301,-1.5299,-1.4576,-1.2893,0.0,0.0,0.0,0.0,0.0,0.0,0.0,0.0,0.0,0.0,0.0,0.0,0.0,0.0,0.0,0.0,0.0,0.0,0.0,0.0,0.0,0.0,0.0,0.0,0.0,0.0,0.0,0.0,0.0,0.0,0.0,0.0,0.0,0.0,0.0,0.0,0.0,0.0,0.0,0.0,0.0,0.0,0.0,0.0,0.0,0.0,0.0,0.0,0.0,0.0,0.0,0.0,0.0,0.0,0.0,0.0,0.0,0.0,0.0,0.0,0.0,0.0,0.0,0.0,0.0,0.0,0.0,0.0,0.0,0.0,0.0,0.0,0.0,0.0,0.0,0.0,0.0,0.0,0.0,0.0,0.0,0.0,0.0,0.0,0.0,0.0,0.0,0.0,0.0,0.0,0.0,0.0,0.0,0.0,0.0,0.0,0.0,0.0,0.0,0.0,0.0,0.0,0.0,0.0,-1.0987,-1.3555,-1.4661,-1.5243,-1.5301,-1.5299,-1.4565,-1.2821,0.0,0.0,0.0,0.0,0.0,0.0,0.0,0.0,0.0,0.0,0.0,0.0,0.0,0.0,0.0,0.0,0.0,0.0,0.0,0.0,0.0,0.0,0.0,0.0,0.0,0.0,0.0,0.0,0.0,0.0,0.0,0.0,0.0,0.0,0.0,0.0,0.0,0.0,0.0,0.0,0.0,0.0,0.0,0.0,0.0,0.0,0.0,0.0,0.0,0.0,0.0,0.0,0.0,0.0,0.0,0.0,0.0,0.0,0.0,0.0,0.0,0.0,0.0,0.0,0.0,0.0,0.0,0.0,0.0,0.0,0.0,0.0,0.0,0.0,0.0,0.0,0.0,0.0,0.0,0.0,0.0,0.0,0.0,0.0,0.0,0.0,0.0,0.0,0.0,0.0,0.0,0.0,0.0,0.0,0.0,0.0,0.0,0.0,0.0,0.0,0.0,0.0,0.0,-1.11,-1.2364,-1.4482,-1.5001,-1.5234,-1.5291,-1.5294,-1.4566,-1.2856,-1.2337,0.0,0.0,0.0,0.0,0.0,0.0,0.0,0.0,0.0,0.0,0.0,0.0,0.0,0.0,0.0,0.0,0.0,0.0,0.0,0.0,0.0,0.0,0.0,0.0,0.0,0.0,0.0,0.0,0.0,0.0,0.0,0.0,0.0,0.0,0.0,0.0,0.0,0.0,0.0,0.0,0.0,0.0,0.0,0.0,0.0,0.0,0.0,0.0,0.0,0.0,0.0,0.0,0.0,0.0,0.0,0.0,0.0,0.0,0.0,0.0,0.0,0.0,0.0,0.0,0.0,0.0,0.0,0.0,0.0,0.0,0.0,0.0,0.0,0.0,0.0,0.0,0.0,0.0,0.0,0.0,0.0,0.0,0.0,0.0,0.0,0.0,0.0,0.0,0.0,0.0,0.0,0.0,0.0,0.0,0.0,0.0,0.0,0.0,0.0,0.0,0.0,0.0,-1.2733,-1.3373,-1.5105,-1.5243,-1.5224,-1.5272,-1.5099,-1.4362,-1.2867,-1.1593,0.0,0.0,0.0,0.0,0.0,0.0,0.0,0.0,0.0,0.0,0.0,0.0,0.0,0.0,0.0,0.0,0.0,0.0,0.0,0.0,0.0,0.0,0.0,0.0,0.0,0.0,0.0,0.0,0.0,0.0,0.0,0.0,0.0,0.0,0.0,0.0,0.0,0.0,0.0,0.0,0.0,0.0,0.0,0.0,0.0,0.0,0.0,0.0,0.0,0.0,0.0,0.0,0.0,0.0,0.0,0.0,0.0,0.0,0.0,0.0,0.0,0.0,0.0,0.0,0.0,0.0,0.0,0.0,0.0,0.0,0.0,0.0,0.0,0.0,0.0,0.0,0.0,0.0,0.0,0.0,0.0,0.0,0.0,0.0,0.0,0.0,0.0,0.0,0.0,0.0,0.0,0.0,0.0,0.0,0.0,0.0,0.0,0.0,0.0,0.0,0.0,0.0,-1.2704,-1.3373,-1.5105,-1.5243,-1.5199,-1.5209,-1.4518,-1.3701,-1.2776,-1.0431,0.0,0.0,0.0,0.0,0.0,0.0,0.0,0.0,0.0,0.0,0.0,0.0,0.0,0.0,0.0,0.0,0.0,0.0,0.0,0.0,0.0,0.0,0.0,0.0,0.0,0.0,0.0,0.0,0.0,0.0,0.0,0.0,0.0,0.0,0.0,0.0,0.0,0.0,0.0,0.0,0.0,0.0,0.0,0.0,0.0,0.0,0.0,0.0,0.0,0.0,0.0,0.0,0.0,0.0,0.0,0.0,0.0,0.0,0.0,0.0,0.0,0.0,0.0,0.0,0.0,0.0,0.0,0.0,0.0,0.0,0.0,0.0,0.0,0.0,0.0,0.0,0.0,0.0,0.0,0.0,0.0,0.0,0.0,0.0,0.0,0.0,0.0,0.0,0.0,0.0,0.0,0.0,0.0,0.0,0.0,0.0,0.0,0.0,0.0,0.0,0.0,0.0,-1.2706,-1.3368,0.0,-1.5243,-1.5199,-1.5199,-1.4916,-1.4162,-1.2786,0.0,0.0,0.0,0.0,0.0,0.0,0.0,0.0,0.0,0.0,0.0,0.0,0.0,0.0,0.0,0.0,0.0,0.0,0.0,0.0,0.0,0.0,0.0,0.0,0.0,0.0,0.0,0.0,0.0,0.0,0.0,0.0,0.0,0.0,0.0,0.0,0.0,0.0,0.0,0.0,0.0,0.0,0.0,0.0,0.0,0.0,0.0,0.0,0.0,0.0,0.0,0.0,0.0,0.0,0.0,0.0,0.0,0.0,0.0,0.0,0.0,0.0,0.0,0.0,0.0,0.0,0.0,0.0,0.0,0.0,0.0,0.0,0.0,0.0,0.0,0.0,0.0,0.0,0.0,0.0,0.0,0.0,0.0,0.0,0.0,0.0,0.0,0.0,0.0,0.0,0.0,0.0,0.0,0.0,0.0,0.0,0.0,0.0,0.0,0.0,0.0,0.0,-1.2266,-1.2704,-1.3365,0.0,-1.5234,-1.5199,-1.5199,-1.4949,-1.4195,-1.2786,0.0,0.0,0.0,0.0,0.0,0.0,0.0,0.0,0.0,0.0,0.0,0.0,0.0,0.0,0.0,0.0,0.0,0.0,0.0,0.0,0.0,0.0,0.0,0.0,0.0,0.0,0.0,0.0,0.0,0.0,0.0,0.0,0.0,0.0,0.0,0.0,0.0,0.0,0.0,0.0,0.0,0.0,0.0,0.0,0.0,0.0,0.0,0.0,0.0,0.0,0.0,0.0,0.0,0.0,0.0,0.0,0.0,0.0,0.0,0.0,0.0,0.0,0.0,0.0,0.0,0.0,0.0,0.0,0.0,0.0,0.0,0.0,0.0,0.0,0.0,0.0,0.0,0.0,0.0,0.0,0.0,0.0,0.0,0.0,0.0,0.0,0.0,0.0,0.0,0.0,0.0,0.0,0.0,0.0,0.0,0.0,0.0,0.0,0.0,0.0,0.0,0.0,-1.2267,-1.2696,-1.3346,-1.502,-1.5199,-1.5199,-1.5199,-1.4411,-1.3565,0.0,0.0,0.0,0.0,0.0,0.0,0.0,0.0,0.0,0.0,0.0,0.0,0.0,0.0,0.0,0.0,0.0,0.0,0.0,0.0,0.0,0.0,0.0,0.0,0.0,0.0,0.0,0.0,0.0,0.0,0.0,0.0,0.0,0.0,0.0,0.0,0.0,0.0,0.0,0.0,0.0,0.0,0.0,0.0,0.0,0.0,0.0,0.0,0.0,0.0,0.0,0.0,0.0,0.0,0.0,0.0,0.0,0.0,0.0,0.0,0.0,0.0,0.0,0.0,0.0,0.0,0.0,0.0,0.0,0.0,0.0,0.0,0.0,0.0,0.0,0.0,0.0,0.0,0.0,0.0,0.0,0.0,0.0,0.0,0.0,0.0,0.0,0.0,0.0,0.0,0.0,0.0,0.0,0.0,0.0,0.0,0.0,0.0,0.0,0.0,0.0,0.0,0.0,-1.2257,-1.2698,-1.3346,-1.5016,-1.5199,-1.5199,-1.5199,-1.4959,-1.4214,-1.2786,0.0,0.0,0.0,0.0,0.0,0.0,0.0,0.0,0.0,0.0,0.0,0.0,0.0,0.0,0.0,0.0,0.0,0.0,0.0,0.0,0.0,0.0,0.0,0.0,0.0,0.0,0.0,0.0,0.0,0.0,0.0,0.0,0.0,0.0,0.0,0.0,0.0,0.0,0.0,0.0,0.0,0.0,0.0,0.0,0.0,0.0,0.0,0.0,0.0,0.0,0.0,0.0,0.0,0.0,0.0,0.0,0.0,0.0,0.0,0.0,0.0,0.0,0.0,0.0,0.0,0.0,0.0,0.0,0.0,0.0,0.0,0.0,0.0,0.0,0.0,0.0,0.0,0.0,0.0,0.0,0.0,0.0,0.0,0.0,0.0,0.0,0.0,0.0,0.0,0.0,0.0,0.0,0.0,0.0,0.0,0.0,0.0,0.0,0.0,0.0,0.0,0.0,-1.2305,-1.2997,-1.386,-1.5535,-1.5416,-1.5339,-1.5695,-1.5407,-1.4484,-1.2805,0.0,0.0,0.0,0.0,0.0,0.0,0.0,0.0,0.0,0.0,0.0,0.0,0.0,0.0,0.0,0.0,0.0,0.0,0.0,0.0,0.0,0.0,0.0,0.0,0.0,0.0,0.0,0.0,0.0,0.0,0.0,0.0,0.0,0.0,0.0,0.0,0.0,0.0,0.0,0.0,0.0,0.0,0.0,0.0,0.0,0.0,0.0,0.0,0.0,0.0,0.0,0.0,0.0,0.0,0.0,0.0,0.0,0.0,0.0,0.0,0.0,0.0,0.0,0.0,0.0,0.0,0.0,0.0,0.0,0.0,0.0,0.0,0.0,0.0,0.0,0.0,0.0,0.0,0.0,0.0,0.0,0.0,0.0,0.0,0.0,0.0,0.0,0.0,0.0,0.0,0.0,0.0,0.0,0.0,0.0,0.0,0.0,0.0,0.0,0.0,0.0,0.0,-1.2382,-1.3529,-1.4714,-1.633,-1.5859,-1.5724,-1.6436,-1.5782,-1.4599,-1.2921,0.0,0.0,0.0,0.0,0.0,0.0,0.0,0.0,0.0,0.0,0.0,0.0,0.0,0.0,0.0,0.0,0.0,0.0,0.0,0.0,0.0,0.0,0.0,0.0,0.0,0.0,0.0,0.0,0.0,0.0,0.0,0.0,0.0,0.0,0.0,0.0,0.0,0.0,0.0,0.0,0.0,0.0,0.0,0.0,0.0,0.0,0.0,0.0,0.0,0.0,0.0,0.0,0.0,0.0,0.0,0.0,0.0,0.0,0.0,0.0,-1.4107,0.0,0.0,0.0,0.0,0.0,0.0,0.0,0.0,0.0,0.0,0.0,0.0,0.0,0.0,0.0,0.0,0.0,0.0,0.0,0.0,0.0,0.0,0.0,0.0,0.0,0.0,0.0,0.0,0.0,0.0,0.0,0.0,0.0,0.0,0.0,0.0,0.0,0.0,0.0,0.0,0.0,-1.2454,-1.4007,-1.5343,-1.6388,-1.6897,-1.6984,-1.6542,-1.633,-1.5484,-1.3747,-1.2233,0.0,0.0,0.0,0.0,0.0,0.0,0.0,0.0,0.0,0.0,0.0,0.0,0.0,0.0,0.0,0.0,0.0,0.0,0.0,0.0,0.0,0.0,0.0,0.0,0.0,0.0,0.0,0.0,0.0,0.0,0.0,0.0,0.0,0.0,0.0,0.0,0.0,0.0,0.0,0.0,0.0,0.0,0.0,0.0,0.0,0.0,0.0,0.0,0.0,0.0,0.0,0.0,0.0,0.0,0.0,0.0,0.0,0.0,0.0,0.0,-1.5498,0.0,0.0,0.0,0.0,0.0,0.0,0.0,0.0,0.0,0.0,0.0,0.0,0.0,0.0,0.0,0.0,0.0,0.0,0.0,0.0,0.0,0.0,0.0,0.0,0.0,0.0,0.0,0.0,0.0,0.0,0.0,0.0,0.0,0.0,0.0,0.0,0.0,0.0,0.0,0.0,-1.2999,-1.4745,-1.6311,-1.7568,-1.7702,-1.7702,-1.7702,-1.6955,-1.5926,-1.4613,-1.3305,0.0,0.0,0.0,0.0,0.0,0.0,0.0,0.0,0.0,0.0,0.0,0.0,0.0,0.0,0.0,0.0,0.0,0.0,0.0,0.0,0.0,0.0,0.0,0.0,0.0,0.0,0.0,0.0,0.0,0.0,0.0,0.0,0.0,0.0,0.0,0.0,0.0,0.0,0.0,0.0,0.0,0.0,0.0,0.0,0.0,0.0,0.0,0.0,0.0,0.0,0.0,0.0,0.0,-1.8811,-1.9328,-1.9896,-2.0196,-2.1073,-2.2275,-2.0108,-1.884,-1.814,-1.6299,0.0,0.0,0.0,0.0,0.0,0.0,0.0,0.0,0.0,0.0,0.0,0.0,0.0,0.0,0.0,0.0,0.0,0.0,0.0,0.0,0.0,0.0,0.0,0.0,-1.7599,-1.7939,-1.5025,0.0,0.0,0.0,0.0,0.0,0.0,0.0,0.0,0.0,0.0,0.0,-1.3812,-1.5715,-1.7472,-1.8847,-1.8491,-1.8379,-1.8953,-1.7731,-1.6503,-1.5493,-1.4613,-1.344,0.0,0.0,0.0,0.0,0.0,0.0,0.0,0.0,0.0,0.0,0.0,0.0,0.0,0.0,0.0,0.0,0.0,0.0,0.0,0.0,0.0,0.0,0.0,0.0,0.0,0.0,0.0,0.0,0.0,0.0,0.0,0.0,-0.9408,-0.9638,0.0,0.0,0.0,0.0,0.0,0.0,0.0,0.0,0.0,0.0,0.0,0.0,0.0,-1.7674,-1.8662,-2.0215,-2.1004,-2.1033,-2.3245,-2.3995,-2.3485,-2.4928,-2.5726,-2.5937,-2.6159,0.0,-2.0885,-1.9687,0.0,0.0,0.0,0.0,0.0,0.0,0.0,0.0,0.0,0.0,0.0,0.0,0.0,0.0,0.0,0.0,0.0,0.0,0.0,0.0,0.0,0.0,-2.049,-1.9977,-2.0585,-2.0978,0.0,-1.7408,-1.5194,-1.4075,-1.282,0.0,0.0,0.0,0.0,0.0,0.0,0.0,-1.4718,-1.7078,-1.8761,-1.8982,-1.9571,-1.9706,-1.9044,-1.8802,-1.8001,-1.6426,-1.5513,-1.4593,-1.3613,-1.2897,0.0,0.0,0.0,0.0,0.0,0.0,0.0,0.0,0.0,0.0,0.0,0.0,0.0,0.0,0.0,0.0,0.0,0.0,0.0,0.0,0.0,0.0,0.0,0.0,0.0,0.0,0.0,0.0,0.0,-0.8985,-1.062,-1.0725,-1.1602,-1.2001,0.0,0.0,0.0,0.0,0.0,0.0,0.0,0.0,0.0,-1.866,-1.9949,-2.1014,-2.1862,-2.3044,-2.388,-2.438,-2.5505,-2.6101,-2.6265,-2.6996,-2.7332,-2.7351,-2.7643,-2.675,-2.4937,-2.2839,-2.1105,-1.9634,0.0,0.0,0.0,0.0,-1.823,-1.8535,-2.0268,-2.0293,-1.9522,-1.946,0.0,0.0,0.0,0.0,0.0,0.0,0.0,0.0,0.0,0.0,-2.1671,-2.1851,-2.2538,-2.2941,-2.2231,-2.0973,-1.9198,0.0,-1.5813,-1.4974,-1.2846,0.0,0.0,0.0,0.0,-1.5486,-1.6351,-1.7949,-1.9194,-1.9677,-2.0071,-2.015,-1.9756,-1.9273,-1.8482,-1.7244,-1.6388,-1.5541,-1.467,-1.3815,-1.3017,0.0,0.0,0.0,0.0,0.0,0.0,0.0,0.0,0.0,0.0,0.0,0.0,0.0,0.0,0.0,0.0,0.0,0.0,0.0,0.0,0.0,0.0,0.0,0.0,0.0,0.0,0.0,0.0,-1.0241,-1.1875,-1.1981,-1.3713,-1.4558,0.0,0.0,0.0,0.0,0.0,0.0,-1.7578,-1.9191,-2.0584,-2.1669,-2.3112,-2.4264,-2.5062,-2.5678,-2.6294,-2.6928,-2.6928,-2.7265,-2.7909,-2.8111,-2.8207,-2.8217,-2.8438,-2.8409,-2.8014,-2.5664,-2.3914,-2.2594,-2.1205,-2.0926,-2.1278,-2.1237,-2.1248,-2.1545,-2.3334,-2.3426,-2.2699,-2.2304,-2.1865,-2.1117,-1.9177,0.0,0.0,0.0,0.0,-1.947,-2.0738,-2.1741,-2.2574,-2.3225,-2.3833,-2.4173,-2.377,-2.3677,-2.2664,0.0,-1.8814,-1.8279,-1.5729,0.0,0.0,0.0,0.0,-1.6938,-1.7801,-1.8736,-1.9581,-2.0235,-2.0302,-2.0302,-2.0302,-1.9706,-1.8876,-1.777,-1.7138,-1.632,-1.5237,-1.4584,-1.4132,-1.3896,0.0,0.0,0.0,0.0,0.0,0.0,0.0,0.0,0.0,0.0,0.0,0.0,0.0,0.0,0.0,0.0,0.0,0.0,0.0,0.0,0.0,0.0,0.0,0.0,0.0,0.0,0.0,0.0,0.0,-1.3843,-1.6083,0.0,0.0,0.0,0.0,-1.7688,-1.854,-1.9423,-2.0256,-2.189,-2.3554,-2.5187,-2.6061,-2.6899,-2.7698,-2.7746,-2.7784,-2.7823,-2.7823,-2.7861,-2.7928,-2.8688,-2.9034,-2.9083,-2.991,-2.9804,-2.8967,-2.8052,-2.7149,-2.6321,-2.6106,-2.5611,-2.5014,-2.49,-2.4922,-2.5053,-2.5178,-2.4678,-2.413,-2.4851,-2.3927,-2.2465,-2.2154,-2.1324,0.0,0.0,-2.1754,-2.2726,-2.3068,-2.36,-2.4127,-2.4361,-2.445,-2.4526,-2.4689,-2.4723,-2.4186,0.0,-2.1452,-2.0674,-1.9748,0.0,-1.7263,-1.7216,-1.7399,-1.783,-1.8636,-1.9602,-2.0254,-2.0302,-2.0302,-2.0302,-2.0302,-2.0264,-1.9513,-1.7811,-1.7664,-1.6907,-1.5266,-1.5161,-1.4747,-1.3915,-1.3022,0.0,0.0,0.0,0.0,0.0,0.0,0.0,0.0,0.0,0.0,0.0,0.0,0.0,0.0,0.0,0.0,0.0,0.0,0.0,0.0,0.0,0.0,0.0,0.0,0.0,0.0,0.0,0.0,-1.6435,-1.8729,0.0,-1.919,-1.9857,-2.035,-2.0352,-2.1666,-2.2858,-2.3738,-2.488,-2.6022,-2.7138,-2.7441,-2.7704,-2.79,-2.79,-2.8159,-2.8669,-2.8669,-2.8967,-2.9525,-2.9813,-2.9938,-2.9948,-3.0275,-3.0227,-2.991,-2.9631,-2.8688,-2.7428,-2.7376,-2.7204,-2.6976,-2.6915,-2.6925,-2.6967,-2.6967,-2.6784,-2.6495,-2.6236,-2.5322,-2.4291,-2.41,-2.3771,-2.3465,-2.3476,-2.3799,-2.4136,-2.4244,-2.4423,-2.4591,-2.467,-2.47,-2.4736,-2.4894,-2.4933,-2.4787,-2.4323,-2.3475,-2.2431,-2.1149,-2.0899,-2.0687,-2.0122,-2.056,-2.1048,-2.1337,-2.1689,-2.1687,-2.1129,-2.1071,-2.086,-2.034,-2.0302,-1.9561,-1.7811,-1.7702,-1.6946,-1.5266,-1.5199,-1.5045,-1.4738,-1.3901,-1.2906,0.0,0.0,0.0,0.0,0.0,0.0,0.0,0.0,0.0,0.0,0.0,0.0,0.0,0.0,0.0,0.0,0.0,0.0,0.0,0.0,0.0,0.0,0.0,0.0,0.0,0.0,-1.8307,-1.8672,-2.1026,-2.2294,-2.1494,-2.2396,-2.3168,-2.347,-2.4557,-2.5587,-2.6461,-2.7054,-2.7739,-2.8546,-2.853,-2.8585,-2.8775,-2.8746,-2.9006,-2.9535,-2.9535,-2.9852,-3.0448,-3.0737,-3.0883,-3.0922,-3.1189,-3.1326,-3.1328,-3.0996,-3.0227,-2.9219,-2.8881,-2.8736,-2.8707,-2.8409,-2.8294,-2.8265,-2.7986,-2.79,-2.7794,-2.7226,-2.6649,-2.61,-2.5669,-2.5539,-2.5461,-2.5073,-2.4923,-2.4873,-2.4873,-2.4828,-2.4809,-2.4855,-2.4873,-2.4913,-2.5065,-2.5099,-2.5131,-2.5274,-2.4752,-2.3982,-2.2958,-2.3043,-2.3033,-2.2456,-2.262,-2.2793,-2.2793,-2.2793,-2.2581,-2.2004,-2.1677,-2.1283,-2.0754,-2.0465,-1.9686,-1.8234,-1.7859,-1.708,-1.5705,-1.5359,-1.5199,-1.5199,-1.4368,-1.3392,-1.2286,0.0,0.0,0.0,0.0,0.0,0.0,0.0,0.0,0.0,0.0,0.0,0.0,0.0,0.0,0.0,0.0,0.0,0.0,0.0,0.0,0.0,0.0,0.0,-1.6513,-1.8082,-1.9574,-2.0504,-2.2885,-2.4129,-2.3349,-2.4766,-2.6094,-2.6943,-2.7031,-2.7422,-2.8291,-2.834,-2.8711,-2.9512,-2.9412,-2.9725,-3.0544,-3.0487,-3.0467,-3.0496,-3.0496,-3.0525,-3.0612,-3.1465,-3.1881,-3.1977,-3.2755,-3.3143,-3.3138,-3.2223,-3.1886,-3.1842,-3.0816,-3.0408,-3.0304,-2.9458,-2.914,-2.9034,-2.8246,-2.7967,-2.7948,-2.7938,-2.7919,-2.7746,-2.6899,-2.664,-2.6467,-2.562,-2.522,-2.5049,-2.5049,-2.4936,-2.4851,-2.4974,-2.501,-2.5077,-2.5264,-2.5303,-2.5303,-2.5303,-2.5293,-2.5293,-2.5293,-2.4649,-2.4139,-2.4139,-2.3427,0.0,-2.2879,-2.2879,-2.287,-2.2841,-2.2091,-2.1562,-2.1504,-2.0792,-1.9938,-1.9025,-1.8167,-1.734,-1.6532,-1.5695,-1.5237,-1.5237,-1.4451,-1.3234,-1.1578,0.0,0.0,0.0,0.0,0.0,0.0,0.0,0.0,0.0,0.0,0.0,0.0,0.0,0.0,0.0,0.0,0.0,0.0,0.0,0.0,0.0,0.0,-1.8632,-1.9222,-2.0862,-2.2332,-2.3216,-2.4514,-2.5263,-2.5029,-2.5996,-2.6738,-2.6982,-2.7588,-2.832,-2.9199,-2.9238,-2.959,-3.0351,-3.0325,-3.0697,-3.1513,-3.1501,-3.1802,-3.243,-3.243,-3.2439,-3.2471,-3.2713,-3.2827,-3.2846,-3.3079,-3.318,-3.3181,-3.2918,-3.2829,-3.2685,-3.1156,-3.0554,-3.0525,-3.0275,-3.0189,-3.016,-2.9929,-2.9475,-2.8973,-2.8866,-2.8454,-2.7916,-2.763,-2.7534,-2.7486,-2.7246,-2.6696,-2.6165,-2.6165,-2.5701,-2.5238,-2.5281,-2.533,-2.5388,-2.5428,-2.5457,-2.5457,-2.5457,-2.5409,-2.5361,-2.5303,-2.512,-2.4976,-2.4976,-2.4774,0.0,-2.4611,-2.4611,-2.4389,-2.3802,-2.3533,-2.287,-2.161,-2.1302,-2.0283,-1.8186,-1.783,-1.734,-1.6532,-1.6272,-1.6138,-1.6138,-1.5301,-1.4354,0.0,0.0,0.0,0.0,0.0,0.0,0.0,0.0,0.0,0.0,0.0,0.0,0.0,0.0,0.0,0.0,0.0,0.0,0.0,0.0,0.0,0.0,-1.9852,-2.1254,-2.2456,-2.3213,-2.3964,-2.4843,-2.5391,-2.584,-2.6211,-2.6699,-2.7305,-2.8027,-2.8564,-2.9228,-3.0098,-3.0137,-3.0342,-3.0771,-3.1084,-3.1467,-3.1935,-3.2276,-3.2696,-3.32,-3.32,-3.3209,-3.3255,-3.3625,-3.38,-3.3851,-3.4183,-3.435,-3.434,-3.3954,-3.38,0.0,0.0,0.0,0.0,0.0,-3.0598,-3.0598,-3.0598,-3.0288,-2.9892,-2.9815,-2.9466,-2.9023,-2.8639,-2.8494,-2.8379,-2.8073,-2.7602,-2.7112,-2.6765,-2.6332,-2.589,-2.5524,-2.547,-2.5499,-2.5499,-2.5499,-2.5499,-2.5499,-2.547,0.0,-2.5341,-2.5312,-2.5293,-2.5293,-2.5293,-2.5293,-2.5293,-2.5293,-2.512,-2.4649,-2.4302,-2.3696,-2.2677,-2.1918,0.0,0.0,0.0,-1.7869,-1.7042,-1.6994,0.0,0.0,0.0,0.0,0.0,0.0,0.0,0.0,-1.3749,-1.4072,0.0,0.0,0.0,0.0,0.0,0.0,0.0,0.0,0.0,0.0,0.0,0.0,0.0,0.0,0.0,0.0,-2.2594,-2.382,-2.5468,-2.5027,-2.4834,-2.5605,-2.5791,-2.6152,-2.6924,-2.7178,-2.793,-2.9482,-2.9687,-3.0078,-3.0859,0.0,0.0,0.0,0.0,-3.2109,-3.2305,-3.3009,-3.3419,-3.3516,-3.3516,-3.3546,-3.3624,-3.4418,-3.4789,-3.4892,-3.5596,-3.5953,-3.5941,-3.5109,-3.4739,-3.4515,-3.2654,-3.1933,-3.1836,-3.0964,-3.0628,-3.0628,-3.0628,0.0,0.0,-3.0618,-3.0612,-3.0479,-2.9751,-2.944,-2.9219,-2.8574,-2.8268,-2.7991,-2.7287,-2.695,-2.6621,-2.5838,-2.5591,-2.5521,-2.5521,-2.5521,-2.5521,-2.5521,-2.5522,-2.5494,-2.5428,-2.5361,-2.5303,-2.5293,-2.5293,-2.5293,-2.5293,-2.5303,-2.5303,-2.5293,0.0,0.0,-2.411,-2.2677,-2.1706,-2.1514,-2.0015,-1.8756,-1.7885,-1.7936,-1.7946,-1.7856,-1.7911,-1.7889,-1.7802,-1.7898,-1.7949,-1.791,-1.6382,-1.611,0.0,0.0,0.0,0.0,0.0,0.0,0.0,0.0,0.0,0.0,0.0,0.0,0.0,0.0,0.0,-2.2475,-2.3559,-2.4515,-2.5554,-2.5546,-2.5508,-2.5684,-2.6318,-2.6807,-2.6982,-2.8271,-2.9238,-2.957,-3.0254,-3.0723,-3.0889,-3.0898,-3.1221,-3.1934,-3.209,-3.2812,-3.416,-3.4334,-3.4761,-3.5455,0.0,0.0,-3.5484,-3.565,-3.5737,-3.5762,-3.5908,-3.5993,-3.5984,-3.5798,-3.532,-3.4527,-3.2809,-3.2145,-3.2037,-3.1157,-3.0835,-3.0835,-3.0835,-3.0835,-3.0816,-3.0718,-3.0684,-3.0635,-3.0428,-3.035,0.0,-3.0159,-2.9641,-2.9091,-2.8942,-2.7887,-2.6844,-2.6668,-2.6131,-2.566,-2.566,-2.566,-2.566,-2.566,-2.5616,-2.5582,-2.5562,-2.5466,-2.5361,-2.5303,-2.5293,-2.5293,-2.5293,-2.5341,-2.5361,-2.5303,-2.5216,-2.4861,-2.4158,-2.3793,-2.2995,-2.1591,-2.0591,-1.9658,-1.878,-1.9417,-1.9465,-1.8761,-1.8761,-1.8446,-1.78,-1.8512,-1.8846,-1.8826,-1.7809,-1.7793,0.0,0.0,0.0,0.0,0.0,0.0,0.0,0.0,0.0,0.0,0.0,-1.8895,-2.0167,0.0,-2.2355,-2.4034,-2.4685,-2.5294,-2.6132,-2.6253,-2.6266,-2.6298,-2.6681,-2.7274,-2.807,-2.8944,-2.9642,-3.0117,-3.0515,-3.0761,-3.0806,-3.1178,-3.1604,-3.2043,-3.2901,-3.3754,-3.4592,-3.5074,-3.5517,-3.5947,-3.5976,-3.5996,-3.5996,-3.5996,-3.5996,-3.5996,-3.5996,-3.5996,-3.5996,-3.5996,-3.5742,-3.5225,-3.3945,-3.2939,-3.209,-3.1221,-3.0898,-3.0898,-3.0898,-3.0898,-3.0889,-3.082,-3.0801,-3.079,-3.0762,-3.0703,-3.0664,-3.0735,-3.0414,-2.9968,-2.9603,-2.8556,-2.7488,-2.7045,-2.6305,-2.5703,-2.5703,-2.5703,-2.5703,-2.5703,-2.5666,-2.5639,-2.5605,-2.5546,-2.5486,-2.5409,-2.537,-2.5361,-2.5399,-2.5399,-2.5398,-2.5401,-2.5406,-2.5226,-2.4784,-2.4351,-2.3542,-2.2225,-2.1773,-2.136,-2.0925,-2.1321,-2.135,-2.0916,-2.0906,-2.0696,-2.0296,-2.0772,-2.0983,-2.094,-2.057,-2.0377,0.0,0.0,0.0,0.0,0.0,0.0,0.0,0.0,-1.8137,-1.9814,-2.0297,-2.1003,-2.2892,-2.3425,-2.399,-2.5292,-2.5692,-2.6063,-2.6704,-2.6802,-2.6881,-2.7094,-2.7261,-2.7872,-2.9169,-2.9453,-2.9866,-3.0623,-3.0633,-3.07,-3.0922,-3.1555,-3.2058,-3.2398,-3.3773,-3.4577,-3.4732,-3.5505,-3.59,-3.5898,-3.5967,-3.5996,-3.5996,-3.5996,-3.5996,-3.5996,-3.5996,-3.5996,-3.5996,-3.5996,-3.5996,-3.5908,-3.5039,-3.3867,-3.2578,-3.1709,-3.1387,-3.1387,-3.1387,-3.1387,-3.1387,-3.1387,-3.1279,-3.1152,-3.1152,-3.0957,-3.0762,-3.0869,-3.0818,-3.0599,-3.0009,-2.9209,-2.833,-2.7461,-2.6592,-2.5908,-2.5742,-2.5703,-2.5703,-2.5703,-2.5703,-2.5684,-2.5635,-2.5624,-2.5592,-2.5511,-2.5454,-2.5446,-2.5495,-2.5466,-2.5444,-2.5482,-2.5444,-2.5408,-2.538,-2.4736,-2.3975,-2.3109,-2.3043,-2.2976,-2.2802,-2.2793,-2.2811,-2.2821,-2.2821,-2.283,-2.284,-2.2897,-2.2893,-2.2848,-2.312,-2.2749,-1.3809,-1.5876,0.0,-1.8418,-1.815,-1.8843,0.0,0.0,-2.1532,-2.3213,-2.421,-2.4649,-2.4162,-2.4695,-2.5294,-2.5472,-2.6165,-2.6696,-2.6794,-2.6794,-2.7073,-2.779,-2.8557,-2.9096,-2.9286,-3.0001,-3.0495,-3.0606,-3.0603,-3.0944,-3.1715,-3.1843,-3.2618,-3.4154,-3.4408,-3.4844,-3.556,-3.5782,-3.5904,-3.5898,-3.5967,-3.5996,-3.5996,-3.5996,-3.5996,-3.5996,-3.5996,-3.5996,-3.5996,-3.5996,-3.5996,-3.5908,-3.5039,-3.459,-3.4307,-3.3437,-3.3115,-3.3115,-3.3115,-3.3115,-3.3115,-3.3115,-3.2637,-3.2051,-3.2051,-3.1504,-3.0879,-3.0898,-3.0887,-3.0855,-3.0781,-3.0107,-2.9228,-2.8359,-2.749,-2.6641,-2.5869,-2.5703,-2.5703,-2.5703,-2.5703,-2.5703,-2.5693,-2.5692,-2.5646,-2.5518,-2.5488,-2.5493,-2.5495,-2.5553,-2.5532,-2.5418,-2.5461,-2.5438,-2.5313,-2.5216,-2.4822,-2.4014,-2.3956,-2.361,-2.2822,-2.2793,-2.283,-2.2887,-2.2887,-2.2916,-2.2984,-2.2984,-2.2982,-2.3003,-2.379,-2.3646,-1.807,0.0,0.0,0.0,-2.1092,-2.2082,-2.4219,-2.4271,-2.4357,-2.6068,-2.6335,-2.6146,-2.578,-2.5596,-2.5646,0.0,-2.6497,-2.7071,-2.8014,-2.7735,-2.7735,-2.8543,-2.8956,-2.9187,-2.9187,-2.9515,-2.9948,-3.0506,-3.0983,-3.1418,-3.1821,-3.2734,-3.357,-3.4301,-3.482,-3.5262,-3.5641,-3.5738,-3.5821,-3.5902,-3.5967,-3.5996,-3.5996,-3.5996,-3.5996,-3.5996,-3.5996,-3.5996,-3.5996,-3.5996,-3.5996,-3.5957,-3.5596,-3.5459,-3.5293,-3.3906,-3.3398,-3.3398,-3.3398,-3.3398,-3.3398,-3.3398,-3.2861,-3.2197,-3.2197,-3.1592,-3.0898,-3.0898,-3.0898,-3.0898,-3.0898,-3.0254,-2.9512,-2.9141,-2.7998,-2.6904,-2.6543,-2.6064,-2.5703,-2.5703,-2.5703,-2.5703,-2.5703,-2.5703,-2.5683,-2.5621,-2.558,-2.5572,-2.561,-2.5572,-2.5515,-2.5414,-2.5427,-2.5401,-2.5303,-2.5293,-2.5168,-2.4822,-2.4803,-2.463,-2.4274,-2.4255,-2.4293,-2.4351,-2.4351,-2.4392,-2.4461,-2.449,-2.4488,-2.4472,-2.4907,-2.4878,-2.0152,0.0,0.0,-2.2259,-2.3803,-2.5215,-2.5222,-2.5713,-2.6444,-2.7476,-2.718,-2.667,-2.6439,-2.5871,-2.5717,-2.6543,-2.687,-2.7514,-2.89,-2.8409,-2.8198,-2.8996,-2.8688,-2.8582,-2.9054,-2.9313,-2.9737,-3.0429,-3.1237,-3.1823,-3.209,-3.3439,-3.4305,-3.4545,-3.5189,-3.5555,-3.5603,-3.5699,-3.5795,-3.5896,-3.5967,-3.5996,-3.5996,-3.5996,-3.5996,-3.5996,-3.5996,-3.5996,-3.5996,-3.5996,-3.5996,-3.5996,-3.5996,-3.5996,-3.585,-3.458,-3.4121,-3.4121,-3.4121,-3.4121,-3.4121,-3.4121,-3.3564,-3.2842,-3.2598,-3.1943,-3.1211,-3.0967,-3.0898,-3.0898,-3.0898,-3.043,-2.9902,-2.9658,-2.8643,-2.7588,-2.71,-2.6504,-2.5986,-2.5752,-2.5703,-2.5703,-2.5703,-2.5703,-2.5703,-2.5703,-2.5664,-2.5652,-2.5686,-2.5582,-2.5476,-2.5409,-2.538,-2.5341,-2.5293,-2.5293,-2.5293,-2.5293,-2.5293,-2.5303,-2.5322,-2.5322,-2.537,-2.5457,-2.5466,-2.549,-2.5554,-2.5601,-2.5601,-2.5564,-2.5653,-2.5671,0.0,0.0,-2.4976,-2.4224,-2.5915,-2.7784,-2.7794,-2.7813,-2.7601,-2.6813,-2.6621,-2.6351,-2.5505,-2.5312,-2.5582,-2.6467,-2.7313,-2.815,-2.8977,-2.8409,-2.8198,-2.8996,-2.7669,-2.7313,0.0,-2.9862,-3.0369,-3.0398,-3.1218,-3.2045,-3.2824,-3.3708,-3.4584,-3.544,-3.5555,-3.5603,-3.5603,-3.5795,-3.5892,-3.5896,-3.5967,-3.5996,-3.5996,-3.5996,-3.5996,-3.5996,-3.5996,-3.5996,-3.5996,-3.5996,-3.5996,-3.5996,-3.5996,-3.5996,-3.5986,-3.5937,-3.5918,-3.5918,-3.5918,-3.5918,-3.5918,-3.5918,-3.5332,-3.4473,-3.3623,-3.2803,-3.1982,-3.1143,-3.0898,-3.0898,-3.0898,-3.0879,-3.0654,-2.9805,-2.956,-2.9062,-2.7373,-2.6982,-2.6709,-2.5859,-2.5703,-2.5703,-2.5703,-2.5703,-2.5703,-2.5703,-2.5703,-2.5701,-2.5696,-2.5582,-2.5476,-2.5409,-2.5332,-2.5293,-2.5293,-2.5293,-2.5293,-2.5293,-2.5293,-2.5322,-2.539,-2.5399,-2.5466,-2.5591,-2.5591,-2.5632,-2.5693,-2.5703,-2.5703,-2.5693,-2.5703,-2.5697,0.0,0.0,-2.5514,-2.6397,-2.7274,-2.8003,-2.8415,-2.8074,-2.7724,-2.7842,-2.6977,-2.6112,-2.5827,-2.5402,-2.5523,-2.6787,-2.7503,-2.8318,-2.9528,-2.9118,-2.8794,-2.9063,-2.8592,0.0,0.0,0.0,0.0,-3.035,-3.1698,-3.2612,-3.2891,-3.4276,-3.5199,-3.5483,-3.5574,-3.562,-3.5669,-3.5816,-3.5919,-3.5973,-3.5989,-3.5996,-3.5996,-3.5996,-3.5996,-3.5996,-3.5996,-3.5996,-3.5996,-3.5996,-3.5996,-3.5996,-3.5996,-3.5996,-3.5996,-3.5996,-3.5996,-3.5996,-3.5996,-3.5996,-3.5996,-3.5996,-3.541,-3.4648,-3.4346,-3.3301,-3.2139,-3.1846,-3.1348,-3.0898,-3.0898,-3.0898,-3.083,-3.0527,-3.0019,-2.9277,-2.8105,-2.7412,-2.6738,-2.5869,-2.5703,-2.5703,-2.5703,-2.5703,-2.5684,-2.564,-2.5628,-2.5619,-2.557,-2.549,-2.5409,-2.5332,-2.5303,-2.5293,-2.5293,-2.5293,-2.5293,-2.5293,-2.5332,-2.538,-2.5399,-2.5441,-2.5507,-2.5601,-2.5601,-2.5632,-2.5703,-2.5703,-2.5703,-2.5703,-2.5703,-2.5697,0.0,-2.6054,-2.6406,-2.7736,-2.8377,-2.8731,-2.9045,-2.8493,-2.7937,-2.8017,-2.6762,-2.5532,-2.5168,-2.4585,-2.4638,-2.6099,-2.6843,-2.7746,-2.9239,-2.9195,-2.9097,-2.9394,-2.9509,0.0,0.0,0.0,0.0,-3.0379,-3.1948,-3.2901,-3.2901,-3.4555,-3.5493,-3.5493,-3.5574,-3.5631,-3.5703,-3.5828,-3.5926,-3.5996,-3.5996,-3.5996,-3.5996,-3.5996,-3.5996,-3.5996,-3.5996,-3.5996,-3.5996,-3.5996,-3.5996,-3.5996,-3.5996,-3.5996,-3.5996,-3.5996,-3.5996,-3.5996,-3.5996,-3.5996,-3.5996,-3.5996,-3.5615,-3.5107,-3.4785,-3.3945,-3.2969,-3.2373,-3.1797,-3.1289,-3.0976,-3.0898,-3.0898,-3.0898,-3.0469,-2.9834,-2.8945,-2.8076,-2.7207,-2.6328,-2.5908,-2.5703,-2.5703,-2.5678,-2.5654,-2.561,-2.5563,-2.5504,-2.5473,-2.5423,-2.537,-2.5303,-2.5293,-2.5293,-2.5293,-2.5293,-2.5303,-2.5322,-2.538,-2.5418,-2.5476,-2.5509,-2.557,-2.5625,-2.5641,-2.5657,-2.5703,-2.5703,-2.5703,-2.5703,-2.5703,-2.5703,-2.5084,-2.6329,-2.769,-2.8312,-2.9238,-2.992,-2.9682,-2.8997,-2.8155,-2.7188,-2.5844,-2.454,0.0,0.0,-2.3046,-2.4478,-2.547,-2.6626,-2.8249,-2.8706,-2.9165,0.0,0.0,0.0,0.0,0.0,0.0,-3.0581,0.0,-3.292,-3.2958,-3.4584,-3.5493,-3.5493,-3.5574,-3.563,-3.5699,-3.5843,-3.5937,-3.5996,-3.5995,-3.5995,-3.5995,-3.5985,-3.5986,-3.5986,-3.5986,-3.5996,-3.5996,-3.5996,-3.5996,-3.5996,-3.5996,-3.5996,-3.5996,-3.5996,-3.5996,-3.5996,-3.5996,-3.5996,-3.5996,-3.5996,-3.5996,-3.585,-3.5019,-3.4736,-3.4355,-3.2725,-3.2226,-3.2002,-3.1133,-3.0898,-3.0898,-3.0898,-3.0898,-3.0664,-2.9785,-2.8916,-2.8037,-2.7168,-2.6299,-2.5703,-2.5703,-2.5638,-2.5601,-2.5601,-2.5486,-2.5399,-2.5399,-2.5399,-2.537,-2.5303,-2.5293,-2.5293,-2.5293,-2.5293,-2.5322,-2.5399,-2.5409,-2.5476,-2.5591,-2.5601,-2.5645,-2.5703,-2.5703,-2.5703,-2.5703,-2.5703,-2.5703,-2.5703,-2.5703,-2.5703,-2.7028,-2.7847,-2.8366,-2.9176,-2.9568,-2.9542,-2.8708,-2.8001,-2.6892,-2.4601,-2.3496,-2.2454,0.0,0.0,0.0,-2.3397,-2.5411,0.0,-2.809,-2.9067,0.0,0.0,0.0,-3.1689,-3.2506,-3.2593,0.0,0.0,-3.266,-3.3179,-3.3824,-3.4911,-3.5493,-3.5493,-3.5574,-3.5634,-3.5703,-3.5882,-3.5976,-3.5996,-3.5949,-3.592,-3.5921,-3.5817,-3.5828,-3.5928,-3.5928,-3.5947,-3.5996,-3.5996,-3.5996,-3.5996,-3.5996,-3.5996,-3.5996,-3.5996,-3.5996,-3.5996,-3.5996,-3.5996,-3.5996,-3.5996,-3.5996,-3.5957,-3.5742,-3.5225,-3.4482,-3.3398,-3.2656,-3.2002,-3.1133,-3.0898,-3.0898,-3.0898,-3.0898,-3.0664,-2.9785,-2.8916,-2.8037,-2.7168,-2.6299,-2.5703,-2.5703,-2.5638,-2.5582,-2.5534,-2.5457,-2.5399,-2.5399,-2.5361,-2.5312,-2.5293,-2.5293,-2.5293,-2.5293,-2.5341,-2.538,-2.5399,-2.5495,-2.5563,-2.5601,-2.5644,-2.5681,-2.5703,-2.5703,-2.5703,-2.5703,-2.5703,-2.5703,-2.5703,-2.5703,-2.5703,-2.7772,-2.8558,-2.8933,-2.9295,-2.9195,-2.8718,-2.7685,-2.6368,-2.4836,-2.2954,-2.1507,0.0,0.0,0.0,0.0,0.0,0.0,0.0,-2.7293,-2.8534,-2.9655,0.0,-3.1565,0.0,-3.2862,-3.3247,-3.3631,0.0,-3.3689,-3.368,-3.416,-3.5036,-3.5493,-3.5493,-3.5545,-3.5592,-3.5695,-3.59,-3.5993,-3.5953,-3.5925,-3.5863,-3.5819,-3.5733,-3.5742,-3.5819,0.0,-3.5918,-3.5957,-3.5986,-3.5996,-3.5996,-3.5996,-3.5996,-3.5996,-3.5996,-3.5996,-3.5996,-3.5996,-3.5996,-3.5996,-3.5996,-3.5996,-3.5996,-3.5996,-3.5664,-3.501,-3.375,-3.3066,-3.2441,-3.1221,-3.0898,-3.0898,-3.0898,-3.0898,-3.0771,-3.0283,-2.9189,-2.793,-2.667,-2.6025,-2.5703,-2.5703,-2.5636,-2.558,-2.5505,-2.5438,-2.539,-2.5361,-2.5312,-2.5293,-2.5293,-2.5293,-2.5303,-2.5332,-2.538,-2.5428,-2.5486,-2.5563,-2.5615,-2.5642,-2.5678,-2.5703,-2.5703,-2.5703,-2.5703,-2.5703,-2.5703,-2.5703,-2.5703,-2.5703,-2.5703,-2.7924,-2.8764,-2.9289,-2.9053,-2.8483,-2.771,-2.6643,-2.4629,-2.2647,-2.1472,0.0,0.0,-1.7791,0.0,-1.9716,-2.0286,0.0,-2.4789,-2.6383,-2.7717,-2.8867,-2.977,-3.1656,-3.2949,-3.3054,-3.3853,-3.4689,-3.5449,-3.4805,-3.4362,-3.4362,-3.5093,-3.5493,-3.5493,-3.5516,-3.5572,-3.5689,-3.5874,-3.5924,-3.5875,-3.5861,-3.5795,-3.569,-3.568,-3.568,-3.5688,-3.5816,-3.5875,-3.5908,-3.5967,-3.5996,-3.5996,-3.5996,-3.5996,-3.5996,-3.5996,-3.5996,-3.5996,-3.5996,-3.5996,-3.5996,-3.5996,-3.5996,-3.5996,-3.5996,-3.5918,-3.5488,-3.3857,-3.332,-3.2881,-3.1309,-3.0898,-3.0898,-3.0898,-3.0898,-3.0898,-3.0898,-2.9531,-2.7822,-2.6191,-2.5781,-2.5703,-2.5703,-2.5644,-2.5578,-2.5516,-2.5438,-2.538,-2.5303,-2.5293,-2.5293,-2.5293,-2.5293,-2.5322,-2.539,-2.5409,-2.5476,-2.5582,-2.5609,-2.5634,-2.5703,-2.5703,-2.5703,-2.5703,-2.5703,-2.5703,-2.5703,-2.5703,-2.5703,-2.5703,-2.5703,-2.5703,-2.8437,-2.8956,-2.9053,-2.9007,-2.8223,-2.7054,-2.5601,-2.4007,0.0,0.0,0.0,-1.7109,-1.4976,-1.6837,0.0,-1.9569,0.0,0.0,0.0,0.0,-2.9253,0.0,0.0,0.0,0.0,0.0,0.0,0.0,0.0,-3.5276,-3.5276,-3.543,-3.5493,-3.5493,-3.5555,-3.5594,-3.5619,-3.571,-3.5752,-3.5729,-3.5674,-3.5641,-3.5622,-3.5565,-3.5565,-3.5613,-3.5703,0.0,-3.5908,-3.5967,-3.5996,-3.5996,-3.5996,-3.5996,-3.5996,-3.5996,-3.5996,-3.5996,-3.5996,-3.5996,-3.5996,-3.5996,-3.5996,-3.5996,-3.5996,-3.5498,-3.4707,-3.3691,-3.292,-3.2178,-3.1162,-3.0898,-3.0898,-3.0898,-3.0898,-3.0898,-3.0898,-2.9531,-2.7998,-2.6973,-2.6191,-2.5703,-2.5703,-2.5644,-2.5579,-2.5508,-2.5437,-2.538,-2.5303,-2.5293,-2.5293,-2.5293,-2.5293,-2.5322,-2.539,-2.5444,-2.5521,-2.5601,-2.5649,-2.5687,-2.5703,-2.5703,-2.5703,-2.5703,-2.5703,-2.5703,-2.5703,-2.5703,-2.5703,-2.5703,-2.5703,-2.5703,-2.8053,-2.8686,-2.886,-2.8254,-2.751,-2.6258,-2.3657,0.0,0.0,0.0,0.0,-1.4636,-1.3799,0.0,0.0,0.0,0.0,0.0,0.0,0.0,0.0,0.0,0.0,0.0,0.0,0.0,0.0,0.0,0.0,-3.5493,-3.5493,-3.5493,-3.5493,-3.5493,-3.5574,-3.5599,-3.5601,-3.5666,-3.5678,-3.5649,-3.5624,-3.5584,-3.5555,-3.5555,-3.5555,-3.5565,-3.5728,-3.5795,-3.5806,-3.5944,-3.5996,-3.5996,-3.5996,-3.5996,-3.5996,-3.5996,-3.5996,-3.5996,-3.5996,-3.5996,-3.5996,-3.5996,-3.5996,-3.5918,-3.5459,-3.5029,-3.4434,-3.3144,-3.25,-3.2002,-3.1133,-3.0898,-3.0898,-3.0898,-3.0898,-3.0781,-3.0322,-2.9209,-2.8037,-2.7168,-2.6299,-2.5703,-2.5703,-2.5674,-2.562,-2.5521,-2.547,-2.5418,-2.5303,-2.5293,-2.5293,-2.5293,-2.5293,-2.5332,-2.5438,-2.5479,-2.5542,-2.5649,-2.5681,-2.5703,-2.5703,-2.5703,-2.5703,-2.5703,-2.5703,-2.5703,-2.5703,-2.5703,-2.5703,-2.5703,-2.5703,-2.5703,-2.753,-2.8264,-2.8507,-2.7547,-2.6826,-2.5472,-2.2001,-1.9497,0.0,0.0,0.0,-1.2578,-1.3182,0.0,0.0,0.0,0.0,0.0,0.0,0.0,0.0,0.0,0.0,0.0,0.0,0.0,0.0,0.0,0.0,0.0,-3.5493,-3.5493,-3.5493,-3.5493,-3.5555,-3.5584,-3.5584,-3.5632,-3.5632,-3.5584,-3.5584,-3.5555,-3.5493,-3.5555,-3.5555,-3.5516,-3.5738,-3.5778,-3.5687,-3.5861,-3.5942,-3.5942,-3.5942,-3.5945,-3.5976,-3.5976,-3.5986,-3.5996,-3.5996,-3.5996,-3.5996,-3.5996,-3.5996,-3.584,-3.4961,-3.457,-3.4111,-3.2617,-3.207,-3.1758,-3.1084,-3.0898,-3.0898,-3.0898,-3.0898,-3.0713,-3.0029,-2.9189,-2.832,-2.7451,-2.6572,-2.5918,-2.5732,-2.5703,-2.5649,-2.5521,-2.5499,-2.5457,-2.5312,-2.5293,-2.5293,-2.5293,-2.5293,-2.5341,-2.5495,-2.5499,-2.5558,-2.5693,-2.5703,-2.5703,-2.5703,-2.5703,-2.5703,-2.5703,-2.5703,-2.5703,-2.5703,-2.5703,-2.5703,-2.5703,-2.5703,-2.5703,-2.7374,-2.7842,-2.7803,-2.7402,-2.6485,-2.4851,-2.1652,0.0,0.0,0.0,-1.2796,-1.2435,-1.2575,0.0,0.0,0.0,0.0,0.0,0.0,0.0,0.0,0.0,0.0,0.0,0.0,0.0,0.0,0.0,0.0,0.0,-3.5493,-3.5493,-3.5493,-3.5493,-3.5516,-3.5516,-3.5516,-3.5526,-3.5526,-3.5516,-3.5516,-3.5516,-3.5493,-3.5516,-3.5516,-3.5493,-3.5593,-3.5616,0.0,-3.5687,-3.5729,-3.5729,-3.5729,-3.5802,-3.5908,-3.5908,-3.5947,-3.5996,-3.5996,-3.5996,-3.5996,-3.5996,-3.5996,-3.584,-3.4961,-3.415,-3.334,-3.2451,-3.1631,-3.0996,-3.0918,-3.0898,-3.0898,-3.0898,-3.0898,-3.0879,-3.0801,-3.0098,-2.9219,-2.835,-2.748,-2.6631,-2.584,-2.5703,-2.5649,-2.5521,-2.5499,-2.5457,-2.5312,-2.5293,-2.5293,-2.5293,-2.5293,-2.5341,-2.5495,-2.5499,-2.5558,-2.5693,-2.5703,-2.5703,-2.5703,-2.5703,-2.5703,-2.5703,-2.5703,-2.5703,-2.5703,-2.5703,-2.5703,-2.5703,-2.5703,-2.5703,-2.6064,-2.6704,-2.6825,-2.5802,-2.5028,-2.3607,-2.0174,0.0,0.0,-1.2984,-1.1643,-1.12,-1.2201,-1.2488,0.0,0.0,0.0,0.0,0.0,0.0,0.0,0.0,0.0,0.0,0.0,0.0,0.0,0.0,0.0,0.0,-3.5493,-3.5493,-3.5493,-3.5493,-3.5493,-3.5493,-3.5493,-3.5493,-3.5493,-3.5493,-3.5493,-3.5493,-3.5493,-3.5545,-3.5545,-3.5516,-3.5613,-3.5647,0.0,-3.5662,-3.5704,-3.5704,-3.5704,-3.5728,-3.5786,-3.5783,-3.58,-3.5828,-3.5905,-3.5937,-3.5947,-3.5986,-3.5654,-3.5049,-3.418,-3.3682,-3.3115,-3.1787,-3.1172,-3.0898,-3.0898,-3.0898,-3.0898,-3.0898,-3.0898,-3.0898,-3.0898,-3.0225,-2.9336,-2.8467,-2.7598,-2.6719,-2.585,-2.5703,-2.5649,-2.5521,-2.5499,-2.5457,-2.5312,-2.5293,-2.5293,-2.5293,-2.5293,-2.5341,-2.5495,-2.5499,-2.5558,-2.5693,-2.5703,-2.5703,-2.5703,-2.5703,-2.5703,-2.5703,-2.5703,-2.5703,-2.5703,-2.5703,-2.5703,-2.5703,-2.5703,-2.5703,-2.4749,-2.5621,-2.5975,-2.484,-2.4168,-2.2862,0.0,0.0,-1.4679,-1.2612,-1.0964,-1.0336,-1.1742,-1.1699,-1.2399,0.0,0.0,0.0,0.0,0.0,0.0,0.0,0.0,0.0,0.0,0.0,0.0,0.0,0.0,0.0,-3.5493,-3.5493,-3.5493,-3.5493,-3.5493,-3.5493,-3.5493,-3.5493,-3.5493,-3.5493,-3.5493,-3.5493,-3.5493,-3.5555,-3.5545,-3.5516,-3.5603,-3.5613,0.0,-3.5622,-3.5641,-3.5641,-3.5641,-3.5651,-3.5669,-3.5669,-3.5677,-3.5713,-3.5812,-3.5838,-3.5808,-3.5615,-3.5153,-3.4463,-3.333,-3.3008,-3.2754,-3.1299,-3.0898,-3.0898,-3.0898,-3.0898,-3.0898,-3.0898,-3.0898,-3.0898,-3.0898,-3.042,-2.9648,-2.8516,-2.7803,-2.7031,-2.5889,-2.5683,-2.5629,-2.5517,-2.548,-2.5428,-2.5303,-2.5293,-2.5293,-2.5293,-2.5312,-2.538,-2.5495,-2.5499,-2.5558,-2.5693,-2.5703,-2.5703,-2.5703,-2.5703,-2.5703,-2.5703,-2.5703,-2.5703,-2.5703,-2.5703,-2.5703,-2.5703,-2.5703,-2.5703,-2.3777,-2.4795,-2.5322,-2.4968,-2.4288,-2.2876,0.0,-1.7025,-1.4674,-1.2781,-1.1068,-1.0192,-1.1141,-1.185,-1.2895,-1.4706,0.0,0.0,0.0,0.0,0.0,0.0,0.0,0.0,0.0,0.0,0.0,0.0,0.0,0.0,-3.5493,-3.5493,-3.5493,-3.5493,-3.5493,-3.5493,-3.5493,-3.5493,-3.5493,-3.5493,-3.5493,-3.5493,-3.5493,-3.5493,-3.5493,-3.5493,-3.5493,-3.5493,0.0,-3.5493,-3.5493,-3.5493,-3.5493,-3.5545,-3.5603,-3.5603,-3.5641,-3.5699,-3.5703,-3.5696,-3.5574,-3.4775,-3.455,-3.4277,-3.2539,-3.2109,-3.2031,-3.1152,-3.0898,-3.0898,-3.0898,-3.0898,-3.0898,-3.0898,-3.0898,-3.0898,-3.0898,-3.0889,-3.0371,-2.8643,-2.8291,-2.7744,-2.5996,-2.5643,-2.5578,-2.5512,-2.5441,-2.538,-2.5303,-2.5293,-2.5293,-2.5293,-2.5361,-2.5428,-2.5495,-2.5499,-2.5558,-2.5693,-2.5703,-2.5703,-2.5703,-2.5703,-2.5703,-2.5703,-2.5703,-2.5703,-2.5703,-2.5703,-2.5703,-2.5703,-2.5703,-2.5703,-1.9893,-2.0359,-2.0314,-1.9334,-1.9008,-1.8345,-1.6153,-1.471,-1.3389,-1.1832,-1.069,-1.0238,-1.1142,-1.0986,-1.1857,-1.5331,-1.5468,0.0,0.0,0.0,0.0,0.0,0.0,0.0,0.0,0.0,0.0,0.0,0.0,0.0,-3.5493,-3.4939,-3.4612,-3.4612,-3.4612,-3.4334,-3.3728,-3.3718,-3.3718,-3.3728,-3.4334,-3.4612,-3.4632,-3.5238,-3.5493,-3.5493,-3.5493,-3.5493,-3.5493,-3.5493,-3.5493,-3.5493,-3.5493,-3.5516,-3.5536,-3.5536,-3.5555,-3.5488,-3.493,-3.4738,-3.4628,-3.3855,-3.3219,-3.2652,-3.2099,-3.2055,-3.2021,-3.1152,-3.0898,-3.0898,-3.0898,-3.0898,-3.0898,-3.0898,-3.0898,-3.0898,-3.0898,-3.043,-2.9668,-2.8516,-2.7822,-2.7033,-2.5844,-2.5605,-2.5563,-2.5451,-2.5408,-2.538,-2.5303,-2.5293,-2.5293,-2.5293,-2.5312,-2.538,-2.5495,-2.5541,-2.5611,-2.5693,-2.5703,-2.5703,-2.5703,-2.5703,-2.5703,-2.5703,-2.5703,-2.5703,-2.5703,-2.5703,-2.5703,-2.5703,-2.5703,-2.5703,0.0,-1.7628,-1.769,-1.6899,-1.6556,-1.6057,-1.471,-1.3603,-1.2536,-1.138,-1.051,-1.0128,-1.0671,-1.0796,-1.1718,-1.4423,-1.5097,0.0,0.0,0.0,0.0,0.0,0.0,0.0,0.0,0.0,0.0,0.0,0.0,0.0,-3.4526,-3.3997,-3.3564,-3.3266,-3.3545,-3.3449,-3.291,-3.2901,-3.2901,-3.291,-3.3449,-3.3872,-3.4218,-3.4757,-3.5189,-3.5493,-3.5493,-3.5493,0.0,-3.5493,-3.5493,-3.5493,-3.5493,-3.5305,-3.5055,-3.5382,-3.5084,-3.4497,-3.4314,-3.4045,-3.3641,-3.2872,-3.2057,-3.1382,-3.1427,-3.1529,-3.1533,-3.1035,-3.0898,-3.0898,-3.0898,-3.0898,-3.0898,-3.0898,-3.0898,-3.0898,-3.0898,-3.0469,-2.9736,-2.8525,-2.7861,-2.7093,-2.5819,-2.5582,-2.5534,-2.5418,-2.538,-2.5341,-2.5303,-2.5293,-2.5293,-2.5293,-2.5312,-2.538,-2.5495,-2.554,-2.5603,-2.5693,-2.5703,-2.5703,-2.5703,-2.5703,-2.5703,-2.5703,-2.5703,-2.5703,-2.5703,-2.5703,-2.5703,-2.5703,-2.5703,-2.5703,0.0,-1.6112,-1.6756,-1.6698,-1.612,-1.5394,-1.4712,-1.3346,0.0,-1.1286,-1.0479,-0.9967,-1.0152,-1.1248,-1.2325,-1.2947,-1.4764,0.0,0.0,0.0,0.0,0.0,0.0,0.0,0.0,0.0,0.0,0.0,0.0,0.0,-3.2901,-3.2852,-3.2468,-3.1718,-3.2362,-3.2718,-3.2718,-3.2718,-3.2718,-3.2718,-3.2776,-3.3237,-3.4016,-3.4074,-3.4545,0.0,-3.5324,-3.5324,-3.5324,-3.5324,-3.5324,-3.5324,-3.5324,-3.4824,-3.4209,-3.5026,-3.4295,-3.3006,-3.3757,-3.3487,-3.2679,-3.1872,-3.1102,-3.0525,-3.065,-3.0694,-3.0732,-3.0859,-3.0898,-3.0898,-3.0898,-3.0898,-3.0898,-3.0898,-3.0898,-3.0898,-3.0898,-3.085,-3.0312,-2.8633,-2.8252,-2.7651,-2.5893,-2.5534,-2.5486,-2.5399,-2.5332,-2.5293,-2.5293,-2.5293,-2.5293,-2.5293,-2.5361,-2.5428,-2.5495,-2.5496,-2.5564,-2.5693,-2.5703,-2.5703,-2.5703,-2.5703,-2.5703,-2.5703,-2.5703,-2.5703,-2.5703,-2.5703,-2.5703,-2.5703,-2.5703,-2.5703,-1.1349,0.0,-1.2513,-1.179,-1.1992,-1.2164,0.0,-1.139,-1.1374,0.0,0.0,0.0,0.0,-1.2123,-1.2987,0.0,0.0,0.0,0.0,0.0,0.0,0.0,0.0,0.0,0.0,0.0,0.0,0.0,0.0,-3.2901,-3.2901,-3.2324,-3.19,-3.1708,-3.1246,-3.0996,-3.0996,-3.0996,-3.0996,-3.1006,-3.166,-3.2093,-3.2314,-3.292,-3.3324,-3.3516,-3.3516,-3.3516,-3.3516,-3.3516,-3.3516,-3.3516,-3.3516,-3.3391,-3.3228,-3.3439,-3.3247,-3.2843,-3.2429,-3.215,-3.1843,-3.0987,-3.0583,-3.0458,-3.0583,-3.0656,-3.0732,-3.0859,-3.0898,-3.0898,-3.0898,-3.0898,-3.0898,-3.0898,-3.0898,-3.0898,-3.0898,-3.0381,-2.959,-2.8506,-2.7764,-2.6927,-2.5726,-2.5514,-2.5466,-2.5332,-2.5303,-2.5293,-2.5293,-2.5293,-2.5293,-2.5293,-2.5361,-2.5428,-2.5495,-2.5551,-2.5612,-2.5693,-2.5703,-2.5703,-2.5703,-2.5703,-2.5703,-2.5703,-2.5703,-2.5703,-2.5703,-2.5703,-2.5703,-2.5703,-2.5703,-2.5703,-1.0209,-1.1053,-1.1819,-1.1306,-1.157,-1.182,-1.135,0.0,0.0,0.0,0.0,0.0,0.0,0.0,0.0,0.0,0.0,0.0,0.0,0.0,0.0,0.0,0.0,0.0,0.0,0.0,0.0,0.0,0.0,-3.1756,-3.1756,-3.1343,-3.1102,-3.1102,-3.066,-3.0398,-3.0398,-3.0398,-3.0398,-3.0408,-3.0881,-3.1314,-3.1708,-3.215,-3.2554,-3.2901,-3.2901,-3.2901,-3.2901,-3.2901,-3.2901,-3.2901,-3.2901,-3.267,-3.2391,-3.2756,-3.241,-3.1756,-3.1708,-3.1439,-3.1035,-3.0542,-3.0398,-3.0417,-3.0525,-3.0587,-3.0651,-3.0838,-3.0859,-3.082,-3.0879,-3.0898,-3.0898,-3.0898,-3.0898,-3.0898,-3.0898,-3.0527,-2.9824,-2.8555,-2.792,-2.7157,-2.5779,-2.5554,-2.5505,-2.537,-2.5341,-2.5322,-2.5293,-2.5293,-2.5303,-2.5332,-2.538,-2.5438,-2.5543,-2.5573,-2.5632,-2.5703,-2.5703,-2.5703,-2.5703,-2.5703,-2.5703,-2.5703,-2.5703,-2.5703,-2.5703,-2.5703,-2.5703,-2.5703,-2.5703,-2.5703,-1.0527,-1.1811,-1.2992,-1.2592,-1.2684,-1.2834,-1.267,0.0,0.0,0.0,0.0,0.0,0.0,0.0,0.0,0.0,0.0,0.0,0.0,0.0,0.0,0.0,0.0,0.0,0.0,0.0,0.0,0.0,0.0,-3.0398,-3.0398,-3.0398,-3.0398,-3.0398,-3.0355,-3.0333,-3.0333,-3.0333,-3.0333,-3.0333,-3.0308,-3.0705,-3.144,-3.144,-3.1827,-3.2526,0.0,0.0,-3.2526,-3.2526,-3.2526,-3.2526,-3.2526,-3.2102,-3.1583,-3.2275,-3.1621,-3.0504,-3.1256,-3.1025,-3.0398,-3.0398,-3.0398,-3.0408,-3.0487,-3.049,-3.0535,-3.0778,-3.0765,-3.0711,-3.084,-3.0869,-3.0869,-3.0898,-3.0898,-3.0898,-3.0898,-3.0898,-3.0381,-2.8643,-2.8301,-2.7734,-2.5908,-2.5595,-2.5557,-2.5427,-2.5418,-2.539,-2.5312,-2.5312,-2.5341,-2.5399,-2.5418,-2.5486,-2.5591,-2.5611,-2.564,-2.5703,-2.5703,-2.5703,-2.5703,-2.5703,-2.5703,-2.5703,-2.5703,-2.5703,-2.5703,-2.5703,-2.5703,-2.5703,-2.5703,-2.5703,-1.1931,-1.3537,-1.4281,-1.2069,-1.2582,-1.3411,0.0,0.0,0.0,0.0,0.0,0.0,0.0,0.0,0.0,0.0,0.0,0.0,0.0,0.0,0.0,0.0,0.0,0.0,0.0,0.0,0.0,0.0,0.0,-3.0398,-3.0398,-3.0398,-3.0398,-3.0398,-3.0173,-3.0052,-3.0052,-3.0052,-3.0052,-3.0052,-2.9886,-2.9978,-3.0266,-3.0266,-3.0454,-3.0785,0.0,-3.0785,-3.0785,-3.0785,-3.0785,-3.0785,-3.0785,-3.0717,-3.06,-3.0746,-3.0609,-3.0417,-3.0542,-3.0504,-3.0398,-3.0398,-3.0398,-3.0408,-3.0487,-3.045,-3.0457,-3.0607,-3.0632,-3.0632,-3.071,-3.0732,-3.0762,-3.0869,-3.0898,-3.0898,-3.0898,-3.0898,-3.0381,-2.8643,-2.8301,-2.7734,-2.5908,-2.5602,-2.5571,-2.5498,-2.5484,-2.5466,-2.539,-2.5428,-2.5457,-2.5399,-2.5505,-2.5582,-2.5601,-2.5649,-2.5689,-2.5703,-2.5703,-2.5703,-2.5703,-2.5703,-2.5703,-2.5703,-2.5703,-2.5703,-2.5703,-2.5703,-2.5703,-2.5703,-2.5703,-2.5703,-1.1138,-1.257,-1.3631,-1.2715,-1.4158,-1.5771,0.0,0.0,0.0,0.0,0.0,0.0,0.0,0.0,0.0,0.0,0.0,0.0,0.0,0.0,0.0,0.0,0.0,0.0,0.0,0.0,0.0,0.0,0.0,0.0,-3.0186,-3.0186,-3.0122,-3.0032,-2.9902,-2.9845,-2.9845,-2.9721,-2.9721,-2.9829,-2.9738,-2.9806,-2.9999,-2.9999,-3.015,-3.0398,0.0,-3.0398,-3.0398,-3.0398,-3.0398,-3.0398,-3.0398,-3.0398,-3.0398,-3.0398,-3.0398,-3.0398,-3.0398,-3.0398,-3.0398,-3.0398,-3.0398,-3.0408,-3.0448,-3.0417,-3.0408,-3.0477,-3.0518,-3.0565,-3.0629,-3.0668,-3.0723,-3.0781,-3.085,-3.0898,-3.0898,-3.0527,-2.9824,-2.8555,-2.792,-2.7178,-2.5879,-2.5654,-2.5634,-2.5561,-2.5554,-2.5527,-2.5456,-2.5482,-2.5505,-2.5515,-2.5563,-2.5614,-2.5649,-2.5678,-2.5701,-2.5703,-2.5703,-2.5703,-2.5703,-2.5703,-2.5703,-2.5703,-2.5703,-2.5703,-2.5703,-2.5703,-2.5703,-2.5703,-2.5703,-2.5703,-1.0666,-1.1705,-1.2838,-1.3625,0.0,0.0,0.0,0.0,0.0,0.0,0.0,0.0,0.0,0.0,0.0,0.0,0.0,0.0,0.0,0.0,0.0,0.0,0.0,0.0,0.0,0.0,0.0,0.0,0.0,0.0,-2.9939,-2.9939,-2.9861,-2.9704,-2.9643,-2.9634,-2.9634,-2.9405,-2.9425,-2.9634,-2.9579,-2.9651,-2.9861,-2.9908,-3.0071,-3.0311,-3.0367,-3.0398,-3.0398,-3.0398,-3.0398,-3.0398,-3.0398,-3.0398,-3.0398,-3.0398,-3.0398,-3.0398,-3.0398,-3.0398,-3.0398,-3.0398,-3.0398,-3.0398,-3.0398,-3.0398,-3.0398,-3.0398,-3.0448,-3.0496,-3.0564,-3.0627,-3.0675,-3.0702,-3.0801,-3.0898,-3.0898,-3.0381,-2.959,-2.8506,-2.7764,-2.6963,-2.5889,-2.5703,-2.5684,-2.5635,-2.5615,-2.5602,-2.5528,-2.5539,-2.5563,-2.5601,-2.5605,-2.5638,-2.5702,-2.5703,-2.5703,-2.5703,-2.5703,-2.5703,-2.5703,-2.5703,-2.5703,-2.5703,-2.5703,-2.5703,-2.5703,-2.5703,-2.5703,-2.5703,-2.5703,-2.5703,-1.2084,-1.2525,-1.2884,-1.4419,0.0,0.0,-1.766,0.0,0.0,0.0,0.0,0.0,0.0,0.0,0.0,0.0,0.0,0.0,0.0,0.0,0.0,0.0,0.0,0.0,0.0,0.0,0.0,0.0,0.0,-2.9738,-2.9721,-2.9721,-2.9704,-2.9696,-2.9513,-2.9423,-2.9423,-2.9169,-2.9169,-2.9423,-2.9169,-2.9181,-2.9454,-2.9634,-2.9829,-3.0037,-3.0289,-3.0398,-3.0398,-3.0398,-3.0398,-3.0398,-3.0398,-3.0398,-3.0398,-3.0398,-3.0398,-3.0398,-3.0398,-3.0398,-3.0398,-3.0398,-3.0398,-3.0398,-3.0398,-3.0398,-3.0398,-3.0398,-3.0398,-3.0417,-3.0496,-3.056,-3.0616,-3.0693,-3.0801,-3.0898,-3.0898,-3.085,-3.0312,-2.8633,-2.8252,-2.7666,-2.5986,-2.5703,-2.5703,-2.5693,-2.5693,-2.5674,-2.5595,-2.565,-2.5659,-2.5611,-2.5663,-2.5692,-2.5703,-2.5703,-2.5703,-2.5703,-2.5703,-2.5703,-2.5703,-2.5703,-2.5703,-2.5703,-2.5703,-2.5703,-2.5703,-2.5703,-2.5703,-2.5703,-2.5703,-2.5703,-1.0888,-1.175,-1.2808,-1.438,0.0,0.0,0.0,0.0,0.0,0.0,0.0,0.0,0.0,0.0,0.0,0.0,0.0,0.0,0.0,0.0,0.0,0.0,0.0,0.0,0.0,0.0,0.0,0.0,0.0,-2.8653,-2.7987,-2.8427,-2.8642,-2.8522,-2.8935,-2.9147,-2.9147,-2.9053,-2.9053,-2.9147,-2.9053,-2.9147,-2.9412,-2.9607,-2.9813,-3.0013,-3.0289,-3.0398,-3.0398,-3.0398,-3.0398,-3.0398,-3.0398,-3.0398,-3.0398,-3.0398,-3.0398,-3.0398,-3.0398,-3.0398,-3.0398,-3.0398,-3.0398,-3.0398,-3.0398,-3.0398,-3.0398,-3.0398,-3.0398,-3.0408,-3.0427,-3.0525,-3.0606,-3.0628,-3.0771,-3.0898,-3.0898,-3.0049,-2.9092,-2.8428,-2.7422,-2.6475,-2.581,-2.5703,-2.5703,-2.5703,-2.5703,-2.5693,-2.5674,-2.5683,-2.5687,-2.5658,-2.5684,-2.5703,-2.5703,-2.5703,-2.5703,-2.5703,-2.5703,-2.5703,-2.5703,-2.5703,-2.5703,-2.5703,-2.5703,-2.5703,-2.5703,-2.5703,-2.5703,-2.5703,-2.5703,-2.5703,-1.0392,-1.12,0.0,0.0,0.0,0.0,0.0,0.0,0.0,0.0,0.0,0.0,0.0,0.0,0.0,0.0,0.0,0.0,0.0,0.0,0.0,0.0,0.0,0.0,0.0,0.0,0.0,0.0,-2.7584,-2.7587,-2.6841,-2.7322,-2.7557,-2.742,-2.797,-2.8352,-2.8631,-2.8631,-2.8737,-2.8994,-2.8994,-2.9098,-2.9289,-2.9504,-2.9713,-2.9924,-3.0169,-3.0311,-3.0398,-3.0398,-3.0398,-3.0398,-3.0398,-3.0398,-3.0398,-3.0398,-3.0398,-3.0398,-3.0398,-3.0398,-3.0398,-3.0398,-3.0398,-3.0398,-3.0398,-3.0398,-3.0398,-3.0398,-3.0398,-3.0398,-3.0398,-3.0506,-3.0604,-3.06,-3.0537,-3.0488,-3.0488,-2.9336,-2.8223,-2.7939,-2.6934,-2.6016,-2.5752,-2.5703,-2.5703,-2.5703,-2.5703,-2.5703,-2.5703,-2.5703,-2.5703,-2.5703,-2.5703,-2.5703,-2.5703,-2.5703,-2.5703,-2.5703,-2.5703,-2.5703,-2.5703,-2.5703,-2.5703,-2.5703,-2.5703,-2.5703,-2.5703,-2.5703,-2.5703,-2.5703,-2.5703,-2.5703,-1.1026,0.0,0.0,0.0,0.0,0.0,0.0,0.0,0.0,0.0,0.0,0.0,0.0,0.0,0.0,0.0,0.0,0.0,0.0,0.0,0.0,0.0,0.0,0.0,0.0,0.0,0.0,-2.6585,-2.6585,-2.6594,-2.6585,-2.6585,-2.6594,-2.6594,-2.6603,-2.6979,-2.7769,-2.7787,-2.8191,-2.8966,-2.8966,-2.8975,-2.9017,-2.9267,-2.9513,-2.9704,-2.9899,-3.015,-3.0398,-3.0398,-3.0398,-3.0398,-3.0398,-3.0398,-3.0398,-3.0398,-3.0398,-3.0398,-3.0398,-3.0398,-3.0398,-3.0398,-3.0398,-3.0398,-3.0398,-3.0398,-3.0398,-3.0398,-3.0398,-3.0398,-3.0398,-3.0506,-3.0604,-3.06,-3.0088,-2.96,-2.96,-2.8906,-2.8027,-2.7168,-2.6992,-2.6709,-2.585,-2.5703,-2.5703,-2.5703,-2.5703,-2.5703,-2.5703,-2.5703,-2.5703,-2.5703,-2.5703,-2.5703,-2.5703,-2.5703,-2.5703,-2.5703,-2.5703,-2.5703,-2.5703,-2.5703,-2.5703,-2.5703,-2.5703,-2.5703,-2.5703,-2.5703,-2.5703,-2.5703,-2.5703,-2.5703,-1.0233,0.0,0.0,0.0,0.0,0.0,0.0,0.0,0.0,0.0,0.0,0.0,0.0,0.0,0.0,0.0,0.0,0.0,0.0,0.0,0.0,0.0,0.0,0.0,0.0,0.0,-2.5511,-2.4951,-2.5438,-2.5502,-2.4942,-2.5447,-2.575,-2.575,-2.63,-2.6713,-2.6952,-2.6961,-2.708,-2.7319,-2.7319,-2.7893,-2.9017,-2.9267,-2.9513,-2.9704,-2.9899,-3.015,-3.0398,-3.0398,-3.0398,-3.0398,-3.0398,-3.0398,-3.0398,-3.0398,-3.0398,-3.0398,-3.0398,-3.0398,-3.0398,-3.0398,-3.0398,-3.0398,-3.0398,-3.0398,-3.0398,-3.0398,-3.0398,-3.0398,-3.0398,-3.0506,-3.0604,-3.06,-3.0049,-2.9541,-2.959,-2.8428,-2.7314,-2.7051,-2.6504,-2.5996,-2.5742,-2.5703,-2.5703,-2.5703,-2.5703,-2.5703,-2.5703,-2.5703,-2.5703,-2.5703,-2.5703,-2.5703,-2.5703,-2.5703,-2.5703,-2.5703,-2.5703,-2.5703,-2.5703,-2.5703,-2.5703,-2.5703,-2.5703,-2.5703,-2.5703,-2.5703,-2.5703,-2.5703,-2.5703,-2.5703,0.0,0.0,0.0,0.0,0.0,0.0,0.0,0.0,0.0,0.0,0.0,0.0,0.0,0.0,0.0,0.0,0.0,0.0,0.0,0.0,0.0,0.0,0.0,0.0,0.0,-2.463,-2.4713,-2.4236,-2.4639,-2.4704,-2.4226,-2.4649,-2.4915,-2.4915,-2.5392,-2.5805,-2.6117,-2.6117,-2.6282,-2.6603,-2.6603,-2.7117,-2.8062,-2.8532,-2.9108,-2.9713,-3.0027,-3.0254,-3.0398,-3.0398,-3.0398,-3.0398,-3.0398,-3.0398,-3.0398,-3.0398,-3.0398,-3.0398,-3.0398,-3.0398,-3.0398,-3.0398,-3.0398,-3.0398,-3.0398,-3.0398,-3.0398,-3.0398,-3.0398,-3.0398,-3.0398,-3.0487,-3.0571,-3.0595,-2.9788,-2.9033,-2.9072,-2.7715,-2.6484,-2.6484,-2.6064,-2.5703,-2.5703,-2.5703,-2.5703,-2.5703,-2.5703,-2.5703,-2.5703,-2.5703,-2.5703,-2.5703,-2.5703,-2.5703,-2.5703,-2.5703,-2.5703,-2.5703,-2.5703,-2.5703,-2.5703,-2.5703,-2.5703,-2.5703,-2.5703,-2.5703,-2.5703,-2.5703,-2.5703,-2.5703,-2.5703,-2.5703,0.0,0.0,0.0,0.0,0.0,0.0,0.0,0.0,0.0,0.0,0.0,0.0,0.0,0.0,0.0,0.0,0.0,0.0,0.0,0.0,0.0,0.0,0.0,0.0,0.0,-2.4199,-2.4199,-2.4199,-2.4199,-2.4199,-2.4199,-2.4199,-2.4199,-2.4199,-2.4199,-2.4548,-2.5283,-2.5293,-2.5649,-2.6383,-2.6383,-2.6429,-2.6521,-2.7319,-2.8344,-2.9504,-3.0048,-3.0285,-3.0294,-3.0369,-3.0398,-3.0398,-3.0398,-3.0398,-3.0398,-3.0398,-3.0398,-3.0398,-3.0398,-3.0398,-3.0398,-3.0398,-3.0398,-3.0398,-3.0398,-3.0398,-3.0398,-3.0398,-3.0398,-3.0398,-3.0408,-3.0467,-3.0516,-3.0506,-2.937,-2.8268,-2.8203,-2.6865,-2.5703,-2.5703,-2.5703,-2.5703,-2.5703,-2.5703,-2.5703,-2.5703,-2.5703,-2.5703,-2.5703,-2.5703,-2.5703,-2.5703,-2.5703,-2.5703,-2.5703,-2.5703,-2.5703,-2.5703,-2.5703,-2.5703,-2.5703,-2.5703,-2.5703,-2.5703,-2.5703,-2.5703,-2.5703,-2.5703,-2.5703,-2.5703,-2.5703,-2.5703,0.0,0.0,0.0,0.0,0.0,0.0,0.0,0.0,0.0,0.0,0.0,0.0,0.0,0.0,0.0,0.0,0.0,0.0,0.0,0.0,0.0,0.0,0.0,0.0,-2.4199,-2.4199,-2.4199,-2.4199,-2.4199,-2.4199,-2.4199,-2.4199,-2.4199,-2.4199,-2.4199,-2.4281,-2.4456,-2.4456,-2.4538,-2.4722,-2.4722,-2.5043,-2.5697,-2.6493,-2.7174,-2.7796,-2.8903,-2.9381,-2.9429,-3.0121,-3.0398,-3.0398,-3.0398,-3.0398,-3.0398,-3.0398,-3.0398,-3.0398,-3.0398,-3.0398,-3.0398,-3.0398,-3.0398,-3.0398,-3.0398,-3.0398,-3.0398,-3.0398,-3.0398,-3.0408,-3.0467,-3.0535,-3.0448,-2.9867,-2.8963,-2.8051,-2.7425,-2.6445,-2.5703,-2.5703,-2.5703,-2.5703,-2.5703,-2.5703,-2.5703,-2.5703,-2.5703,-2.5703,-2.5703,-2.5703,-2.5703,-2.5703,-2.5703,-2.5703,-2.5703,-2.5703,-2.5703,-2.5703,-2.5703,-2.5703,-2.5703,-2.5703,-2.5703,-2.5703,-2.5703,-2.5703,-2.5703,-2.5703,-2.5703,-2.5703,-2.5703,-2.5703,0.0,0.0,0.0,0.0,0.0,0.0,0.0,0.0,0.0,0.0,0.0,0.0,0.0,0.0,0.0,0.0,0.0,0.0,0.0,0.0,0.0,0.0,0.0,0.0,-2.4199,-2.4199,-2.4199,-2.4199,-2.4199,-2.4199,-2.4199,-2.4199,-2.4199,-2.4199,-2.4199,-2.4199,-2.4199,-2.4199,-2.4199,-2.4199,-2.4199,-2.4419,-2.487,-2.6265,-2.7058,-2.7395,-2.8171,-2.8525,-2.8554,-2.9015,-2.9429,-2.9785,-2.9785,-3.0035,-3.0398,-3.0398,-3.0398,-3.0398,-3.0398,-3.0398,-3.0398,-3.0398,-3.0398,-3.0398,-3.0398,-3.0398,-3.0398,-3.0398,-3.0398,-3.0417,-3.0487,-3.0238,-2.9786,-2.9052,-2.8558,-2.8019,-2.7184,-2.6318,-2.5703,-2.5703,-2.5703,-2.5703,-2.5703,-2.5703,-2.5703,-2.5703,-2.5703,-2.5703,-2.5703,-2.5703,-2.5703,-2.5703,-2.5703,-2.5703,-2.5703,-2.5703,-2.5703,-2.5703,-2.5703,-2.5703,-2.5703,-2.5636,-2.5632,-2.5703,-2.5674,-2.5674,-2.5703,-2.5703,-2.5703,-2.5703,-2.5703,-2.5703,0.0,0.0,0.0,0.0,0.0,0.0,0.0,0.0,0.0,0.0,0.0,0.0,0.0,0.0,0.0,0.0,0.0,0.0,0.0,0.0,0.0,0.0,0.0,-2.4199,-2.4199,-2.4199,-2.4199,-2.4199,-2.4199,-2.4199,-2.4199,-2.4199,-2.4199,-2.4199,-2.4199,-2.4199,-2.4199,-2.4199,-2.4199,-2.4199,-2.4199,-2.4209,-2.4321,-2.6,-2.6881,-2.7052,-2.7453,-2.7638,-2.7688,-2.7832,-2.8284,-2.8881,-2.8881,-2.9333,-2.9977,-2.9977,-2.9977,-2.9996,-3.0131,-3.0189,-3.0189,-3.0189,-3.0189,-3.015,-3.0015,-2.9977,-2.9977,-2.9977,-2.9977,-2.9985,-3.0071,-2.959,-2.8909,-2.8169,-2.804,-2.7842,-2.6963,-2.6211,-2.5703,-2.5703,-2.5703,-2.5703,-2.5703,-2.5703,-2.5703,-2.5703,-2.5703,-2.5703,-2.5703,-2.5703,-2.5703,-2.5703,-2.5703,-2.5703,-2.5703,-2.5703,-2.5703,-2.5703,-2.5703,-2.5703,-2.5703,-2.5586,-2.5587,-2.5699,-2.5633,-2.5635,-2.5703,-2.5703,-2.5703,-2.5703,-2.5703,-2.5703,0.0,0.0,0.0,0.0,0.0,0.0,0.0,0.0,0.0,0.0,0.0,0.0,0.0,0.0,0.0,0.0,0.0,0.0,0.0,0.0,0.0,0.0,0.0,-2.4199,-2.4199,-2.4199,-2.4199,-2.4199,-2.4199,-2.4199,-2.4199,-2.4199,-2.4199,-2.4199,-2.4199,-2.4199,-2.4199,-2.4199,-2.4199,-2.4199,-2.4199,-2.4284,-2.447,-2.4926,-2.5149,-2.5206,-2.6127,-2.6617,-2.6832,-2.7592,-2.7957,-2.8053,-2.8053,-2.813,-2.8227,-2.8227,-2.8227,-2.8332,-2.9025,-2.9265,-2.9265,-2.9265,-2.9265,-2.914,-2.8448,-2.8227,-2.8227,-2.8227,-2.8227,-2.8254,-2.8391,-2.8345,-2.8067,-2.734,-2.7169,-2.6934,-2.6064,-2.5781,-2.5703,-2.5703,-2.5703,-2.5703,-2.5703,-2.5703,-2.5703,-2.5703,-2.5703,-2.5703,-2.5703,-2.5703,-2.5703,-2.5703,-2.5703,-2.5703,-2.5703,-2.5703,-2.5703,-2.5703,-2.5703,-2.5703,-2.5703,-2.568,-2.5678,-2.5702,-2.5629,-2.5635,-2.5703,-2.5703,-2.5703,-2.5703,-2.5703,-2.5703,0.0,0.0,0.0,0.0,0.0,0.0,0.0,0.0,0.0,0.0,0.0,0.0,0.0,0.0,0.0,0.0,0.0,0.0,0.0,0.0,0.0,0.0,0.0,-2.4199,-2.4199,-2.4199,-2.4199,-2.4199,-2.4199,-2.4199,-2.4199,-2.4199,-2.4199,-2.4199,-2.4199,-2.4199,-2.4199,-2.4199,-2.4199,-2.4199,-2.4199,-2.4247,-2.433,-2.4418,-2.462,-2.4949,-2.5497,-2.5789,-2.5909,-2.6294,-2.6726,-2.7169,-2.7169,-2.7467,-2.79,-2.79,-2.79,-2.7948,-2.8294,-2.8429,-2.8429,-2.8429,-2.8429,-2.8352,-2.8005,-2.79,-2.79,-2.79,-2.79,-2.7928,-2.807,-2.7745,-2.7354,-2.7244,-2.6742,-2.6172,-2.5781,-2.5703,-2.5703,-2.5703,-2.5703,-2.5703,-2.5703,-2.5703,-2.5703,-2.5703,-2.5703,-2.5703,-2.5703,-2.5703,-2.5703,-2.5703,-2.5703,-2.5703,-2.5703,-2.5703,-2.5703,-2.5703,-2.5703,-2.5703,-2.5703,-2.57,-2.5702,-2.5697,-2.5631,-2.5629,-2.5703,-2.5703,-2.5703,-2.5703,-2.5703,-2.5703,0.0,0.0,0.0,0.0,0.0,0.0,0.0,0.0,0.0,0.0,0.0,0.0,0.0,0.0,0.0,0.0,0.0,0.0,0.0,0.0,0.0,0.0,-2.4151,-2.4199,-2.4199,-2.4199,-2.4199,-2.4199,-2.4199,-2.4199,-2.4199,-2.4199,-2.4199,-2.4199,-2.4199,-2.4199,-2.4199,-2.4199,-2.4199,-2.4199,-2.4199,-2.4199,-2.4199,-2.4256,-2.4524,-2.4959,-2.5117,-2.5213,-2.5293,-2.5293,-2.5678,-2.6274,-2.6274,-2.6669,-2.7236,-2.7236,-2.7236,-2.7265,-2.7486,-2.7573,-2.7573,-2.7573,-2.7573,-2.7525,-2.7313,-2.7236,-2.7236,-2.7236,-2.7236,-2.7265,-2.74,-2.6975,-2.6571,-2.6889,-2.6318,-2.5703,-2.5703,-2.5703,-2.5703,-2.5703,-2.5703,-2.5703,-2.5703,-2.5703,-2.5703,-2.5703,-2.5703,-2.5703,-2.5703,-2.5703,-2.5703,-2.5703,-2.5703,-2.5703,-2.5703,-2.5703,-2.5703,-2.5703,-2.5703,-2.5703,-2.5703,-2.5703,-2.5701,-2.5694,-2.5648,-2.5651,-2.5703,-2.5703,-2.5703,-2.5703,-2.5703,-2.5703,0.0,0.0,0.0,0.0,0.0,0.0,0.0,0.0,0.0,0.0,0.0,0.0,0.0,0.0,0.0,0.0,0.0,0.0,0.0,0.0,0.0,0.0,-2.3996,-2.4199,-2.4199,-2.4199,-2.4199,-2.4199,-2.4199,-2.4199,-2.4199,-2.4199,-2.4199,-2.4199,-2.4199,-2.4199,-2.4199,-2.4199,-2.4199,-2.4199,-2.4199,-2.4199,-2.4218,-2.4393,-2.4607,-2.4809,-2.4809,-2.5009,-2.5293,-2.5293,-2.5322,-2.537,-2.537,-2.5399,-2.5437,-2.5437,-2.5437,-2.5543,-2.638,-2.6669,-2.6669,-2.6669,-2.6669,-2.6515,-2.5687,-2.5437,-2.5437,-2.5437,-2.5437,-2.5466,-2.5601,-2.5649,-2.5677,-2.5772,-2.5742,-2.5703,-2.5703,-2.5703,-2.5703,-2.5703,-2.5703,-2.5703,-2.5703,-2.5703,-2.5703,-2.5703,-2.5703,-2.5703,-2.5703,-2.5703,-2.5703,-2.5703,-2.5703,-2.5703,-2.5703,-2.5703,-2.5703,-2.5703,-2.5703,-2.5703,-2.5703,-2.5703,-2.5703,-2.5702,-2.5699,-2.5699,-2.5703,-2.5703,-2.5703,-2.5703,-2.5703,-2.5703,0.0,0.0,0.0,0.0,0.0,0.0,0.0,0.0,0.0,0.0,0.0,0.0,0.0,0.0,0.0,0.0,0.0,0.0,0.0,0.0,0.0,0.0,-2.4122,-2.4199,-2.4199,-2.4199,-2.4199,-2.4199,-2.4199,-2.4199,-2.4199,-2.4199,-2.4199,-2.4199,-2.4199,-2.4199,-2.4199,-2.4199,-2.4199,-2.4199,-2.4199,-2.4199,-2.4199,-2.4266,-2.4428,-2.4617,-2.4617,-2.4869,-2.5293,-2.5293,-2.5293,-2.5293,-2.5293,-2.5293,-2.5293,-2.5293,-2.5293,-2.5341,-2.5658,-2.5774,-2.5774,-2.5774,-2.5774,-2.5707,-2.5389,-2.5293,-2.5293,-2.5293,-2.5293,-2.5332,-2.5524,-2.5582,-2.5621,-2.5683,-2.5703,-2.5703,-2.5703,-2.5703,-2.5703,-2.5703,-2.5703,-2.5703,-2.5703,-2.5703,-2.5703,-2.5703,-2.5703,-2.5703,-2.5703,-2.5703,-2.5703,-2.5703,-2.5703,-2.5703,-2.5703,-2.5703,-2.5703,-2.5703,-2.5703,-2.5703,-2.5703,-2.5703,-2.5703,-2.5703,-2.5701,-2.5701,-2.5703,-2.5703,-2.5703,-2.5703,-2.5703,-2.5703,0.0,0.0,0.0,0.0,0.0,0.0,0.0,0.0,0.0,0.0,0.0,0.0,0.0,0.0,0.0,0.0,0.0,0.0,0.0,0.0,0.0,0.0,-2.4122,-2.4199,-2.4199,-2.4199,-2.4199,-2.4199,-2.4199,0.0,-2.4199,-2.4199,-2.4199,-2.4199,-2.4199,-2.4199,-2.4199,-2.4199,-2.4199,-2.4199,-2.4199,-2.4199,-2.4199,-2.4199,-2.4321,-2.4495,-2.4495,-2.4741,-2.5126,-2.5126,-2.516,-2.5203,-2.5203,-2.5244,-2.5293,-2.5293,-2.5293,-2.5293,-2.5293,-2.5293,-2.5293,-2.5293,-2.5293,-2.5293,-2.5293,-2.5293,-2.5293,-2.5293,-2.5293,-2.5351,-2.5575,-2.5628,-2.5643,-2.5688,-2.5703,-2.5703,-2.5703,-2.5703,-2.5703,-2.5703,-2.5703,-2.5703,-2.5703,-2.5703,-2.5703,-2.5703,-2.5703,-2.5703,-2.5703,-2.5703,-2.5703,-2.5703,-2.5703,-2.5703,-2.5703,-2.5703,-2.5703,-2.5703,-2.5703,-2.5703,-2.5703,-2.5703,-2.5703,-2.5703,-2.5703,-2.5703,-2.5703,-2.5703,-2.5703,-2.5703,-2.5703,-2.5703,0.0,0.0,0.0,0.0,0.0,0.0,0.0,0.0,0.0,0.0,0.0,0.0,0.0,0.0,0.0,0.0,0.0,0.0,0.0,0.0,0.0,0.0,-2.3967,-2.417,-2.417,-2.417,-2.417,-2.417,-2.417,-2.417,-2.417,-2.417,-2.4199,-2.4199,-2.4199,-2.4199,-2.4199,-2.4199,-2.4199,-2.4199,-2.4199,-2.4199,-2.4199,-2.4199,-2.4303,-2.4495,-2.4495,-2.4591,-2.479,-2.479,-2.4887,-2.5001,-2.5001,-2.512,-2.5293,-2.5293,-2.5293,-2.5293,-2.5293,-2.5293,-2.5293,-2.5293,-2.5293,-2.5293,-2.5293,-2.5293,-2.5293,-2.5293,-2.5293,-2.5363,-2.5633,-2.5703,-2.5703,-2.5703,-2.5703,-2.5703,-2.5703,-2.5703,-2.5703,-2.5703,-2.5703,-2.5703,-2.5703,-2.5693,-2.5693,-2.5693,-2.5693,-2.5703,-2.5703,-2.5703,-2.5703,-2.5703,-2.5703,-2.5703,-2.5703,-2.5703,-2.5703,-2.5703,-2.5703,-2.5703,-2.5703,-2.5703,-2.5703,-2.5703,-2.5703,-2.5703,-2.5703,-2.5703,-2.5703,-2.5703,-2.5703,-2.5703,-0.6529,0.0,0.0,0.0,0.0,0.0,0.0,0.0,0.0,0.0,0.0,0.0,0.0,0.0,0.0,0.0,0.0,0.0,0.0,0.0,0.0,0.0,-2.364,-2.3744,-2.3491,-2.3692,-2.3744,0.0,-2.3468,-2.3468,-2.3468,-2.3723,-2.3946,-2.419,-2.4199,-2.4199,-2.4199,-2.4199,-2.4199,-2.4199,-2.4199,-2.4199,-2.4199,-2.4199,-2.4228,-2.4284,-2.4284,-2.4312,-2.4393,-2.4685,-2.4887,-2.5001,-2.5001,-2.512,-2.5293,-2.5293,-2.5293,-2.5293,-2.5293,-2.5293,-2.5293,-2.5293,-2.5293,-2.5293,-2.5293,-2.5293,-2.5312,-2.5418,-2.537,-2.5363,-2.5633,-2.5703,-2.5703,-2.5703,-2.5703,-2.5703,-2.5703,-2.5703,-2.5684,-2.5638,-2.5668,-2.5703,-2.5703,-2.5543,-2.541,-2.541,-2.5577,-2.5703,-2.5703,-2.5703,-2.5703,-2.5703,-2.5703,-2.5703,-2.5703,-2.5703,-2.5703,-2.5703,-2.5703,-2.5703,-2.5703,-2.5703,-2.5703,-2.5703,-2.5703,-2.5703,-2.5703,-2.5703,-2.5703,-2.5703,-2.5703,-2.5703,0.0,0.0,0.0,0.0,0.0,0.0,0.0,-1.0466,0.0,0.0,0.0,0.0,0.0,0.0,0.0,0.0,0.0,0.0,0.0,0.0,0.0,0.0,-2.2441,-2.2493,-2.23,-2.2472,-2.2493,-2.23,-2.2278,-2.2474,-2.2923,-2.3417,-2.3846,-2.4199,-2.4199,-2.4199,-2.4199,-2.4199,-2.4199,-2.4199,-2.4199,-2.4199,-2.4199,-2.4199,-2.4199,-2.4199,-2.4199,-2.4199,-2.4209,-2.4444,-2.4687,-2.4917,-2.4917,-2.5063,-2.5293,-2.5293,-2.5293,-2.5293,-2.5293,-2.5293,-2.5293,-2.5293,-2.5293,-2.5293,-2.5293,-2.5293,-2.5322,-2.5466,-2.5482,-2.5498,-2.566,-2.5703,-2.5703,-2.5703,-2.5703,-2.5703,-2.5703,-2.5703,-2.5688,-2.5649,-2.5576,-2.5564,-2.5685,-2.5473,-2.5293,-2.5293,-2.5428,-2.5525,-2.5525,-2.5525,-2.5577,-2.5693,-2.5703,-2.5703,-2.5703,-2.5703,-2.5703,-2.5703,-2.5703,-2.5703,-2.5703,-2.5703,-2.5703,-2.5703,-2.5703,-2.5703,-2.5703,-2.5703,-2.5703,-2.5703,-2.5703,-2.5703,0.0,0.0,0.0,0.0,0.0,0.0,-0.9402,-0.9563,-0.9563,0.0,0.0,0.0,0.0,0.0,0.0,0.0,0.0,0.0,0.0,0.0,0.0,0.0,-2.093,-2.093,-2.0888,-2.093,-2.093,-2.0888,-2.0888,-2.1325,-2.2366,-2.3031,-2.3599,-2.4061,-2.407,-2.4107,-2.4199,-2.4199,-2.4199,-2.4199,-2.4199,-2.4199,-2.4199,-2.4199,-2.4199,-2.4199,-2.4199,-2.4199,-2.4199,-2.4199,-2.4418,-2.4775,-2.479,-2.4997,-2.5264,-2.5293,-2.5293,-2.5293,-2.5293,-2.5293,-2.5293,-2.5293,-2.5293,-2.5293,-2.5293,-2.5303,-2.5332,-2.5476,-2.5595,-2.5703,-2.5703,-2.5703,-2.5703,-2.5703,-2.5703,-2.5693,-2.566,-2.5659,-2.5659,-2.5659,-2.5485,-2.5409,-2.562,-2.5466,-2.5293,-2.5293,-2.5293,-2.5293,-2.5293,-2.5293,-2.5396,-2.5672,-2.5703,-2.5703,-2.5703,-2.5703,-2.5703,-2.5703,-2.5703,-2.5703,-2.5703,-2.5703,-2.5703,-2.5703,-2.5703,-2.5703,-2.5703,-2.5703,-2.5703,-2.5703,-2.5703,-2.5703,0.0,0.0,0.0,0.0,0.0,0.0,0.0,-0.9047,-0.9257,0.0,0.0,0.0,0.0,0.0,0.0,0.0,0.0,0.0,0.0,0.0,0.0,0.0,0.0,-2.0483,-2.0216,-2.0437,-2.0492,-2.0216,-2.02,-2.0497,-2.1194,-2.1366,-2.1997,-2.3198,-2.3235,-2.3556,-2.419,-2.4199,-2.4199,-2.4199,-2.4199,-2.4199,-2.4199,-2.4199,-2.4199,-2.4199,-2.4199,-2.4199,-2.4199,-2.4199,-2.4348,-2.4559,-2.4731,-2.49,-2.5088,-2.5244,-2.5293,-2.5293,-2.5293,-2.5293,-2.5293,-2.5293,-2.5293,-2.5293,-2.5293,-2.5332,-2.5409,-2.5543,-2.5639,-2.5703,-2.5703,-2.5703,-2.5703,-2.5703,-2.5703,-2.5636,-2.5415,-2.5377,-2.5377,-2.5377,-2.5513,-2.5572,-2.5409,-2.5322,-2.5293,-2.5293,-2.5293,-2.5293,-2.5293,-2.5293,-2.5396,-2.5672,-2.5703,-2.5703,-2.5703,-2.5703,-2.5703,-2.5703,-2.5703,-2.5703,-2.5703,-2.5703,-2.5703,-2.5703,-2.5703,-2.5703,-2.5703,-2.5703,-2.5703,-2.5703,-2.5703,-2.5703,0.0,0.0,0.0,-1.033,0.0,0.0,0.0,0.0,0.0,0.0,0.0,0.0,0.0,0.0,0.0,0.0,0.0,0.0,0.0,0.0,0.0,0.0,0.0,-1.8138,-1.8341,-1.8503,-1.868,-1.8894,-1.9233,-1.9651,-2.0122,-2.0512,-2.1167,-2.2172,-2.219,-2.2648,-2.3593,-2.3602,-2.3804,-2.4199,-2.4199,-2.4199,-2.4199,-2.4199,-2.4199,-2.4199,-2.4199,-2.4199,-2.4199,-2.4199,-2.4321,-2.4528,-2.4716,-2.4939,-2.5163,-2.5264,-2.5293,-2.5293,-2.5293,-2.5293,-2.5293,-2.5293,-2.5293,-2.5293,-2.5293,-2.535,-2.541,-2.5477,-2.5556,-2.5607,-2.5644,-2.563,-2.5625,-2.5683,-2.5596,-2.5455,-2.5331,-2.5293,-2.5293,-2.5293,-2.5409,-2.5466,-2.5312,-2.5293,-2.5293,-2.5293,-2.5293,-2.5293,-2.5293,-2.5293,-2.5396,-2.5672,-2.5703,-2.5703,-2.5703,-2.5703,-2.5703,-2.5703,-2.5703,-2.5703,-2.5703,-2.5703,-2.5703,-2.5703,-2.5703,-2.5703,-2.5703,-2.5703,-2.5703,-2.5703,-2.5703,-2.5703,0.0,0.0,0.0,0.0,0.0,-0.9819,0.0,0.0,0.0,0.0,0.0,0.0,0.0,0.0,0.0,0.0,0.0,0.0,0.0,0.0,0.0,0.0,0.0,-1.5496,-1.6076,-1.6185,-1.6526,-1.7329,-1.7803,-1.8316,-1.893,-1.9517,-2.0227,-2.1084,-2.1084,-2.1605,-2.2676,-2.284,-2.3281,-2.3969,-2.4125,-2.4199,-2.4199,-2.4199,-2.4199,-2.4199,-2.4199,-2.4199,-2.419,-2.4238,-2.4375,-2.4559,-2.4731,-2.4975,-2.5253,-2.5283,-2.5293,-2.5293,-2.5293,-2.5293,-2.5293,-2.5293,-2.5293,-2.5293,-2.5312,-2.5357,-2.5403,-2.5423,-2.5464,-2.5508,-2.5569,-2.5543,-2.5524,-2.5601,-2.5466,-2.5293,-2.5293,-2.5293,-2.5293,-2.5293,-2.5293,-2.5293,-2.5293,-2.5293,-2.5293,-2.5293,-2.5293,-2.5293,-2.5293,-2.5293,-2.5396,-2.5672,-2.5703,-2.5703,-2.5703,-2.5703,-2.5703,-2.5703,-2.5703,-2.5703,-2.5703,-2.5703,-2.5703,-2.5703,-2.5703,-2.5703,-2.5703,-2.5703,-2.5703,-2.5703,-2.5703,-2.5703,0.0,0.0,0.0,0.0,-1.1217,0.0,0.0,0.0,0.0,0.0,0.0,0.0,0.0,0.0,0.0,0.0,0.0,0.0,0.0,0.0,0.0,0.0,0.0,-1.4039,-1.4113,-1.4298,-1.4799,-1.577,-1.5325,-1.5697,-1.7285,-1.7433,-1.8261,-1.9943,-1.9978,-2.0508,-2.1569,-2.2294,-2.2818,-2.3153,-2.3859,-2.4199,-2.4199,-2.4199,-2.4199,-2.4199,-2.4199,-2.4199,-2.4209,-2.4393,-2.4575,-2.4775,-2.479,-2.49,-2.5055,-2.5224,-2.5293,-2.5293,-2.5293,-2.5293,-2.5293,-2.5293,-2.5293,-2.5303,-2.537,-2.539,-2.5409,-2.5476,-2.5495,-2.5495,-2.5512,-2.5505,-2.5476,-2.537,-2.5312,-2.5293,-2.5293,-2.5293,-2.5293,-2.5293,-2.5293,-2.5293,-2.5293,-2.5293,-2.5293,-2.5293,-2.5293,-2.5293,-2.5293,-2.5293,-2.5396,-2.5672,-2.5703,-2.5703,-2.5703,-2.5703,-2.5703,-2.5703,-2.5703,-2.5703,-2.5703,-2.5703,-2.5703,-2.5703,-2.5703,-2.5703,-2.5703,-2.5703,-2.5703,-2.5703,-2.5703,-2.5703,0.0,0.0,0.0,0.0,0.0,0.0,-0.9041,0.0,-0.8357,0.0,0.0,0.0,0.0,0.0,0.0,0.0,0.0,0.0,0.0,0.0,0.0,0.0,0.0,0.0,-1.2535,-1.3549,-1.4115,-1.4032,-1.4218,-1.4649,-1.5374,-1.6348,-1.73,-1.8202,-1.8647,-1.9454,-2.0689,-2.1042,-2.1807,-2.2988,-2.3345,-2.3749,-2.4199,-2.4199,-2.4199,-2.4199,-2.4199,-2.4199,-2.4218,-2.4428,-2.4617,-2.4818,-2.4887,-2.5018,-2.5183,-2.5264,-2.5293,-2.5293,-2.5293,-2.5293,-2.5293,-2.5293,-2.5293,-2.5303,-2.5322,-2.5332,-2.5341,-2.538,-2.538,-2.538,-2.538,-2.538,-2.537,-2.5303,-2.5293,-2.5293,-2.5293,-2.5293,-2.5293,-2.5293,-2.5293,-2.5293,-2.5293,-2.5293,-2.5293,-2.5293,-2.5293,-2.5293,-2.5293,-2.5444,-2.5577,-2.5693,-2.5703,-2.5703,-2.5703,-2.5703,-2.5703,-2.5703,-2.5703,-2.5703,-2.5703,-2.5703,-2.5703,-2.5703,-2.5703,-2.5703,-2.5703,-2.5703,-2.5703,-2.5703,-2.5703,-2.5703,-1.1354,0.0,0.0,0.0,0.0,0.0,0.0,0.0,0.0,0.0,0.0,0.0,0.0,0.0,0.0,0.0,0.0,0.0,0.0,0.0,0.0,0.0,0.0,0.0,0.0,-1.2242,-1.2654,-1.2305,-1.2674,-1.3211,-1.3853,-1.5233,-1.6319,-1.6969,-1.7716,-1.8633,-1.974,-1.9983,-2.0834,-2.2309,-2.2565,-2.3088,-2.3869,-2.3869,-2.3988,-2.4199,-2.4199,-2.4228,-2.4303,-2.4495,-2.4691,-2.4873,-2.502,-2.5163,-2.5293,-2.5293,-2.5293,-2.5293,-2.5293,-2.5293,-2.5293,-2.5293,-2.5293,-2.5293,-2.5293,-2.5293,-2.5293,-2.5293,-2.5293,-2.5293,-2.5293,-2.5293,-2.5293,-2.5293,-2.5293,-2.5293,-2.5293,-2.5293,-2.5293,-2.5293,-2.5293,-2.5293,-2.5293,-2.5293,-2.5293,-2.5293,-2.5293,-2.5293,-2.5293,-2.5477,-2.5619,-2.5693,-2.5703,-2.5703,-2.5703,-2.5703,-2.5703,-2.5703,-2.5703,-2.5703,-2.5703,-2.5703,-2.5703,-2.5703,-2.5703,-2.5703,-2.5703,-2.5703,-2.5703,-2.5703,-2.5703,-2.5703,0.0,0.0,0.0,-1.0417,0.0,0.0,0.0,0.0,-0.9668,0.0,0.0,0.0,0.0,0.0,0.0,0.0,0.0,0.0,0.0,0.0,0.0,0.0,0.0,0.0,0.0,-0.9758,-0.9656,0.0,-1.0034,-1.0667,-1.3013,-1.3864,-1.5028,-1.6656,-1.7435,-1.8078,-1.8648,-1.9413,-2.0063,-2.0585,-2.1437,-2.2253,-2.3052,-2.3052,-2.3465,-2.4199,-2.4199,-2.4321,-2.4512,-2.4716,-2.4873,-2.501,-2.5214,-2.5293,-2.5293,-2.5293,-2.5293,-2.5293,-2.5293,-2.5293,-2.5293,-2.5293,-2.5293,-2.5293,-2.5293,-2.5293,-2.5293,-2.5293,-2.5293,-2.5293,-2.5293,-2.5293,-2.5293,-2.5293,-2.5293,-2.5293,-2.5293,-2.5293,-2.5293,-2.5293,-2.5293,-2.5293,-2.5293,-2.5293,-2.5293,-2.5293,-2.5293,-2.5293,-2.5293,-2.5313,-2.541,-2.5672,-2.5703,-2.5703,-2.5703,-2.5703,-2.5703,-2.5703,-2.5703,-2.5703,-2.5703,-2.5703,-2.5703,-2.5703,-2.5703,-2.5703,-2.5703,-2.5703,-2.5703,-2.5703,-2.5703,-2.5703,0.0,0.0,-1.2441,-1.0885,0.0,0.0,0.0,0.0,0.0,0.0,0.0,0.0,0.0,0.0,0.0,0.0,0.0,0.0,0.0,0.0,0.0,0.0,0.0,0.0,0.0,0.0,0.0,0.0,-0.9161,0.0,-1.1368,-1.2736,-1.4228,-1.5917,-1.6678,-1.7554,-1.8585,-1.887,-1.9515,-2.0494,-2.0803,-2.1382,-2.2208,-2.2208,-2.2639,-2.3419,-2.3419,-2.3823,-2.4528,-2.4716,-2.4887,-2.5022,-2.5214,-2.5293,-2.5293,-2.5293,-2.5293,-2.5293,-2.5293,-2.5214,-2.5099,-2.5099,-2.5099,-2.5099,-2.5099,-2.5194,-2.5293,-2.5293,-2.5293,-2.5293,-2.5293,-2.5293,-2.5293,-2.5293,-2.5293,-2.5293,-2.5293,-2.5293,-2.5293,-2.5293,-2.5293,-2.5293,-2.5293,-2.5293,-2.5293,-2.5293,-2.5293,-2.5363,-2.5543,-2.5561,-2.5601,-2.5693,-2.5703,-2.5703,-2.5703,-2.5703,-2.5703,-2.5703,-2.5703,-2.5703,-2.5703,-2.5535,-2.5444,-2.5444,-2.5521,-2.5607,-2.5703,-2.5664,-2.5664,-2.5703,-2.5703,-2.5703,-1.1593,-1.1872,0.0,-1.0995,-1.0763,0.0,-0.9184,0.0,0.0,0.0,0.0,0.0,0.0,0.0,0.0,0.0,0.0,0.0,0.0,0.0,0.0,0.0,0.0,0.0,0.0,0.0,-0.829,-0.7929,-0.8231,0.0,0.0,-1.1695,-1.337,-1.5053,-1.6133,-1.7264,-1.845,-1.845,-1.8965,-1.9966,-1.9966,-2.0445,-2.1336,-2.1336,-2.1785,-2.2593,-2.2887,-2.3433,-2.4176,-2.4614,-2.4913,-2.512,-2.5244,-2.5293,-2.5293,-2.5293,-2.5254,-2.5194,-2.5194,-2.5075,-2.4933,-2.4933,-2.4933,-2.4946,-2.4986,-2.5088,-2.5214,-2.5283,-2.5293,-2.5293,-2.5293,-2.5293,-2.5293,-2.5293,-2.5293,-2.5293,-2.5293,-2.5293,-2.5293,-2.5293,-2.5293,-2.5293,-2.5293,-2.5293,-2.5293,-2.5293,-2.5293,-2.5363,-2.5539,-2.5554,-2.5577,-2.5621,-2.5672,-2.566,-2.5571,-2.5554,-2.5554,-2.5554,-2.5554,-2.5554,-2.5554,-2.5391,-2.5293,-2.5293,-2.5432,-2.5545,-2.5661,-2.562,-2.5635,-2.5703,-2.5703,-2.5703]}]]